[[{"header":{"parameterUnit":"m.s-1","parameterCategory":1,"la1":30.6,"la2":28.766,"lo1":-90.7593,"lo2":-88.6598,"dy":0.0162,"dx":0.0183,"nx":116,"ny":114,"refTime":"2024-02-14T06:00:00:Z","depth":0,"parameterNumber":2,"parameterNumberName":"U-component_of_WINDS"},"data":[0.0,0.0,0.0,0.0,0.0,0.0,0.0,0.0,0.0,0.0,0.0,0.0,0.0,0.0,0.0,0.0,0.0,0.0,0.0,0.0,0.0,0.0,0.0,0.0,0.0,0.0,0.0,0.0,0.0,0.0,0.0,0.0,0.0,0.0,0.0,0.0,0.0,0.0,0.0,0.0,0.0,0.0,0.0,0.0,0.0,0.0,0.0,0.0,0.0,0.0,0.0,0.0,0.0,0.0,0.0,0.0,0.0,0.0,0.0,0.0,0.0,0.0,0.0,0.0,0.0,0.0,0.0,0.0,0.0,0.0,0.0,0.0,0.0,0.0,0.0,0.0,0.0,0.0,0.0,0.0,0.0,0.0,0.0,0.0,0.0,0.0,0.0,0.0,0.0,0.0,0.0,0.0,0.0,0.0,0.0,0.0,0.0,0.0,0.0,0.0,0.0,0.0,0.0,0.0,0.0,0.0,0.0,0.0,0.0,0.0,0.0,0.0,0.0,0.0,0.0,0.0,0.0,0.0,0.0,0.0,0.0,0.0,0.0,0.0,0.0,0.0,0.0,0.0,0.0,0.0,0.0,0.0,0.0,0.0,0.0,0.0,0.0,0.0,0.0,0.0,0.0,0.0,0.0,0.0,0.0,0.0,0.0,0.0,0.0,0.0,0.0,0.0,0.0,0.0,0.0,0.0,0.0,0.0,0.0,0.0,0.0,0.0,0.0,0.0,0.0,0.0,0.0,0.0,0.0,0.0,0.0,0.0,0.0,0.0,0.0,0.0,0.0,0.0,0.0,0.0,0.0,0.0,0.0,0.0,0.0,0.0,0.0,0.0,0.0,0.0,0.0,0.0,0.0,0.0,0.0,0.0,0.0,0.0,0.0,0.0,0.0,0.0,0.0,0.0,0.0,0.0,0.0,0.0,0.0,0.0,0.0,0.0,0.0,0.0,0.0,0.0,0.0,0.0,0.0,0.0,0.0,0.0,0.0,0.0,0.0,0.0,0.0,0.0,0.0,0.0,0.0,0.0,0.0,0.0,0.0,0.0,0.0,0.0,0.0,0.0,0.0,0.0,0.0,0.0,0.0,0.0,0.0,0.0,0.0,0.0,0.0,0.0,0.0,0.0,0.0,0.0,0.0,0.0,0.0,0.0,0.0,0.0,0.0,0.0,0.0,0.0,0.0,0.0,0.0,0.0,0.0,0.0,0.0,0.0,0.0,0.0,0.0,0.0,0.0,0.0,0.0,0.0,0.0,0.0,0.0,0.0,0.0,0.0,0.0,0.0,0.0,0.0,0.0,0.0,0.0,0.0,0.0,0.0,0.0,0.0,0.0,0.0,0.0,0.0,0.0,0.0,0.0,0.0,0.0,0.0,0.0,0.0,0.0,0.0,0.0,0.0,0.0,0.0,0.0,0.0,0.0,0.0,0.0,0.0,0.0,0.0,0.0,0.0,0.0,0.0,0.0,0.0,0.0,0.0,0.0,0.0,0.0,0.0,0.0,0.0,0.0,0.0,0.0,0.0,0.0,0.0,0.0,0.0,0.0,0.0,0.0,0.0,0.0,0.0,0.0,0.0,0.0,0.0,0.0,0.0,0.0,0.0,0.0,0.0,0.0,0.0,0.0,0.0,0.0,0.0,0.0,0.0,0.0,0.0,0.0,0.0,0.0,0.0,0.0,0.0,0.0,0.0,0.0,0.0,0.0,0.0,0.0,0.0,0.0,0.0,0.0,0.0,0.0,0.0,0.0,0.0,0.0,0.0,0.0,0.0,0.0,0.0,0.0,0.0,0.0,0.0,0.0,0.0,0.0,0.0,0.0,0.0,0.0,0.0,0.0,0.0,0.0,0.0,0.0,0.0,0.0,0.0,0.0,0.0,0.0,0.0,0.0,0.0,0.0,0.0,0.0,0.0,0.0,0.0,0.0,0.0,0.0,0.0,0.0,0.0,0.0,0.0,0.0,0.0,0.0,0.0,0.0,0.0,0.0,0.0,0.0,0.0,0.0,0.0,0.0,0.0,0.0,0.0,0.0,0.0,0.0,0.0,0.0,0.0,0.0,0.0,0.0,0.0,0.0,0.0,0.0,0.0,0.0,0.0,0.0,0.0,0.0,0.0,0.0,0.0,0.0,0.0,0.0,0.0,0.0,0.0,0.0,0.0,0.0,0.0,0.0,0.0,0.0,0.0,0.0,0.0,0.0,0.0,0.0,0.0,0.0,0.0,0.0,0.0,0.0,0.0,0.0,0.0,0.0,0.0,0.0,0.0,0.0,0.0,0.0,0.0,0.0,0.0,0.0,0.0,0.0,0.0,0.0,0.0,0.0,0.0,0.0,0.0,0.0,0.0,0.0,0.0,0.0,0.0,0.0,0.0,0.0,0.0,0.0,0.0,0.0,0.0,0.0,0.0,0.0,0.0,0.0,0.0,0.0,0.0,0.0,0.0,0.0,0.0,0.0,0.0,0.0,0.0,0.0,0.0,0.0,0.0,0.0,0.0,0.0,0.0,0.0,0.0,0.0,0.0,0.0,0.0,0.0,0.0,0.0,0.0,0.0,0.0,0.0,0.0,0.0,0.0,0.0,0.0,0.0,0.0,0.0,0.0,0.0,0.0,0.0,0.0,0.0,0.0,0.0,0.0,0.0,0.0,0.0,0.0,0.0,0.0,0.0,0.0,0.0,0.0,0.0,0.0,0.0,0.0,0.0,0.0,0.0,0.0,0.0,0.0,0.0,0.0,0.0,0.0,0.0,0.0,0.0,0.0,0.0,0.0,0.0,0.0,0.0,0.0,0.0,0.0,0.0,0.0,0.0,0.0,0.0,0.0,0.0,0.0,0.0,0.0,0.0,0.0,0.0,0.0,0.0,0.0,0.0,0.0,0.0,0.0,0.0,0.0,0.0,0.0,0.0,0.0,0.0,0.0,0.0,0.0,0.0,0.0,0.0,0.0,0.0,0.0,0.0,0.0,0.0,0.0,0.0,0.0,0.0,0.0,0.0,0.0,0.0,0.0,0.0,0.0,0.0,0.0,0.0,0.0,0.0,0.0,0.0,0.0,0.0,0.0,0.0,0.0,0.0,0.0,0.0,0.0,0.0,0.0,0.0,0.0,0.0,0.0,0.0,0.0,0.0,0.0,0.0,0.0,0.0,0.0,0.0,0.0,0.0,0.0,0.0,0.0,0.0,0.0,0.0,0.0,0.0,0.0,0.0,0.0,0.0,0.0,0.0,0.0,0.0,0.0,0.0,0.0,0.0,0.0,0.0,0.0,0.0,0.0,0.0,0.0,0.0,0.0,0.0,0.0,0.0,0.0,0.0,0.0,0.0,0.0,0.0,0.0,0.0,0.0,0.0,0.0,0.0,0.0,0.0,0.0,0.0,0.0,0.0,0.0,0.0,0.0,0.0,0.0,0.0,0.0,0.0,0.0,0.0,0.0,0.0,0.0,0.0,0.0,0.0,0.0,0.0,0.0,0.0,0.0,0.0,0.0,0.0,0.0,0.0,0.0,0.0,0.0,0.0,0.0,0.0,0.0,0.0,0.0,0.0,0.0,0.0,0.0,0.0,0.0,0.0,0.0,0.0,0.0,0.0,0.0,0.0,0.0,0.0,0.0,0.0,0.0,0.0,0.0,0.0,0.0,0.0,0.0,0.0,0.0,0.0,0.0,0.0,0.0,0.0,0.0,0.0,0.0,0.0,0.0,0.0,0.0,0.0,0.0,0.0,0.0,0.0,0.0,0.0,0.0,0.0,0.0,0.0,0.0,0.0,0.0,0.0,0.0,0.0,0.0,0.0,0.0,0.0,0.0,0.0,0.0,0.0,0.0,0.0,0.0,0.0,0.0,0.0,0.0,0.0,0.0,0.0,0.0,0.0,0.0,0.0,0.0,0.0,0.0,0.0,0.0,0.0,0.0,0.0,0.0,0.0,0.0,0.0,0.0,0.0,0.0,0.0,0.0,0.0,0.0,0.0,0.0,0.0,0.0,0.0,0.0,0.0,0.0,0.0,0.0,0.0,0.0,0.0,0.0,0.0,0.0,0.0,0.0,0.0,0.0,0.0,0.0,0.0,0.0,0.0,0.0,0.0,0.0,0.0,0.0,0.0,0.0,0.0,0.0,0.0,0.0,0.0,0.0,0.0,0.0,0.0,0.0,0.0,0.0,0.0,0.0,0.0,0.0,0.0,0.0,0.0,0.0,0.0,0.0,0.0,0.0,0.0,0.0,0.0,0.0,0.0,0.0,0.0,0.0,0.0,0.0,0.0,0.0,0.0,0.0,0.0,0.0,0.0,0.0,0.0,0.0,0.0,0.0,0.0,0.0,0.0,0.0,0.0,0.0,0.0,0.0,0.0,0.0,0.0,0.0,0.0,0.0,0.0,0.0,0.0,0.0,0.0,0.0,0.0,0.0,0.0,0.0,0.0,0.0,0.0,0.0,0.0,0.0,0.0,0.0,0.0,0.0,0.0,0.0,0.0,0.0,0.0,0.0,0.0,0.0,0.0,0.0,0.0,0.0,0.0,0.0,0.0,0.0,0.0,0.0,0.0,0.0,0.0,0.0,0.0,0.0,0.0,0.0,0.0,0.0,0.0,0.0,0.0,0.0,0.0,0.0,0.0,0.0,0.0,0.0,0.0,0.0,0.0,0.0,0.0,0.0,0.0,0.0,0.0,0.0,0.0,0.0,0.0,0.0,0.0,0.0,0.0,0.0,0.0,0.0,0.0,0.0,0.0,0.0,0.0,0.0,0.0,0.0,0.0,0.0,0.0,0.0,0.0,0.0,0.0,0.0,0.0,0.0,0.0,0.0,0.0,0.0,0.0,0.0,0.0,0.0,0.0,0.0,0.0,0.0,0.0,0.0,0.0,0.0,0.0,0.0,0.0,0.0,0.0,0.0,0.0,0.0,0.0,0.0,0.0,0.0,0.0,0.0,0.0,0.0,0.0,0.0,0.0,0.0,0.0,0.0,0.0,0.0,0.0,0.0,0.0,0.0,0.0,0.0,0.0,0.0,0.0,0.0,0.0,0.0,0.0,0.0,0.0,0.0,0.0,0.0,0.0,0.0,0.0,0.0,0.0,0.0,0.0,0.0,0.0,0.0,0.0,0.0,0.0,0.0,0.0,0.0,0.0,0.0,0.0,0.0,0.0,0.0,0.0,0.0,0.0,0.0,0.0,0.0,0.0,0.0,0.0,0.0,0.0,0.0,0.0,0.0,0.0,0.0,0.0,0.0,0.0,0.0,0.0,0.0,0.0,0.0,0.0,0.0,0.0,0.0,0.0,0.0,0.0,0.0,0.0,0.0,0.0,0.0,0.0,0.0,0.0,0.0,0.0,0.0,0.0,0.0,0.0,0.0,0.0,0.0,0.0,0.0,0.0,0.0,0.0,0.0,0.0,0.0,0.0,0.0,0.0,0.0,0.0,0.0,0.0,0.0,0.0,0.0,0.0,0.0,0.0,0.0,0.0,0.0,0.0,0.0,0.0,0.0,0.0,0.0,0.0,0.0,0.0,0.0,0.0,0.0,0.0,0.0,0.0,0.0,0.0,0.0,0.0,0.0,0.0,0.0,0.0,0.0,0.0,0.0,0.0,0.0,0.0,0.0,0.0,0.0,0.0,0.0,0.0,0.0,0.0,0.0,0.0,0.0,0.0,0.0,0.0,0.0,0.0,0.0,0.0,0.0,0.0,0.0,0.0,0.0,0.0,0.0,0.0,0.0,0.0,0.0,0.0,0.0,0.0,0.0,0.0,0.0,0.0,0.0,0.0,0.0,0.0,0.0,0.0,0.0,0.0,0.0,0.0,0.0,0.0,0.0,0.0,0.0,0.0,0.0,0.0,0.0,0.0,0.0,0.0,0.0,0.0,0.0,0.0,0.0,0.0,0.0,0.0,0.0,0.0,0.0,0.0,0.0,0.0,0.0,0.0,0.0,0.0,0.0,0.0,0.0,0.0,0.0,0.0,0.0,0.0,0.0,0.0,0.0,0.0,0.0,0.0,0.0,0.0,0.0,0.0,0.0,0.0,0.0,0.0,0.0,0.0,0.0,0.0,0.0,0.0,0.0,0.0,0.0,0.0,0.0,0.0,0.0,0.0,0.0,0.0,0.0,-0.9443,0.0,0.0,0.0,0.0,0.0,0.0,0.0,0.0,0.0,0.0,0.0,0.0,0.0,0.0,0.0,0.0,0.0,0.0,0.0,0.0,0.0,0.0,0.0,0.0,0.0,0.0,0.0,-1.6735,-1.6693,-1.6729,-1.6666,-1.6712,-1.7068,-1.6906,-1.6979,-1.7355,-1.7279,-1.7385,-1.7845,-1.8202,-1.9148,-2.0553,-2.02,-2.0229,-2.0459,0.0,0.0,0.0,0.0,0.0,0.0,0.0,0.0,0.0,0.0,0.0,0.0,0.0,0.0,0.0,0.0,0.0,0.0,0.0,0.0,0.0,0.0,0.0,0.0,0.0,0.0,0.0,0.0,0.0,0.0,0.0,0.0,0.0,0.0,0.0,0.0,0.0,0.0,0.0,0.0,0.0,0.0,0.0,0.0,0.0,0.0,0.0,0.0,0.0,0.0,0.0,0.0,0.0,0.0,0.0,0.0,0.0,0.0,0.0,0.0,0.0,0.0,0.0,0.0,0.0,0.0,0.0,0.0,0.0,0.0,0.0,-0.6159,0.0,0.0,0.0,0.0,0.0,0.0,0.0,0.0,0.0,0.0,0.0,0.0,0.0,0.0,0.0,0.0,0.0,0.0,0.0,0.0,0.0,0.0,0.0,-1.5824,-1.5695,-1.5379,-1.5359,-1.5429,-1.5482,-1.5456,-1.563,-1.5968,-1.5734,-1.5868,-1.6396,-1.6202,-1.6279,-1.6796,-1.7978,-1.9092,-1.9985,-1.9985,-2.0025,-2.0162,-1.8945,0.0,0.0,0.0,0.0,0.0,0.0,0.0,0.0,0.0,0.0,0.0,0.0,0.0,0.0,0.0,0.0,0.0,0.0,0.0,0.0,0.0,0.0,0.0,0.0,0.0,0.0,0.0,0.0,0.0,0.0,0.0,0.0,0.0,0.0,0.0,0.0,0.0,0.0,0.0,0.0,0.0,0.0,0.0,0.0,0.0,0.0,0.0,0.0,0.0,0.0,0.0,0.0,0.0,0.0,0.0,0.0,0.0,0.0,0.0,0.0,0.0,0.0,0.0,-0.6241,-0.57,-0.4785,-0.4055,-0.3317,-0.2764,-0.3448,-0.3565,-0.3018,0.0,0.0,0.0,0.0,0.0,0.0,0.0,0.0,0.0,0.0,0.0,0.0,0.0,0.0,0.0,0.0,0.0,0.0,0.0,0.0,0.0,0.0,-1.4419,-1.4412,-1.4187,-1.4358,-1.4397,-1.4228,-1.4123,-1.4214,-1.4609,-1.4629,-1.4788,-1.5158,-1.51,-1.5438,-1.6057,-1.8213,-1.9507,-1.9885,-1.9695,-1.9659,-1.9733,-1.9888,-2.0029,-1.9856,0.0,0.0,0.0,0.0,0.0,0.0,0.0,0.0,0.0,0.0,0.0,0.0,0.0,0.0,0.0,0.0,0.0,0.0,0.0,0.0,0.0,0.0,0.0,0.0,0.0,0.0,0.0,0.0,0.0,0.0,0.0,0.0,0.0,0.0,0.0,0.0,0.0,0.0,0.0,0.0,0.0,-1.7837,-1.6086,0.0,0.0,0.0,0.0,0.0,0.0,0.0,0.0,0.0,0.0,0.0,0.0,0.0,0.0,-0.8554,-0.7214,-0.6303,-0.5916,-0.5399,-0.4571,-0.3428,-0.26,-0.1671,-0.0631,0.0,0.0,-0.0377,0.1394,0.0,0.0,0.0,0.0,0.0,0.0,0.0,0.0,0.0,0.0,0.0,0.0,0.0,0.0,0.0,0.0,0.0,0.0,0.0,0.0,0.0,-1.3415,-1.3737,-1.3535,-1.4075,-1.4247,-1.3874,-1.3778,-1.3734,-1.3591,-1.3532,-1.3543,-1.3717,-1.4251,-1.5209,-1.6557,-1.7391,-1.8312,-1.9225,-1.9129,-1.9223,-1.9396,-1.9584,-1.9276,-1.8647,-1.797,0.0,0.0,0.0,0.0,0.0,0.0,0.0,0.0,0.0,0.0,0.0,0.0,0.0,0.0,0.0,0.0,0.0,0.0,0.0,0.0,0.0,0.0,0.0,0.0,0.0,0.0,0.0,0.0,0.0,0.0,0.0,0.0,0.0,0.0,0.0,0.0,0.0,0.0,0.0,-1.5831,-1.5858,-1.4576,-1.4432,-1.3705,0.0,0.0,0.0,0.0,0.0,0.0,0.0,0.0,0.0,-0.8764,-0.7511,-0.6748,-0.677,-0.5161,-0.4327,-0.4266,-0.3501,-0.2627,-0.1642,-0.0986,0.0,0.1096,0.1863,0.2354,0.2769,0.3442,0.4564,0.5947,0.0,0.0,0.0,0.0,0.0,1.6991,0.0,0.0,0.0,0.0,0.0,0.0,0.0,0.0,0.0,0.0,0.0,0.0,-1.1738,-1.2591,-1.3121,-1.2855,-1.357,-1.372,-1.3051,-1.3006,-1.2871,-1.2351,-1.229,-1.2336,-1.2336,-1.3454,-1.494,-1.6564,-1.6528,-1.7106,-1.8274,-1.8274,-1.8428,-1.8724,-1.8724,-1.8405,-1.7921,-1.7552,-1.7024,-1.6329,0.0,0.0,0.0,0.0,0.0,0.0,0.0,0.0,0.0,0.0,0.0,0.0,0.0,0.0,0.0,0.0,0.0,0.0,0.0,0.0,0.0,0.0,0.0,0.0,0.0,0.0,0.0,0.0,0.0,0.0,0.0,0.0,0.0,0.0,0.0,0.0,0.0,-1.4288,-1.4351,-1.359,-1.3572,-1.289,0.0,0.0,0.0,0.0,0.0,0.0,-0.8784,-0.7752,-0.7348,-0.7598,-0.6284,-0.5413,-0.5045,-0.3622,-0.2764,-0.2578,-0.1793,-0.0896,0.0,0.0561,0.1457,0.2576,0.3138,0.4006,0.5033,0.5163,0.5872,0.7189,0.871,0.9979,1.1237,1.3445,1.5039,1.6589,0.0,0.0,0.0,0.0,0.0,0.0,0.0,0.0,0.0,0.0,0.0,-1.0871,-1.0885,-1.1954,-1.2461,-1.2005,-1.2363,-1.2184,-1.1137,-1.123,-1.108,-1.0428,-1.0808,-1.1021,-1.1021,-1.27,-1.4038,-1.5114,-1.5833,-1.652,-1.7201,-1.7201,-1.7245,-1.7499,-1.7499,-1.8212,-1.9358,-1.8007,-1.7565,-1.7523,-1.5208,0.0,0.0,0.0,0.0,0.0,0.0,0.0,0.0,0.0,0.0,0.0,0.0,0.0,0.0,0.0,0.0,0.0,0.0,0.0,0.0,0.0,0.0,0.0,0.0,0.0,0.0,0.0,0.0,0.0,0.0,0.0,0.0,0.0,0.0,0.0,0.0,0.0,0.0,-1.3989,-1.3588,0.0,0.0,0.0,0.0,-1.0043,-0.8877,-0.8357,-0.8886,-0.7589,-0.673,-0.6433,-0.5443,-0.4568,-0.3695,-0.3022,-0.2127,-0.1009,-0.0673,0.0112,0.1234,0.157,0.2354,0.3586,0.3813,0.4592,0.5806,0.6236,0.6872,0.7607,0.9124,1.0177,1.1305,1.361,1.5335,1.698,0.0,0.0,0.0,0.0,0.0,0.0,0.0,0.0,-0.854,-0.868,-0.9112,-0.9427,-0.9434,-1.0659,-1.1316,-1.1133,-1.1905,-1.2004,-1.1023,-1.0863,-1.05,-0.991,-0.9662,-1.0207,-1.1605,-1.258,-1.3642,-1.4931,-1.4995,-1.5304,-1.5635,-1.5635,-1.5681,-1.5761,-1.5761,-1.6104,-1.677,-1.7265,-1.7095,-1.6416,-1.5846,-1.4796,0.0,0.0,0.0,0.0,0.0,0.0,0.0,0.0,0.0,0.0,0.0,0.0,0.0,0.0,0.0,0.0,0.0,0.0,0.0,0.0,0.0,0.0,0.0,0.0,0.0,0.0,0.0,0.0,0.0,0.0,0.0,0.0,0.0,0.0,0.0,0.0,0.0,-1.2144,-1.2245,0.0,-1.051,-0.9975,-0.96,-0.9361,-0.8591,-0.8031,-0.7815,-0.7107,-0.6238,-0.4965,-0.4162,-0.3123,-0.2084,-0.1504,-0.0926,-0.0347,0.0579,0.139,0.2083,0.2547,0.3337,0.4211,0.4328,0.4979,0.5819,0.6448,0.7208,0.8315,0.9789,1.0741,1.1558,1.3301,1.4588,1.5732,0.0,0.0,0.0,0.0,0.0,0.0,0.0,0.0,-0.706,-0.7415,-0.7807,-0.8202,-0.8401,-0.9507,-1.0213,-0.9974,-1.0733,-1.0811,-0.9883,-0.9769,-0.9419,-0.8621,-0.8762,-0.9665,-1.1559,-1.2114,-1.2967,-1.4182,-1.4044,-1.4097,-1.4302,-1.4302,-1.4343,-1.4426,-1.4541,-1.4615,-1.476,-1.6063,-1.6306,-1.5844,-1.587,-1.5123,-1.3965,0.0,0.0,0.0,0.0,0.0,0.0,0.0,0.0,0.0,0.0,0.0,0.0,0.0,0.0,0.0,0.0,0.0,0.0,0.0,0.0,0.0,0.0,0.0,0.0,0.0,0.0,0.0,0.0,0.0,0.0,0.0,0.0,0.0,0.0,0.0,-1.2057,-1.0894,-1.1325,-1.1226,-0.9829,-0.9618,-0.9315,-0.8735,-0.8109,-0.7508,-0.6819,-0.6192,-0.5291,-0.4118,-0.3061,-0.2239,-0.1296,-0.0589,-0.0118,0.0353,0.1296,0.2002,0.2588,0.2943,0.3627,0.4515,0.4515,0.4947,0.5803,0.6224,0.6995,0.8103,0.961,1.0607,1.1246,1.2539,1.3499,1.4401,0.0,0.0,0.0,0.0,0.0,0.0,0.0,-0.5546,-0.5637,-0.6181,-0.6736,-0.7183,-0.7679,-0.8509,-0.9,-0.8704,-0.8916,-0.8596,-0.7439,-0.7766,-0.7652,-0.6618,-0.8052,-0.9438,-1.0777,-1.1317,-1.1921,-1.2646,-1.2852,-1.3058,-1.3255,-1.3255,-1.3367,-1.3684,-1.4052,-1.4055,-1.3839,-1.4432,-1.5232,-1.5939,-1.5246,-1.5125,-1.5208,0.0,0.0,0.0,0.0,0.0,0.0,0.0,0.0,0.0,0.0,0.0,0.0,0.0,0.0,0.0,0.0,0.0,0.0,0.0,0.0,0.0,0.0,0.0,0.0,0.0,0.0,0.0,0.0,0.0,0.0,0.0,0.0,0.0,-1.1021,-1.1323,-1.142,-1.061,-1.1133,-1.1101,-1.004,-0.9603,-0.9097,-0.8433,-0.7513,-0.6696,-0.5994,-0.4826,-0.4006,-0.3656,-0.2478,-0.1652,-0.1416,-0.0472,0.0354,0.0944,0.1298,0.1887,0.2829,0.2829,0.3298,0.4236,0.4236,0.4705,0.5639,0.5784,0.6203,0.6878,0.8647,0.9691,1.0233,1.1219,1.2091,1.296,0.0,0.0,0.0,0.0,0.0,0.0,0.0,-0.4174,-0.4293,-0.4742,-0.5273,-0.5699,-0.5869,-0.6475,-0.6725,-0.6526,-0.693,-0.6912,-0.64,-0.6747,-0.684,-0.6555,-0.8125,-0.9197,-0.9657,-1.0625,-1.1388,-1.216,-1.2212,-1.2451,-1.2875,-1.2875,-1.291,-1.2964,-1.3084,-1.3048,-1.2994,-1.3718,-1.4163,-1.4407,-1.4964,-1.4832,-1.4129,0.0,0.0,0.0,0.0,0.0,0.0,0.0,0.0,0.0,0.0,0.0,0.0,0.0,0.0,0.0,0.0,0.0,0.0,0.0,0.0,0.0,0.0,0.0,0.0,0.0,0.0,0.0,0.0,0.0,0.0,0.0,-1.0714,-1.0961,-1.1189,-1.153,-1.1476,-1.0538,-1.0563,-1.0181,-0.8954,-0.8499,-0.7939,-0.7041,-0.6414,-0.586,-0.5264,-0.4476,-0.3651,-0.2923,-0.1705,-0.1097,-0.1097,0.0122,0.0854,0.0976,0.1828,0.2315,0.2558,0.2802,0.327,0.3953,0.3953,0.4285,0.494,0.5268,0.5377,0.571,0.7455,0.8478,0.903,0.9471,1.0233,1.0992,0.0,0.0,0.0,0.0,0.0,0.0,0.0,-0.2845,-0.3002,-0.3442,-0.3658,-0.3969,-0.4344,-0.4634,-0.4826,-0.473,-0.5219,-0.5322,-0.5051,-0.5486,-0.6028,-0.6612,-0.7793,-0.8689,-0.919,-1.0047,-1.0825,-1.1264,-1.1446,-1.1695,-1.2231,-1.2231,-1.2281,-1.2479,-1.2638,-1.2604,-1.2595,-1.3241,-1.3444,-1.3545,-1.4483,-1.4681,-1.4266,-1.4079,-1.3922,-1.3743,-1.3401,-1.3321,-1.3371,-1.2868,0.0,0.0,0.0,0.0,0.0,0.0,0.0,0.0,0.0,0.0,0.0,0.0,0.0,0.0,0.0,0.0,0.0,0.0,0.0,0.0,0.0,0.0,0.0,0.0,-1.0706,-1.0682,-1.0864,-1.0965,-1.0755,-1.003,-0.9666,-0.9046,-0.8172,-0.7707,-0.702,-0.6354,-0.5686,-0.5229,-0.4868,-0.4049,-0.3207,-0.2344,-0.1357,-0.0864,-0.0741,0.0247,0.0741,0.0741,0.1729,0.2097,0.2344,0.259,0.3069,0.0,0.341,0.3754,0.4202,0.4294,0.4397,0.0,0.0,0.0,0.0,0.0,0.8251,0.8796,0.0,0.0,0.0,0.0,0.0,0.0,0.0,-0.1623,-0.1776,-0.2203,-0.2033,-0.2186,-0.2867,-0.302,-0.3123,-0.3428,-0.3728,-0.3908,-0.3671,-0.4316,-0.5285,-0.6691,-0.7293,-0.7985,-0.9057,-0.9573,-1.0087,-1.0458,-1.0598,-1.0997,-1.141,-1.1534,-1.1752,-1.2296,-1.2383,-1.2423,-1.2513,-1.295,-1.3102,-1.3204,-1.3813,-1.4518,-1.4897,-1.3826,-1.3724,-1.4095,-1.3194,-1.3136,-1.3356,-1.3129,0.0,0.0,0.0,0.0,0.0,0.0,0.0,0.0,0.0,0.0,0.0,0.0,0.0,0.0,0.0,0.0,0.0,0.0,0.0,0.0,0.0,0.0,0.0,0.0,-1.0732,-1.0599,-1.0192,-0.9853,-0.9588,-0.9155,-0.8715,-0.8066,-0.7469,-0.688,-0.6315,-0.579,-0.5183,-0.4694,-0.445,0.0,0.0,0.0,0.0,-0.0869,-0.0496,0.0124,0.0495,0.0495,0.1113,0.1605,0.1849,0.2221,0.2467,0.2837,0.2837,0.296,0.3328,0.3162,0.3379,0.3722,0.5118,0.5741,0.572,0.6308,0.6492,0.0,0.0,0.0,0.0,0.0,0.0,0.0,0.0,-0.0449,-0.0608,-0.0744,-0.0853,-0.1088,-0.1653,-0.1599,-0.1814,-0.2219,-0.2487,-0.2926,-0.3571,-0.434,-0.5062,-0.5887,-0.6904,-0.7647,-0.8171,-0.8915,-0.954,-0.9902,-1.0293,-1.063,-1.1039,-1.141,-1.1627,-1.1925,-1.2272,-1.2299,-1.2151,-1.2488,-1.2743,-1.2844,-1.3204,-1.3679,-1.4033,-1.422,-1.4282,-1.4386,-1.4323,-1.4607,-1.493,-1.4237,-1.4064,-1.4036,-1.3282,0.0,0.0,0.0,0.0,0.0,0.0,0.0,0.0,0.0,0.0,0.0,0.0,0.0,0.0,0.0,0.0,0.0,0.0,0.0,0.0,-1.0128,-0.9846,-0.962,-0.9662,-0.871,-0.8106,-0.8373,-0.8102,-0.757,-0.6377,-0.6137,-0.5651,-0.4807,-0.4614,-0.4395,-0.3645,-0.305,0.0,-0.1535,-0.1151,-0.0895,-0.0512,0.0127,0.0503,0.0503,0.0,0.0,0.1235,0.1235,0.1481,0.1849,0.1849,0.1973,0.2342,0.2213,0.2315,0.2404,0.3892,0.4412,0.4472,0.4804,0.487,0.4923,0.0,0.0,0.0,0.0,0.0,0.0,0.0,0.0561,0.0419,0.0351,0.0292,0.0,-0.0443,-0.0457,-0.0648,-0.1203,-0.1649,-0.2266,-0.323,-0.3902,-0.4671,-0.5482,-0.6444,-0.7222,-0.7752,-0.8647,-0.9144,-0.9579,-0.9943,-1.0306,-1.0915,-1.1291,-1.168,-1.2048,-1.2258,-1.2255,-1.2158,-1.2339,-1.2448,-1.2715,-1.3084,-1.3379,-1.374,-1.4235,-1.4355,-1.4463,-1.4548,-1.4819,-1.4984,-1.4711,-1.48,-1.4814,-1.4388,-1.3845,-1.3097,0.0,0.0,0.0,0.0,0.0,0.0,0.0,0.0,0.0,0.0,0.0,0.0,0.0,0.0,-1.0407,-1.0626,0.0,-1.0087,-1.02,-0.9752,-0.9308,-0.9093,-0.8268,-0.7785,-0.8027,-0.7347,-0.6671,-0.5974,-0.5485,-0.488,-0.4284,-0.4316,-0.3954,-0.3062,-0.2828,-0.2322,-0.1418,-0.116,-0.0903,-0.0517,0.0,0.0255,0.0255,0.0634,0.0755,0.075,0.0875,0.0995,0.0987,0.0987,0.0987,0.0987,0.0987,0.0982,0.0975,0.1812,0.2375,0.2907,0.3141,0.3007,0.2868,0.0,0.0,0.0,0.0,0.0,0.0,0.0,0.1401,0.1348,0.1381,0.123,0.1014,0.056,0.0578,0.025,-0.0331,-0.1139,-0.19,-0.278,-0.3469,-0.4276,-0.525,-0.612,-0.6935,-0.7519,-0.8474,-0.8976,-0.9214,-0.9579,-1.0088,-1.0615,-1.1121,-1.1532,-1.2065,-1.2179,-1.2288,-1.2231,-1.2298,-1.2397,-1.2715,-1.3084,-1.3444,-1.3784,-1.4162,-1.429,-1.4292,-1.4457,-1.456,-1.46,-1.4934,-1.5256,-1.5553,-1.5539,-1.5089,-1.4292,-1.3061,-1.2662,0.0,0.0,0.0,0.0,0.0,0.0,0.0,0.0,0.0,-1.1293,-1.1091,-1.0782,-1.0699,-1.0828,-1.0469,-1.0108,-1.0325,-0.987,-0.9213,-0.8465,-0.7994,-0.7633,-0.7531,-0.6553,-0.5846,-0.5784,-0.493,-0.4328,-0.3994,-0.3878,-0.3498,-0.2851,-0.2728,-0.2342,-0.143,-0.117,-0.0911,-0.0651,-0.039,-0.0259,-0.0259,0.0,0.0128,0.0254,0.0507,0.0503,0.0248,0.0124,0.0,-0.0247,-0.037,-0.037,-0.037,-0.037,0.0243,0.107,0.1303,0.118,0.0941,0.0,0.0,0.0,0.0,0.0,0.0,0.0,0.0,0.2093,0.2241,0.186,0.155,0.1483,0.1209,0.0723,0.0,-0.1053,-0.1866,-0.2159,-0.3352,-0.4276,-0.4927,-0.6009,-0.6813,-0.7163,-0.8354,-0.8854,-0.8976,-0.9579,-0.991,-1.0073,-1.082,-1.1173,-1.1471,-1.2067,-1.2215,-1.206,-1.239,-1.2516,-1.2715,-1.3084,-1.3444,-1.3784,-1.4162,-1.4174,-1.3922,-1.4176,-1.4418,-1.46,-1.4934,-1.5256,-1.5577,-1.5755,-1.562,-1.5197,-1.4328,-1.3906,-1.3609,-1.3341,-1.3113,-1.2961,-1.2925,-1.2216,-1.1536,0.0,0.0,-1.1676,-1.1406,-1.1467,-1.144,-1.097,-1.0677,-1.0325,-0.9829,-0.9239,-0.8714,-0.7994,-0.7388,-0.6808,-0.6268,-0.6027,-0.578,-0.5164,-0.4467,-0.3989,-0.3737,-0.3262,-0.2894,-0.2631,-0.2397,-0.201,-0.1608,-0.1608,-0.134,-0.1072,-0.1059,-0.092,-0.092,-0.0909,-0.0902,-0.0901,-0.0901,-0.0894,-0.0882,-0.1117,-0.1356,-0.1356,-0.1603,-0.1726,-0.1726,-0.1726,-0.1723,-0.1469,-0.0604,-0.0357,-0.0471,0.0,0.0,0.0,0.0,0.0,0.0,0.0,0.0,0.0,0.2783,0.2448,0.2177,0.1981,0.1428,0.087,0.0213,-0.058,-0.1355,-0.2065,-0.2959,-0.3853,-0.4589,-0.5728,-0.6406,-0.6813,-0.8158,-0.8775,-0.8854,-0.9457,-1.0019,-1.0294,-1.0791,-1.126,-1.1672,-1.194,-1.2101,-1.202,-1.2281,-1.2431,-1.2706,-1.2958,-1.3268,-1.382,-1.3824,-1.3974,-1.4044,-1.3891,-1.3778,0.0,0.0,-1.4493,-1.478,-1.5635,-1.5499,-1.4944,-1.4437,-1.4136,-1.3861,-1.391,-1.3937,-1.397,-1.3773,-1.326,-1.2767,-1.2669,-1.2491,-1.2298,-1.1996,-1.1854,-1.1707,-1.1356,-1.0809,-1.0346,0.0,-0.9303,-0.861,-0.775,-0.7192,-0.6629,-0.5792,-0.5627,-0.53,-0.4917,-0.4293,-0.3798,-0.3567,-0.3191,-0.267,-0.2403,-0.2281,-0.2154,-0.2019,-0.175,-0.1481,-0.1346,-0.1205,-0.1068,-0.1068,-0.1061,-0.1053,-0.1045,-0.1306,-0.1548,-0.1893,-0.2256,-0.2363,-0.2344,-0.2467,-0.2714,-0.2837,-0.2837,-0.296,-0.2956,-0.1835,-0.1582,-0.2057,0.0,0.0,0.0,0.0,0.0,0.0,0.0,0.0,0.0,0.0,0.2915,0.2536,0.2148,0.1548,0.1001,0.0471,-0.0155,-0.0939,-0.1953,-0.2693,-0.3444,-0.4443,-0.5451,-0.6116,-0.6536,-0.7937,-0.8659,-0.8799,-0.9398,-0.9957,-1.0479,-1.0848,-1.1286,-1.1651,-1.1896,-1.1963,-1.1947,-1.2122,-1.2406,-1.2627,-1.2912,-1.3296,-1.3702,-1.3668,-1.3637,-1.3727,-1.3485,-1.3254,0.0,0.0,-1.3602,-1.3791,-1.485,-1.4748,-1.4292,-1.4304,-1.4178,-1.4125,-1.4059,-1.4217,-1.4396,-1.4083,-1.3867,-1.3532,-1.3207,-1.2881,-1.2612,-1.2274,-1.1907,-1.1705,-1.1326,-1.0829,-1.0419,-0.968,-0.922,-0.8488,-0.7388,-0.7108,-0.6558,-0.5575,-0.5318,-0.5011,-0.4504,-0.3975,-0.3459,-0.3362,-0.2963,-0.2559,-0.2155,-0.2155,-0.2155,-0.2155,-0.1885,-0.175,-0.175,-0.1481,-0.1346,-0.1346,-0.1346,-0.1473,-0.1591,-0.1849,-0.2346,-0.2809,-0.3179,-0.3406,-0.3371,-0.3482,-0.3722,-0.397,-0.3954,-0.4069,-0.4189,-0.3328,-0.3083,-0.3453,0.0,0.0,0.0,0.0,0.0,0.0,0.0,0.0,0.0,0.0,0.0,0.0,0.0,0.1648,0.1305,0.0805,0.0073,-0.0792,-0.1643,-0.2447,-0.3358,-0.4365,-0.5418,-0.6084,-0.6427,-0.7685,-0.8518,-0.8653,-0.9255,-0.9806,-1.0315,-1.0671,-1.1042,-1.1292,-1.1663,-1.1784,-1.1768,-1.2183,-1.2451,-1.2434,-1.2933,-1.3308,-1.3507,-1.3618,-1.3342,-1.3059,-1.3111,0.0,-1.2996,-1.2692,-1.2631,-1.2905,-1.3215,-1.3294,-1.3332,-1.4084,-1.4424,-1.4412,-1.3713,-1.386,-1.4083,-1.3748,-1.3532,-1.3207,-1.2989,-1.2446,-1.1955,-1.1819,-1.1785,-1.1504,-1.0635,-1.0673,-1.0422,-0.9098,-0.8854,-0.8488,-0.7143,-0.6984,-0.658,-0.5269,-0.5219,-0.4898,0.0,-0.3495,-0.3094,-0.2963,-0.2425,-0.2155,-0.2155,-0.2155,-0.2155,-0.2155,-0.2155,-0.2155,-0.2155,-0.2154,-0.2154,-0.2154,-0.2154,-0.2289,-0.269,-0.3053,-0.3165,-0.3159,-0.3891,-0.4123,-0.4243,-0.4813,-0.5035,-0.5028,-0.496,-0.5056,-0.5298,-0.5298,-0.493,-0.4438,0.0,0.0,0.0,0.0,0.0,0.0,0.0,0.0,0.0,0.0,0.0,0.0,0.0,0.0,0.0,0.0,0.0144,-0.0541,-0.146,-0.2177,-0.3054,-0.414,-0.5094,-0.5833,-0.6417,-0.7715,-0.8378,-0.8512,-0.9104,-0.9717,-1.0347,-1.0465,-1.0699,-1.1286,-1.1403,-1.1528,-1.1753,-1.2043,-1.2356,-1.2578,-1.2833,-1.3086,-1.3233,-1.28,-1.273,-1.2683,0.0,0.0,-1.1749,-1.1771,-1.178,-1.2031,-1.2721,-1.2615,-1.2273,-1.2847,-1.34,-1.3934,-1.397,-1.4114,-1.4083,-1.3748,-1.3532,-1.3207,-1.2989,-1.255,-1.2153,-1.2012,-1.1673,-1.1036,-1.0417,-1.0271,-0.9845,-0.8684,-0.8677,-0.8488,-0.7143,-0.7046,-0.6655,-0.5279,-0.5263,0.0,0.0,0.0,0.0,-0.2963,-0.2425,-0.2155,-0.2155,-0.2155,-0.2155,-0.2155,-0.2155,-0.2155,-0.2155,-0.2155,-0.2155,-0.2155,-0.2425,-0.2828,-0.3499,-0.3751,-0.3991,-0.435,-0.4717,-0.4943,-0.4894,-0.5127,-0.5372,-0.5878,-0.5724,-0.6055,-0.65,-0.65,-0.6337,-0.6039,0.0,0.0,0.0,0.0,0.0,0.0,0.0,0.0,0.0,0.0,0.0,0.0,0.0,0.0,0.0,0.0,0.0,-0.044,-0.1236,-0.187,-0.2741,-0.3731,-0.4522,-0.5318,-0.597,-0.7186,-0.7809,-0.7938,-0.8752,-0.942,-1.004,-1.0219,-1.0647,-1.1224,-1.1224,-1.1339,-1.1684,-1.1959,-1.2037,-1.2156,-1.229,-1.2346,-1.2216,-1.1865,-1.1647,0.0,0.0,0.0,-1.0347,-1.0583,-1.0839,-1.1243,-1.1986,-1.2258,-1.2271,-1.1949,-1.2819,-1.3751,-1.375,-1.3891,-1.3975,-1.364,-1.3315,-1.3098,-1.2772,-1.233,-1.206,-1.2091,-1.1449,-1.0672,-1.0235,-1.0062,-0.961,-0.8363,-0.8592,-0.8488,-0.7143,-0.7079,-0.6695,-0.5279,-0.5287,-0.4842,0.0,0.0,0.0,-0.2694,-0.2425,-0.2155,-0.2155,-0.2155,-0.2155,-0.2155,-0.2155,-0.2155,-0.2155,-0.2155,-0.229,-0.2425,-0.2694,-0.323,-0.3768,-0.4305,-0.4554,-0.4781,-0.5308,-0.554,-0.5494,-0.5725,-0.6102,-0.6485,-0.658,-0.691,-0.7355,-0.7355,-0.7316,-0.7247,0.0,0.0,0.0,0.0,0.0,0.0,0.0,0.0,0.0,0.0,0.0,0.0,0.0,0.0,0.0,0.0,0.0,0.0,-0.1046,-0.1623,-0.2344,-0.3188,-0.4051,-0.4697,-0.516,-0.6194,-0.6881,-0.7099,-0.8004,-0.8815,-0.9503,-0.998,-1.0539,-1.111,-1.111,-1.1224,-1.1549,-1.1595,-1.1522,-1.1187,-1.1409,-1.1154,-1.0701,-1.0672,0.0,0.0,0.0,-0.9617,-0.9184,-0.9206,-0.9838,-1.0651,-1.0847,-1.2048,-1.2986,-1.1478,-1.2544,-1.3997,-1.334,-1.3351,-1.364,-1.3315,-1.3098,-1.2772,-1.2436,-1.201,-1.1687,-1.2056,-1.1219,-1.0293,0.0,0.0,-0.9539,-0.8301,-0.8549,-0.8459,-0.7118,-0.7069,-0.6695,0.0,0.0,0.0,0.0,0.0,0.0,-0.2289,0.0,-0.2155,-0.2155,-0.2155,-0.2155,-0.2155,-0.2155,-0.2155,-0.2155,-0.2155,-0.2425,-0.2694,-0.3096,-0.3497,-0.3902,-0.4571,-0.4839,-0.4839,-0.5644,-0.5912,-0.6042,-0.6626,-0.6985,-0.6976,-0.7265,-0.7473,-0.7724,-0.7724,-0.798,-0.8204,0.0,0.0,0.0,0.0,0.0,0.0,0.0,0.0,0.0,0.0,0.0,0.0,0.0,0.0,0.0,0.0,0.0,0.0,-0.0808,-0.1389,-0.2097,-0.298,-0.3677,-0.4355,-0.5051,-0.5801,-0.628,-0.6581,-0.7163,-0.7767,-0.8482,-0.8728,-0.9137,-0.964,-0.964,-0.9755,-0.9912,-1.0062,-1.0068,-1.015,0.0,-1.0314,-1.0154,0.0,0.0,0.0,0.0,-0.8672,-0.8617,-0.9072,-0.969,-1.0502,-1.1272,-1.1804,-1.2134,-1.2194,-1.2678,-1.3059,-1.3182,-1.3291,-1.3315,-1.3098,-1.2989,-1.2772,-1.2436,-1.2009,-1.1819,-1.1915,-1.0923,-0.9951,-0.9518,0.0,0.0,-0.7452,-0.7944,0.0,-0.6657,-0.6927,0.0,-0.5279,0.0,-0.4842,-0.3362,-0.3094,0.0,0.0,-0.2155,-0.2155,-0.2155,-0.2155,-0.2155,-0.2155,-0.2155,-0.2155,-0.2155,-0.2425,-0.2692,-0.3096,-0.3499,-0.3768,-0.4174,-0.4977,-0.5245,-0.5245,-0.6049,-0.6451,-0.6715,-0.696,-0.7351,-0.7749,-0.7852,-0.8055,-0.8237,-0.8237,-0.8441,-0.8608,0.0,0.0,0.0,0.0,0.0,0.0,0.0,0.0,0.0,0.0,0.0,0.0,0.0,0.0,0.0,0.0,0.0,0.0,0.0,-0.1165,-0.1791,-0.2498,-0.3172,-0.3838,-0.4447,-0.5062,-0.5577,-0.5903,-0.6414,-0.6973,-0.7591,-0.7983,-0.8307,-0.877,-0.8861,-0.8984,-0.9153,-0.925,0.0,0.0,0.0,0.0,0.0,0.0,0.0,0.0,-0.8147,-0.8102,-0.8337,-0.9218,-0.9865,-1.0439,-1.1358,-1.1921,-1.2308,-1.2432,-1.273,-1.3049,-1.3214,-1.3207,-1.3098,-1.2989,-1.2772,-1.2586,-1.199,-1.1593,-1.13,-1.1028,-1.0046,-0.926,-0.8924,-0.8601,-0.8186,0.0,0.0,0.0,-0.673,-0.6922,-0.6646,0.0,-0.5257,0.0,-0.3495,-0.3094,-0.269,0.0,-0.2155,-0.2155,-0.2155,-0.2155,-0.2155,-0.2155,-0.2155,-0.2155,-0.2155,-0.2425,-0.2692,-0.3228,-0.3362,-0.3768,-0.4308,-0.5111,-0.5379,-0.5383,0.0,-0.6719,-0.6987,-0.7121,-0.7522,-0.8056,-0.8323,-0.8419,-0.8492,-0.8492,-0.871,-0.8909,0.0,0.0,0.0,0.0,0.0,0.0,0.0,0.0,0.0,0.0,0.0,0.0,0.0,0.0,0.0,0.0,0.0,0.0,0.0,0.0,0.0,-0.1872,-0.2601,-0.319,-0.3617,-0.4268,-0.4748,-0.5104,-0.5701,-0.6277,0.0,0.0,0.0,0.0,0.0,0.0,0.0,0.0,0.0,0.0,0.0,0.0,0.0,0.0,0.0,0.0,-0.7596,-0.7727,-0.8056,-0.9378,-1.0038,-1.0444,-1.1435,-1.2284,-1.286,-1.2404,-1.2735,-1.3207,-1.3207,-1.2989,-1.2772,-1.2772,-1.2555,-1.2061,-1.1337,-1.0896,-1.058,-0.9878,-0.91,-0.848,-0.8321,-0.8311,-0.8027,-0.7394,0.0,-0.7835,-0.6856,-0.6898,-0.654,-0.5269,-0.5219,-0.4766,-0.3627,-0.3228,-0.269,-0.2289,-0.2155,-0.2155,-0.2155,-0.2155,-0.2155,-0.2155,-0.2155,-0.2155,-0.2155,-0.229,-0.2558,-0.3228,-0.3228,-0.3633,-0.4308,-0.5111,-0.5379,-0.5383,0.0,0.0,-0.6987,-0.7393,-0.7794,-0.8189,-0.8456,-0.859,-0.859,-0.859,-0.8851,-0.9117,0.0,0.0,0.0,0.0,0.0,0.0,0.0,0.0,0.0,0.0,0.3749,0.3416,0.0,0.0,0.0,0.0,0.0,0.0,0.0,0.0,0.0,0.0,-0.2286,-0.2777,-0.3246,-0.3736,-0.4152,-0.4428,-0.5008,-0.5448,0.0,0.0,0.0,0.0,0.0,0.0,0.0,0.0,0.0,0.0,0.0,0.0,0.0,0.0,0.0,0.0,-0.7016,-0.7073,-0.7261,-0.8521,-0.9447,-1.0302,-1.1748,-1.2435,-1.2625,-1.2526,-1.2763,-1.2881,-1.2654,-1.2327,-1.2119,-1.2119,-1.19,-1.163,-1.103,-1.0593,-1.0237,-0.9621,-0.8828,-0.8224,-0.8019,-0.7978,-0.7595,-0.661,-0.7099,-0.7344,-0.6108,-0.6317,-0.6189,0.0,-0.5219,-0.4634,-0.3358,-0.3228,0.0,0.0,0.0,-0.2155,-0.2155,-0.2155,-0.2155,-0.2155,-0.2155,-0.2155,-0.2155,-0.2425,-0.2827,-0.3228,-0.3499,-0.3902,-0.4308,-0.5111,-0.5379,-0.5383,0.0,0.0,-0.6987,-0.7393,-0.7794,-0.8189,-0.8456,-0.859,-0.859,-0.859,-0.8851,-0.9117,0.0,0.0,0.0,0.0,0.0,0.0,0.0,0.0,0.4677,0.4076,0.3799,0.3522,0.2961,0.2404,0.0,0.0,0.0,0.0,0.0,0.0,0.0,0.0,0.0,0.0,0.0,-0.3283,-0.3704,-0.43,0.0,-0.4857,-0.5196,-0.5542,-0.5783,0.0,0.0,0.0,0.0,0.0,0.0,0.0,0.0,0.0,0.0,0.0,0.0,0.0,0.0,-0.6613,-0.6806,-0.7635,-0.8225,-0.8861,-1.0565,-1.1387,-1.169,-1.1587,-1.1819,-1.2219,-1.201,-1.1891,-1.1782,-1.1782,-1.1682,-1.1335,-1.0349,-0.9955,-0.9621,-0.8517,-0.7955,-0.762,-0.737,-0.7613,-0.7519,-0.6659,-0.7168,-0.7292,-0.6284,-0.6256,-0.6059,-0.5185,-0.5161,-0.4847,-0.359,-0.3216,0.0,0.0,0.0,-0.2155,-0.2155,-0.2155,-0.2154,-0.1885,-0.2154,-0.2155,-0.2155,-0.2425,-0.2558,-0.2961,-0.3365,-0.3633,-0.4037,-0.4708,-0.5245,-0.5383,-0.5915,0.0,-0.6987,-0.7121,-0.7522,-0.8056,-0.8323,-0.8456,-0.859,-0.859,-0.8851,-0.9117,0.0,0.0,0.0,0.0,0.0,0.0,0.0,0.4959,0.4677,0.4076,0.391,0.3572,0.3016,0.2519,0.2128,0.0,0.0,0.0,0.0,0.0,0.0,0.0,0.0,0.0,0.0,0.0,0.0,-0.4022,-0.4093,0.0,0.0,0.0,0.0,0.0,0.0,0.0,0.0,0.0,0.0,0.0,0.0,0.0,0.0,0.0,0.0,0.0,0.0,-0.6187,-0.6297,-0.6889,-0.7064,-0.7382,-0.8717,-0.9742,-1.0427,-1.0297,-1.0808,-1.1353,-1.1411,-1.1455,-1.1455,-1.1455,-1.1455,-1.1052,-0.9723,-0.9376,-0.8968,-0.7478,-0.7103,-0.6994,-0.6806,-0.7175,-0.7339,0.0,-0.7027,-0.71,-0.6386,-0.6322,-0.5925,-0.5122,-0.5234,0.0,-0.3555,-0.307,0.0,0.0,0.0,0.0,-0.2019,-0.2019,-0.1885,-0.1481,-0.1885,-0.2019,-0.2019,-0.2154,-0.2425,-0.2694,-0.2961,-0.3365,-0.3768,-0.444,-0.4842,-0.5245,-0.5778,0.0,0.0,-0.6987,-0.7388,-0.7922,-0.8056,-0.8323,-0.8456,-0.859,-0.8717,-0.8984,0.0,0.0,0.0,0.0,0.0,0.0,0.0,0.4897,0.4677,0.4076,0.391,0.3633,0.3128,0.2742,0.2352,0.0,0.0,0.0,0.0,0.0,0.0,0.0,0.0,0.0,0.0,0.0,0.0,-0.3104,-0.3418,0.0,0.0,0.0,0.0,0.0,0.0,0.0,0.0,0.0,0.0,0.0,0.0,0.0,0.0,0.0,0.0,0.0,0.0,-0.5373,-0.5568,-0.6099,-0.6403,-0.6492,-0.667,-0.7716,-0.8928,-0.9485,-0.9934,-1.0466,-1.1048,-1.1126,-1.1126,-1.1126,-1.0907,-1.0519,-0.934,-0.8995,-0.8509,-0.7398,-0.6872,-0.6648,-0.6655,-0.6763,-0.6731,0.0,0.0,-0.6508,-0.5936,-0.5892,-0.5588,-0.5102,0.0,0.0,-0.3292,-0.2937,0.0,0.0,0.0,0.0,-0.1616,-0.1346,-0.1212,-0.1212,-0.1481,-0.1616,-0.1616,-0.2019,-0.2425,-0.2694,-0.2694,-0.3098,-0.3768,-0.4171,-0.4574,-0.4839,-0.5644,0.0,0.0,-0.6715,-0.6987,-0.7116,-0.7789,-0.8056,-0.8189,-0.8456,-0.859,-0.8717,0.0,0.0,0.0,0.0,0.0,0.0,0.4952,0.4849,0.4574,0.4076,0.3965,0.3688,0.3188,0.2905,0.2519,0.0,0.0,0.0,0.0,0.0,0.0,0.0,0.0,0.0,0.0,0.0,0.0,-0.2772,-0.2956,0.0,0.0,0.0,0.0,0.0,0.0,0.0,0.0,0.0,0.0,0.0,0.0,0.0,0.0,0.0,0.0,0.0,0.0,0.0,-0.4938,-0.5261,-0.5421,-0.5414,-0.5414,-0.5858,-0.6601,-0.7974,-0.8855,-0.9546,-1.0044,-1.028,-1.0366,-1.0366,-1.0257,-0.9877,-0.8852,-0.8528,-0.8148,-0.7073,-0.6718,-0.6563,-0.6409,-0.6666,-0.6611,0.0,0.0,0.0,-0.5894,-0.5744,-0.5435,-0.5042,-0.4953,0.0,0.0,0.0,0.0,0.0,0.0,0.0,-0.1346,-0.1212,-0.0943,-0.0808,-0.1077,-0.1346,-0.1616,-0.175,-0.2019,-0.2425,-0.2559,-0.2828,-0.3098,-0.3768,-0.4171,-0.4574,-0.4973,0.0,0.0,-0.618,-0.6581,-0.6987,-0.7388,-0.7522,-0.7794,-0.7922,-0.8056,-0.8323,0.0,0.0,0.0,0.0,0.0,0.5187,0.4952,0.4794,0.4519,0.4076,0.4021,0.3799,0.3244,0.3016,0.2738,0.224,0.0,0.0,0.0,0.0,0.0,0.0,0.0,0.0,0.0,0.0,0.0,-0.2221,-0.2397,-0.2636,0.0,0.0,-0.3237,-0.347,0.0,0.0,0.0,0.0,0.0,0.0,0.0,0.0,0.0,0.0,0.0,0.0,0.0,0.0,0.0,0.0,0.0,-0.4561,-0.4561,-0.4628,-0.5011,-0.6695,-0.7743,-0.8423,-0.8996,-0.9399,-0.9632,-0.9632,-0.9559,-0.9376,-0.8527,-0.8136,-0.7797,-0.6806,-0.6486,-0.6331,-0.6177,-0.6273,-0.6238,0.0,0.0,-0.5878,-0.562,-0.5461,-0.5251,-0.4932,0.0,-0.4276,0.0,0.0,0.0,0.0,0.0,0.0,0.0,-0.0808,-0.0673,-0.0404,-0.0673,-0.1077,-0.1212,-0.1481,-0.175,-0.2019,-0.2425,-0.2559,-0.2694,-0.323,-0.3768,-0.4174,0.0,0.0,0.0,-0.5644,-0.6046,-0.6585,-0.6719,-0.6987,-0.7259,-0.7393,-0.766,-0.7927,0.0,0.0,0.0,0.0,0.0,0.0,0.0,0.4794,0.4519,0.4076,0.4021,0.3855,0.3466,0.3077,0.2854,0.2691,0.0,0.0,0.0,0.0,0.0,0.0,0.0,0.0,0.0,0.0,0.0,-0.1293,-0.1518,-0.1796,-0.2188,-0.2188,-0.2411,-0.2695,0.0,0.0,0.0,0.0,0.0,0.0,0.0,0.0,0.0,0.0,0.0,0.0,0.0,0.0,0.0,0.0,0.0,0.0,0.0,-0.4156,-0.4591,-0.5882,-0.6503,-0.6897,-0.7903,-0.8594,-0.9248,-0.9248,-0.9115,-0.8959,-0.8452,-0.7878,-0.7224,-0.6741,-0.6247,-0.5938,-0.5938,-0.5556,-0.537,-0.5497,-0.542,0.0,-0.5223,-0.5187,-0.5006,0.0,0.0,-0.4266,0.0,0.0,0.0,0.0,0.0,0.0,0.0,-0.0135,0.0,0.0,-0.0269,-0.0539,-0.0539,-0.1212,-0.1616,-0.1616,-0.2019,-0.2425,-0.2694,-0.2694,-0.3098,0.0,0.0,0.0,0.0,-0.5245,-0.5379,-0.5513,-0.6183,-0.6455,-0.6589,-0.7259,-0.7526,-0.7526,0.0,0.0,0.0,0.0,0.0,0.0,0.0,0.4629,0.4408,0.4021,0.4021,0.3855,0.3466,0.3188,0.2965,0.2747,0.0,0.0,0.0,0.0,0.0,0.0,0.0,0.0,0.0,0.0,-0.0729,-0.0897,-0.1065,-0.1289,-0.1569,-0.1569,-0.1737,-0.2073,-0.2073,0.0,0.0,0.0,0.0,0.0,0.0,0.0,0.0,0.0,0.0,0.0,0.0,0.0,0.0,0.0,0.0,0.0,0.0,0.0,0.0,-0.4528,-0.5274,-0.6034,-0.67,-0.715,-0.7449,-0.7449,-0.7455,-0.7443,-0.6906,-0.6694,-0.6544,-0.6035,-0.5789,-0.5712,-0.5712,-0.5479,-0.5371,-0.5502,-0.5394,0.0,0.0,0.0,0.0,-0.4475,-0.3771,-0.3291,0.0,0.0,0.0,0.0,0.0,0.0,0.0,-0.0135,0.0,0.0,-0.0135,-0.0269,-0.0539,-0.0673,-0.1077,-0.1616,-0.175,-0.2019,-0.2425,-0.2559,0.0,0.0,0.0,0.0,0.0,-0.4577,-0.498,-0.5383,-0.5651,-0.5781,-0.5785,-0.6049,-0.6321,-0.6857,0.0,0.0,0.0,0.0,0.0,0.0,0.0,0.4574,0.4408,0.4021,0.4021,0.3855,0.3527,0.3299,0.3132,0.2854,0.0,0.0,0.0,0.0,0.0,0.0,0.0,0.0,0.0,0.0,-0.0168,-0.0336,-0.0505,-0.0673,-0.0953,-0.0953,-0.1121,-0.1455,-0.1455,0.0,0.0,0.0,0.0,0.0,0.0,0.0,-0.2352,0.0,0.0,0.0,0.0,0.0,0.0,0.0,0.0,0.0,0.0,0.0,0.0,0.0,-0.4099,-0.4774,-0.5593,-0.5993,-0.6268,-0.6268,-0.6343,-0.6368,-0.6164,-0.6065,-0.5959,-0.5677,-0.5677,-0.5657,-0.5509,-0.536,-0.5268,-0.5262,-0.5189,-0.507,0.0,0.0,0.0,-0.3728,0.0,0.0,0.0,0.0,0.0,0.0,0.0,0.0,0.0,-0.0135,0.0,0.0,0.0,-0.0135,-0.0269,-0.0404,-0.0673,-0.1212,-0.1346,-0.1616,-0.2019,-0.2155,0.0,0.0,0.0,0.0,0.0,-0.3902,-0.4171,-0.4574,-0.4842,-0.498,-0.4977,-0.5245,-0.5647,-0.6053,0.0,0.0,0.0,0.0,0.0,0.0,0.0,0.0,0.4408,0.4076,0.4021,0.391,0.3638,0.3471,0.3299,0.3132,0.0,0.0,0.0,0.0,0.0,0.0,0.0,0.0,0.0,0.0561,0.0393,0.0224,0.0112,-0.0112,-0.0336,-0.0336,-0.0505,-0.0841,-0.0841,-0.0841,0.0,0.0,0.0,0.0,-0.1235,-0.1457,0.0,0.0,0.0,0.0,0.0,0.0,0.0,0.0,0.0,0.0,0.0,0.0,0.0,0.0,0.0,0.0,0.0,-0.5121,-0.5537,-0.5537,-0.57,-0.5811,-0.5946,-0.5695,0.0,-0.5532,-0.5706,-0.5689,-0.5314,-0.5218,-0.5099,-0.4708,-0.4926,-0.4852,0.0,-0.4461,0.0,0.0,-0.2431,0.0,0.0,0.0,0.0,0.0,0.0,0.0,0.0,0.0,0.0,0.0,0.0,0.0,0.0,-0.0269,-0.0539,-0.0539,-0.0943,-0.1212,-0.1616,-0.1616,0.0,0.0,0.0,0.0,0.0,-0.3094,-0.3228,-0.3228,-0.3902,-0.4174,-0.4308,-0.4977,-0.5245,-0.5245,0.0,0.0,0.0,0.0,0.0,0.0,0.0,0.0,0.0,0.0,0.4082,0.391,0.3799,0.3522,0.336,0.0,0.0,0.0,0.0,0.0,0.0,0.0,0.0,0.0,0.0,0.0953,0.0897,0.0729,0.0617,0.0449,0.0224,0.0112,-0.0056,-0.0224,-0.0224,-0.0224,-0.0224,0.0,0.0,0.0,-0.0617,-0.0785,0.0,0.0,0.0,0.0,-0.1121,-0.1145,0.0,0.0,0.0,0.0,0.0,0.0,0.0,0.0,-0.2491,-0.2646,-0.3096,0.0,-0.4227,-0.4227,-0.4324,-0.438,0.0,-0.4603,-0.4568,-0.4675,-0.4884,-0.493,-0.4678,-0.4729,-0.4837,-0.4591,-0.4691,-0.4626,-0.4112,0.0,0.0,-0.2688,0.0,0.0,0.0,0.0,0.0,0.0,0.0,0.0,0.0,0.0,0.0,0.0,0.0,0.0,0.0,-0.0135,-0.0269,-0.0539,-0.0539,-0.0808,-0.1212,-0.1212,0.0,0.0,0.0,0.0,-0.2423,-0.2694,-0.2961,-0.3228,-0.3362,-0.3497,-0.3497,-0.3631,-0.3902,-0.4171,0.0,0.0,0.0,0.0,0.0,0.0,0.0,0.0,0.0,0.0,0.0,0.0,0.0,0.0,0.0,0.0,0.0,0.0,0.0,0.0,0.0,0.0,0.0,0.0,0.1513,0.1513,0.1401,0.1235,0.1123,0.0953,0.0729,0.0673,0.0561,0.0393,0.0393,0.0393,0.0393,0.0336,0.0168,-0.0056,-0.0112,0.0,0.0,0.0,0.0,0.0,-0.0561,-0.0624,0.0,-0.0837,-0.0987,-0.1079,0.0,0.0,0.0,0.0,-0.2018,-0.222,-0.2421,-0.2958,-0.3493,-0.3493,-0.3668,-0.3885,-0.4042,-0.4123,-0.4283,-0.4351,-0.4637,-0.4765,-0.4442,-0.4564,-0.4556,-0.4251,-0.4361,0.0,0.0,0.0,-0.2838,-0.2643,0.0,0.0,0.0,0.0,0.0,0.0,0.0,0.0,0.0,0.0,0.0,0.0,0.0,0.0,0.0,0.0,-0.0135,-0.0269,-0.0269,-0.0404,-0.0808,-0.0808,-0.0943,0.0,0.0,0.0,-0.175,-0.1885,-0.2019,-0.2287,-0.2422,-0.2558,-0.2827,-0.2959,-0.3228,-0.3499,0.0,0.0,0.0,0.0,0.0,0.0,0.0,0.0,0.0,0.0,0.0,0.0,0.0,0.0,0.0,0.0,0.0,0.0,0.0,0.0,0.0,0.0,0.0,0.224,0.2073,0.2069,0.1905,0.1684,0.1684,0.1515,0.1233,0.1233,0.1121,0.1009,0.1009,0.1009,0.1009,0.0841,0.0673,0.0505,0.0393,0.0,0.0,0.0,0.0,0.0,0.0,0.0,0.0,-0.035,-0.0541,-0.0683,-0.0896,0.0,0.0,0.0,0.0,0.0,-0.2018,-0.2555,-0.3025,-0.3092,-0.336,-0.3678,-0.3884,-0.393,-0.399,-0.4187,-0.4559,-0.4681,-0.4284,-0.4394,-0.4265,-0.3798,0.0,0.0,-0.4092,-0.3439,-0.2776,0.0,0.0,0.0,0.0,0.0,0.0,0.0,0.0,0.0,0.0,0.0,0.0,0.0,0.0,0.0135,0.0135,0.0,0.0,0.0,0.0,-0.0135,-0.0404,-0.0404,-0.0673,0.0,0.0,0.0,-0.1077,-0.1077,-0.1077,-0.1077,-0.1346,-0.175,-0.2019,-0.2287,-0.269,-0.2825,0.0,0.0,0.0,0.0,0.0,0.0,0.0,0.0,0.0,0.0,0.0,0.0,0.0,0.0,0.0,0.0,0.0,0.0,0.0,0.0,0.0,0.0,0.2742,0.2579,0.2408,0.224,0.2128,0.2128,0.2017,0.1905,0.1849,0.1734,0.1679,0.1679,0.1569,0.1515,0.1459,0.1291,0.1123,0.1009,0.0953,0.0,0.0,0.0,0.0,0.0,0.0,0.0,0.0,0.0117,0.0,-0.0186,-0.0384,0.0,0.0,0.0,0.0,0.0,-0.1615,-0.1884,-0.222,-0.2686,-0.282,-0.2931,-0.3024,-0.3205,-0.3401,-0.3569,-0.3894,-0.4002,-0.3651,-0.365,-0.3656,0.0,0.0,-0.3616,0.0,0.0,0.0,0.0,0.0,0.0,0.0,0.0,0.0,0.0,0.0,0.0,0.0,0.0,0.0,0.0,0.0269,0.0404,0.0404,0.0135,0.0,0.0,0.0,0.0,-0.0135,-0.0135,-0.0135,0.0,0.0,-0.0539,-0.0673,-0.0943,-0.1077,-0.1077,-0.1212,-0.1212,-0.1212,-0.1346,-0.1346,-0.148,0.0,0.0,0.0,0.0,0.0,0.0,0.0,0.0,0.0,0.0,0.0,0.0,0.0,0.0,0.0,0.0,0.0,0.0,0.0,0.0,0.0,0.3355,0.3193,0.3026,0.2854,0.2742,0.2631,0.2571,0.2516,0.2404,0.224,0.2073,0.2014,0.2014,0.1961,0.1905,0.1905,0.1737,0.1625,0.1569,0.0,0.0,0.0,0.0,0.0,0.0,0.0,0.0,0.0,0.0,0.0356,0.0247,-0.0063,0.0,0.0,0.0,0.0,0.0,-0.121,-0.1412,-0.1546,-0.2016,-0.2351,-0.2591,-0.288,-0.2987,-0.3106,-0.3263,-0.3381,-0.3424,-0.3317,0.0,-0.3462,-0.3414,0.0,-0.3109,0.0,0.0,0.0,0.0,0.0,0.0,0.0,0.0,0.0,0.0,0.0,0.0,0.0,0.0,0.0263,0.0263,0.0658,0.0789,0.0789,0.0658,0.053,0.0539,0.0539,0.0539,0.0539,0.0539,0.0539,0.0539,0.0,0.0404,0.0404,0.0135,0.0135,0.0135,0.0135,0.0,-0.0269,-0.0404,-0.0539,-0.0539,0.0,0.0,0.0,0.0,0.0,0.0,0.0,0.0,0.0,0.0,0.0,0.0,0.0,0.0,0.0,0.0,0.0,0.0,0.0,0.0,0.3694,0.3694,0.3583,0.3411,0.3188,0.3132,0.3072,0.2961,0.2961,0.2854,0.2631,0.2464,0.2408,0.2408,0.2352,0.2352,0.2352,0.2181,0.2128,0.2128,0.0,0.0,0.0,0.0,0.0,0.0,0.0,0.0,0.0,0.0,0.0,0.0,0.0,0.0,0.0,-0.027,-0.0404,-0.0472,-0.0875,-0.1008,-0.1076,-0.1412,-0.1884,-0.2254,-0.2593,-0.2696,-0.2808,-0.2953,-0.2982,-0.2982,-0.2982,-0.3056,0.0,-0.3194,-0.2943,0.0,0.0,0.0,0.0,0.0,0.0,0.0,0.0,0.0,0.0,0.0,0.0,0.0,0.0,0.0,0.0516,0.0646,0.0903,0.116,0.116,0.116,0.1173,0.1066,0.107,0.1072,0.1072,0.1075,0.1077,0.1077,0.1077,0.1077,0.1077,0.1077,0.1077,0.1077,0.1077,0.0943,0.0673,0.0404,0.0269,0.0269,0.0,0.0,0.0,0.0,0.0,0.0,0.0,0.0,0.0,0.0,0.0,0.0,0.0,0.0,0.0,0.0,0.0,0.0,0.0,0.0,0.3965,0.3965,0.3855,0.3633,0.336,0.3188,0.3077,0.3077,0.3077,0.3077,0.3077,0.3021,0.3021,0.3021,0.2905,0.285,0.285,0.2575,0.2464,0.2464,0.224,0.0,0.0,0.0,0.0,0.0,0.0,0.0,0.0,0.0,0.0,0.0,0.0,0.0,0.0404,0.0067,-0.0067,-0.0135,-0.0472,-0.0674,-0.0876,-0.1076,-0.1412,-0.1706,-0.1802,-0.2112,-0.2436,-0.2563,-0.2669,-0.2747,-0.2588,-0.2525,-0.2502,-0.262,-0.2592,0.0,0.0,0.0,0.0,0.0,0.0,0.0,0.0,0.0,0.0,0.0,0.0,0.0,0.0,0.0,0.0,0.0903,0.1289,0.1418,0.1418,0.1806,0.1678,0.1035,0.1049,0.1056,0.1057,0.107,0.1077,0.1077,0.1077,0.1077,0.1077,0.1077,0.1077,0.1077,0.1077,0.1077,0.1077,0.1077,0.1077,0.1077,0.0,0.0,0.0,0.0,0.0,0.0,0.0,0.0,0.0,0.0,0.0,0.0,0.0,0.0,0.0,0.0,0.0,0.0,0.0,0.0,0.4021,0.4021,0.3965,0.3855,0.3799,0.3527,0.3416,0.3416,0.3299,0.3299,0.3299,0.3132,0.3077,0.3077,0.3072,0.3016,0.3016,0.291,0.2854,0.2854,0.2798,0.2687,0.0,0.0,0.0,0.0,0.0,0.0,0.0,0.0,0.1467,0.1235,0.0988,0.0901,0.0808,0.0404,0.027,0.0135,-0.0135,-0.0337,-0.0539,-0.0673,-0.0818,-0.1058,-0.1687,-0.1974,-0.2119,-0.2281,-0.2327,-0.2344,-0.2344,0.0,-0.2551,-0.2535,-0.2549,0.0,0.0,0.0,0.0,0.0,0.0,0.0,0.0,0.0,0.0,0.0,0.0,0.0,0.0,0.0,0.0,0.1256,0.1633,0.1758,0.1758,0.2134,0.2259,0.1883,0.18,0.182,0.1952,0.1962,0.2098,0.2362,0.2383,0.2392,0.2394,0.2414,0.2422,0.2422,0.2422,0.2422,0.2422,0.2422,0.2422,0.2422,0.0,0.0,0.0,0.0,0.0,0.0,0.0,0.0,0.0,0.0,0.0,0.0,0.0,0.0,0.0,0.0,0.0,0.0,0.0,0.4132,0.4132,0.4132,0.4076,0.4082,0.4082,0.386,0.3749,0.3749,0.3638,0.3577,0.3577,0.3466,0.3355,0.3299,0.3299,0.3299,0.3244,0.3188,0.3188,0.3188,0.3132,0.2965,0.0,0.0,0.0,0.0,0.0,0.0,0.0,0.0,0.1758,0.1544,0.1234,0.1156,0.1076,0.0808,0.0607,0.0404,0.0202,0.0,-0.0202,-0.0337,-0.0415,-0.0732,-0.1392,-0.1596,-0.181,-0.2065,-0.2032,-0.1958,-0.2006,0.0,0.0,0.0,0.0,0.0,0.0,0.0,0.0,0.0,0.0,0.0,0.0,0.0,0.0,0.0,0.0,0.0,0.0,0.0,0.0,0.0,0.1975,0.2099,0.2099,0.2467,0.2714,0.2714,0.252,0.2551,0.2691,0.2703,0.2839,0.3099,0.313,0.3144,0.3146,0.3191,0.3216,0.3228,0.3228,0.3228,0.3228,0.3228,0.3228,0.3228,0.0,0.0,0.0,0.0,0.0,0.0,0.0,0.0,0.0,0.0,0.0,0.0,0.0,0.0,0.0,0.0,0.0,0.0,0.4519,0.4519,0.4519,0.4519,0.4304,0.4193,0.4193,0.4082,0.4021,0.4021,0.4021,0.4021,0.4021,0.4021,0.391,0.3793,0.3793,0.3744,0.3583,0.3471,0.3416,0.3416,0.3188,0.3132,0.3132,0.0,0.0,0.0,0.0,0.0,0.0,0.0,0.1989,0.1911,0.1724,0.1541,0.1277,0.1143,0.0942,0.0741,0.0539,0.027,0.0,0.0,-0.0281,-0.0607,-0.0697,-0.1043,-0.1384,-0.169,-0.1815,-0.1781,-0.1672,-0.1678,0.0,0.0,0.0,0.0,0.0,0.0,0.0,0.0,0.0,0.0,0.0,0.0,0.0,0.0,0.0,0.0,0.0,0.0,0.0,0.0,0.2344,0.2467,0.2467,0.2837,0.296,0.296,0.296,0.2985,0.303,0.3075,0.3095,0.3095,0.3097,0.3097,0.3099,0.3146,0.3189,0.3228,0.3228,0.3228,0.3228,0.3228,0.3228,0.3228,0.0,0.0,0.0,0.0,0.0,0.0,0.0,0.0,0.0,0.0,0.0,0.0,0.0,0.0,0.0,0.0,0.0,0.0,0.4519,0.4519,0.4519,0.4519,0.4463,0.4408,0.4408,0.4353,0.4242,0.4021,0.4021,0.4021,0.4021,0.4021,0.3965,0.3965,0.3965,0.391,0.386,0.3744,0.3688,0.3688,0.3522,0.3416,0.3299,0.0,0.0,0.0,0.0,0.0,0.0,0.0,0.0,0.0,0.1973,0.1862,0.1884,0.1546,0.121,0.101,0.0942,0.0702,0.0512,0.0512,0.0304,0.0082,-0.0186,-0.0562,-0.0938,-0.11,-0.1114,-0.1096,-0.1033,-0.1188,0.0,0.0,0.0,0.0,0.0,0.0,0.0,0.0,0.0,0.0,0.0,0.0,0.0,0.0,0.0,0.0,0.0,0.0,0.0,0.0,0.2714,0.2837,0.2837,0.3209,0.3455,0.3576,0.3822,0.371,0.3355,0.3618,0.375,0.4003,0.4296,0.444,0.4446,0.4514,0.458,0.4637,0.4637,0.4666,0.4708,0.4708,0.4708,0.4708,0.0,0.0,0.0,0.0,0.0,0.0,0.0,0.0,0.0,0.0,0.4519,0.4519,0.0,0.0,0.0,0.0,0.0,0.0,0.0,0.0,0.4519,0.4519,0.4519,0.4519,0.4519,0.4519,0.4408,0.4187,0.4187,0.4187,0.4187,0.4187,0.4132,0.4082,0.4082,0.4021,0.4021,0.391,0.3855,0.3855,0.3799,0.3694,0.3577,0.0,0.0,0.0,0.0,0.0,0.0,0.0,0.0,0.0,0.2219,0.2186,0.2153,0.1884,0.1615,0.1277,0.121,0.1071,0.0909,0.0833,0.0629,0.0505,0.0379,-0.0299,-0.0819,-0.0829,-0.0845,-0.0843,-0.0798,-0.082,0.0,0.0,0.0,0.0,0.0,0.0,0.0,0.0,0.0,0.0,0.0,0.0,0.0,0.0,0.0,0.0,0.0,0.0,0.0,0.0,0.3083,0.3209,0.333,0.3699,0.3946,0.4315,0.4561,0.4441,0.4071,0.4192,0.4438,0.4564,0.4853,0.5011,0.5042,0.509,0.5151,0.5223,0.5223,0.5267,0.5335,0.5335,0.5355,0.5379,0.0,0.0,0.4519,0.4519,0.0,0.0,0.0,0.0,0.0,0.0,0.4519,0.4519,0.0,0.0,0.0,0.0,0.0,0.0,0.0,0.0,0.4519,0.4519,0.4519,0.4519,0.4519,0.4519,0.4519,0.4519,0.4519,0.4519,0.4519,0.4519,0.4408,0.4249,0.4249,0.4138,0.4021,0.4021,0.4021,0.4021,0.4021,0.391,0.3799,0.3793,0.0,0.0,0.0,0.0,0.0,0.0,0.0,0.0,0.266,0.2445,0.2287,0.2223,0.1951,0.1615,0.1412,0.1291,0.1224,0.0995,0.0881,0.0772,0.0846,0.0,-0.0775,-0.074,0.0,-0.0774,-0.0738,-0.0628,0.0,0.0,0.0,0.0,0.0,0.0,0.0,0.0,0.0,0.0,0.0,0.0,0.0,0.0,0.0,0.0,0.0,0.0,0.0,0.0,0.3455,0.3699,0.3943,0.4315,0.4564,0.0,0.4933,0.5056,0.5056,0.4933,0.4933,0.5056,0.5056,0.5095,0.5154,0.5154,0.5199,0.5269,0.5269,0.5318,0.5388,0.5388,0.5436,0.5503,0.0,0.0,0.4519,0.4519,0.0,0.0,0.0,0.0,0.0,0.0,0.0,0.0,0.0,0.0,0.0,0.0,0.0,0.0,0.0,0.0,0.4519,0.4519,0.4519,0.4519,0.4519,0.4519,0.4519,0.4519,0.4519,0.4519,0.4519,0.4519,0.4463,0.4408,0.4408,0.4408,0.4408,0.4249,0.4138,0.4138,0.4021,0.3965,0.3965,0.3855,0.3744,0.0,0.0,0.0,0.0,0.0,0.0,0.0,0.2975,0.2875,0.2757,0.2421,0.2223,0.2018,0.1817,0.1791,0.1728,0.148,0.1285,0.111,0.09,0.0637,0.0447,0.0221,0.0,-0.0223,-0.0221,0.0,0.0,0.0,0.0,0.0,0.0,0.0,0.0,0.0,0.0,0.0,0.0,0.0,0.0,0.0,0.0,0.0,0.0,0.0,0.0,0.3697,0.4069,0.4315,0.4687,0.481,0.4933,0.0,0.5548,0.5794,0.6035,0.5544,0.5544,0.6035,0.6035,0.6293,0.6438,0.6438,0.6491,0.6575,0.6575,0.6637,0.6726,0.6726,0.6774,0.685,0.0,0.0,0.0,0.0,0.0,0.0,0.0,0.0,0.0,0.0,0.0,0.0,0.0,0.4613,0.0,0.0,0.456,0.4519,0.4519,0.4519,0.4519,0.4519,0.4519,0.4519,0.4519,0.4519,0.4519,0.4519,0.4519,0.4519,0.4519,0.4519,0.4519,0.4519,0.4519,0.4519,0.4519,0.4408,0.4353,0.4353,0.4242,0.4187,0.4082,0.4021,0.391,0.3805,0.3699,0.0,0.0,0.0,0.0,0.0,0.0,0.0,0.3025,0.2757,0.2488,0.2242,0.2186,0.217,0.2123,0.1949,0.1765,0.1689,0.1427,0.1282,0.1009,0.0785,0.0561,0.0449,0.0449,0.0,0.0,0.0,0.0,0.0,0.0,0.0,0.0,0.0,0.0,0.0,0.0,0.0,0.0,0.0,0.0,0.0,0.0,0.362,0.3982,0.4219,0.4495,0.4757,0.5122,0.5284,0.5548,0.5912,0.6162,0.653,0.6653,0.6285,0.6285,0.6653,0.6653,0.6775,0.6903,0.6903,0.6931,0.6979,0.6979,0.7041,0.7131,0.7131,0.7207,0.7192,0.0,0.0,0.0,0.0,0.0,0.0,0.0,0.0,0.0,0.0,0.0,0.0,0.0,0.4809,0.4728,0.0,0.0,0.0,0.4615,0.4588,0.4574,0.4574,0.4574,0.4574,0.4574,0.4574,0.4519,0.4519,0.4519,0.4519,0.4519,0.4519,0.4519,0.4519,0.4519,0.4519,0.4519,0.4519,0.4519,0.4519,0.4546,0.4448,0.4287,0.4313,0.4151,0.3937,0.4042,0.3966,0.3865,0.3803,0.0,0.0,0.0,0.0,0.3226,0.3092,0.2757,0.2536,0.2519,0.2495,0.2444,0.2364,0.2228,0.2106,0.2156,0.1819,0.1453,0.1458,0.1234,0.0897,0.0,0.0,0.0,0.0,0.0,0.0,0.0,0.0,0.0,0.0,0.0,0.0,0.0,0.0,0.0,0.0,0.0,0.0,0.3768,0.4118,0.447,0.4826,0.4889,0.5159,0.5395,0.5847,0.6137,0.6503,0.6766,0.7021,0.7021,0.7021,0.7021,0.7021,0.7021,0.7021,0.7021,0.7021,0.7021,0.7021,0.7021,0.7074,0.7146,0.7146,0.7243,0.7365,0.0,0.0,0.0,0.0,0.0,0.0,0.0,0.0,0.0,0.0,0.4918,0.4918,0.4918,0.4904,0.4944,0.5125,0.4983,0.489,0.5121,0.0,0.0,0.4842,0.4842,0.4842,0.4842,0.4739,0.4691,0.4691,0.4574,0.4519,0.4519,0.4519,0.4519,0.4519,0.4519,0.4519,0.4519,0.4519,0.4519,0.4532,0.4606,0.466,0.4616,0.4624,0.4616,0.4556,0.0,0.4157,0.4119,0.405,0.3908,0.0,0.0,0.0,0.3431,0.3226,0.3025,0.2942,0.2965,0.2917,0.2875,0.2764,0.2553,0.2506,0.2533,0.2373,0.2205,0.0,0.1795,0.0,0.0,0.0,0.0,0.0,0.0,0.0,0.0,0.0,0.0,0.0,0.0,0.0,0.0,0.0,0.0,0.0,0.0,0.0,0.4115,0.447,0.4826,0.5182,0.5424,0.5663,0.602,0.635,0.664,0.664,0.7099,0.7505,0.775,0.775,0.7627,0.7388,0.7388,0.7505,0.775,0.775,0.775,0.775,0.775,0.776,0.7771,0.7771,0.7787,0.7809,0.0,0.0,0.0,0.0,0.0,0.0,0.0,0.0,0.0,0.0,0.0,0.5169,0.5169,0.5157,0.5227,0.5289,0.5207,0.5196,0.5216,0.514,0.5001,0.4904,0.4897,0.4897,0.4897,0.4849,0.4794,0.4691,0.4629,0.4574,0.4519,0.4519,0.4519,0.4519,0.4519,0.4519,0.4525,0.4551,0.4592,0.4606,0.4755,0.4816,0.4823,0.483,0.0,0.0,0.0,0.0,0.0,0.437,0.4219,0.4098,0.4013,0.0,0.0,0.0,0.3226,0.3109,0.3274,0.3452,0.3518,0.331,0.3071,0.2912,0.2829,0.2574,0.2522,0.2762,0.2453,0.0,0.0,0.0,0.0,0.0,0.0,0.0,0.0,0.0,0.0,0.0,0.0,0.0,0.0,0.0,0.0,0.0,0.0,0.4318,0.4579,0.4922,0.5264,0.5496,0.5886,0.6147,0.6263,0.672,0.704,0.722,0.7702,0.8,0.8244,0.8366,0.8116,0.7627,0.7627,0.7872,0.8122,0.8122,0.8244,0.8482,0.8482,0.8482,0.8482,0.8482,0.8488,0.8494,0.0,0.0,0.0,0.0,0.0,0.0,0.0,0.0,0.0,0.0,0.0,0.5425,0.5425,0.0,0.0,0.0,0.556,0.5457,0.5401,0.5393,0.5316,0.5083,0.5075,0.5053,0.5014,0.4959,0.4904,0.4739,0.4746,0.4629,0.4519,0.4519,0.4539,0.4573,0.4573,0.4573,0.4587,0.468,0.4748,0.4762,0.4911,0.4972,0.4979,0.502,0.0,0.0,0.0,0.0,0.0,0.0,0.0,0.0,0.0,0.4095,0.0,0.0,0.0,0.3418,0.3421,0.365,0.3864,0.3575,0.3421,0.3276,0.3035,0.0,0.2983,0.0,0.0,0.0,0.0,0.0,0.0,0.0,0.0,0.0,0.0,0.0,0.0,0.0,0.0,0.0,0.0,0.0,0.0,0.0,0.0,0.4815,0.5039,0.5373,0.5708,0.5935,0.6228,0.6497,0.6497,0.6949,0.7434,0.7937,0.8274,0.8459,0.8488,0.8732,0.861,0.8116,0.8116,0.8238,0.8488,0.8488,0.861,0.8854,0.8854,0.8854,0.8854,0.8854,0.8861,0.8867,0.0,0.0,0.0,0.0,0.0,0.0,0.0,0.0,0.0,0.0,0.0,0.5425,0.555,0.5609,0.5734,0.6137,0.5981,0.588,0.5888,0.5872,0.5791,0.5546,0.5538,0.0,0.5305,0.5124,0.5014,0.4897,0.4739,0.4629,0.4519,0.4519,0.4594,0.468,0.468,0.468,0.4687,0.4843,0.4904,0.4918,0.506,0.5121,0.5135,0.0,0.0,0.0,0.0,0.0,0.0,0.0,0.0,0.0,0.0,0.0,0.4028,0.0,0.0,0.0,0.3563,0.3534,0.3564,0.331,0.3228,0.3216,0.3293,0.0,0.3844,0.0,0.0,0.0,0.0,0.0,0.0,0.0,0.0,0.0,0.0,0.0,0.0,0.0,0.0,0.0,0.0,0.0,0.0,0.0,0.0,0.5373,0.5373,0.5935,0.6274,0.6274,0.6497,0.6725,0.6725,0.7398,0.8037,0.8528,0.8534,0.8726,0.8854,0.8854,0.8854,0.8854,0.8854,0.8854,0.8854,0.8854,0.8854,0.8854,0.8854,0.8854,0.8854,0.8854,0.8861,0.8867,0.0,0.0,0.0,0.0,0.0,0.0,0.0,0.0,0.0,0.0,0.0,0.0,0.0,0.5683,0.5888,0.6145,0.6229,0.6181,0.6129,0.6113,0.5977,0.5799,0.5791,0.5758,0.5701,0.5522,0.5288,0.5118,0.4901,0.4734,0.4606,0.4606,0.4694,0.483,0.4735,0.4748,0.485,0.4992,0.5053,0.5067,0.5216,0.5277,0.0,0.0,0.0,0.0,0.0,0.0,0.0,0.0,0.0,0.0,0.0,0.0,0.0,0.4095,0.4055,0.4082,0.4006,0.3985,0.3946,0.3695,0.3612,0.356,0.3322,0.3561,0.3727,0.3675,0.0,0.0,0.0,0.0,0.0,0.0,0.0,0.0,0.0,0.0,0.0,0.0,0.0,0.0,0.0,0.0,0.0,0.0,0.0,0.0,0.5935,0.6381,0.6604,0.6604,0.7049,0.7382,0.7487,0.7844,0.822,0.8518,0.8722,0.8954,0.9214,0.9335,0.9457,0.9457,0.9457,0.9335,0.922,0.922,0.9335,0.9457,0.9457,0.9457,0.9457,0.9457,0.9464,0.9464,0.0,0.0,0.0,0.0,0.0,0.5425,0.0,0.0,0.0,0.0,0.0,0.0,0.0,0.0,0.6086,0.6284,0.635,0.6367,0.6245,0.6237,0.6156,0.5986,0.5977,0.5945,0.5888,0.5707,0.5467,0.524,0.5063,0.489,0.4769,0.4769,0.485,0.4986,0.4884,0.4897,0.4999,0.5148,0.5209,0.5216,0.0,0.0,0.5459,0.0,0.0,0.0,0.0,0.0,0.0,0.0,0.0,0.0,0.0,0.0,0.0,0.0,0.0,0.4147,0.4147,0.4152,0.4073,0.3839,0.3761,0.3706,0.3473,0.3699,0.3938,0.3796,0.0,0.0,0.0,0.0,0.0,0.0,0.0,0.0,0.0,0.0,0.0,0.0,0.0,0.0,0.0,0.0,0.0,0.0,0.0,0.0,0.6604,0.6826,0.7049,0.716,0.7493,0.7826,0.8152,0.8245,0.8495,0.8794,0.9007,0.9268,0.9457,0.97,0.9822,0.9822,0.9822,0.97,0.9457,0.9457,0.9579,0.9822,0.9822,0.9822,0.9822,0.9822,0.9822,0.9822,0.0,0.5491,0.5425,0.5425,0.5425,0.5425,0.5425,0.0,0.0,0.0,0.0,0.0,0.0,0.0,0.0,0.6416,0.6416,0.6416,0.6416,0.6416,0.6335,0.6227,0.6219,0.6137,0.5904,0.5707,0.5525,0.5411,0.5214,0.5039,0.4925,0.4925,0.4999,0.5135,0.5135,0.5135,0.5148,0.5298,0.5425,0.5425,0.0,0.5425,0.5432,0.0,0.0,0.0,0.6709,0.6709,0.0,0.6715,0.0,0.0,0.0,0.0,0.0,0.0,0.0,0.0,0.0,0.0,0.0,0.3623,0.3689,0.3769,0.3778,0.4002,0.4274,0.0,0.0,0.0,0.0,0.0,0.0,0.0,0.0,0.0,0.0,0.0,0.0,0.0,0.0,0.0,0.0,0.0,0.0,0.0,0.0,0.6826,0.7154,0.7493,0.7715,0.8048,0.8048,0.8152,0.8484,0.8484,0.8858,0.9381,0.9381,0.9537,0.9822,0.9822,0.9822,0.9822,0.9822,0.9822,0.9822,0.9822,0.9822,0.9822,0.9822,0.9822,0.9822,0.9822,0.9822,0.9822,0.5822,0.5624,0.5425,0.5425,0.5425,0.5425,0.5425,0.0,0.0,0.0,0.0,0.0,0.0,0.0,0.635,0.6416,0.6416,0.6416,0.6416,0.6416,0.6392,0.6343,0.6343,0.6319,0.627,0.0,0.0,0.0,0.0,0.0,0.0,0.0,0.0,0.5298,0.5298,0.5298,0.5298,0.5345,0.5425,0.5425,0.5425,0.5425,0.0,0.0,0.0,0.0,0.0,0.6973,0.6749,0.0,0.6586,0.5643,0.0,0.0,0.0,0.0,0.0,0.0,0.4233,0.0,0.0,0.0,0.0,0.0,0.3802,0.4215,0.4503,0.0,0.0,0.0,0.0,0.0,0.0,0.0,0.0,0.0,0.0,0.0,0.0,0.0,0.0,0.0,0.0,0.0,0.0,0.0,0.7376,0.7715,0.782,0.7826,0.8048,0.8374,0.8374,0.8491,0.8823,0.8823,0.897,0.9381,0.9381,0.9537,0.9822,0.9822,0.9822,0.9822,0.9822,0.9822,0.9822,0.9822,0.9822,0.9822,0.9822,0.9822,0.9822,0.9822,0.9822,0.9822,0.5888,0.5624,0.5425,0.5425,0.5425,0.5425,0.5425,0.0,0.0,0.0,0.0,0.0,0.0,0.0,0.0,0.6416,0.6416,0.6416,0.6416,0.6416,0.6416,0.6416,0.635,0.635,0.635,0.0,0.0,0.0,0.0,0.0,0.0,0.0,0.0,0.0,0.5425,0.5425,0.5425,0.5425,0.0,0.0,0.5425,0.0,0.0,0.565,0.5867,0.0,0.0,0.0,0.677,0.7217,0.677,0.0,0.0,0.0,0.0,0.0,0.0,0.0,0.0,0.0,0.0,0.0,0.0,0.0,0.4028,0.4506,0.4838,0.0,0.0,0.0,0.0,0.0,0.0,0.0,0.0,0.0,0.0,0.0,0.0,0.0,0.0,0.0,0.0,0.0,0.0,0.7487,0.782,0.8042,0.8152,0.8269,0.8491,0.8712,0.8712,0.8712,0.894,0.894,0.9089,0.9381,0.9381,0.9537,0.9822,0.9822,0.9822,0.9822,0.9822,0.9822,0.9822,0.9822,0.9822,0.9822,0.9822,0.9822,0.9822,0.9822,0.9822,0.9822,0.0,0.5624,0.5425,0.5425,0.5425,0.5425,0.0,0.0,0.0,0.0,0.0,0.0,0.0,0.0,0.0,0.0,0.635,0.635,0.635,0.635,0.0,0.635,0.6218,0.6145,0.6145,0.0,0.0,0.0,0.0,0.0,0.0,0.0,0.0,0.0,0.5425,0.5425,0.5425,0.5425,0.0,0.5433,0.5433,0.5467,0.0,0.0,0.5766,0.6186,0.6641,0.681,0.6885,0.7285,0.6858,0.0,0.0,0.0,0.0,0.0,0.4827,0.0,0.0,0.0,0.0,0.0,0.0,0.0,0.4367,0.4785,0.5202,0.5202,0.0,0.0,0.0,0.0,0.0,0.0,0.0,0.0,0.0,0.0,0.0,0.0,0.0,0.0,0.0,0.8042,0.8048,0.8042,0.8152,0.8374,0.8595,0.8823,0.9051,0.9051,0.9051,0.9051,0.9051,0.9051,0.9202,0.9497,0.9497,0.9655,0.9822,0.9822,0.9822,0.9822,0.9822,0.9822,0.9822,0.9822,0.9822,0.9822,0.9822,0.9822,0.9822,0.9822,0.9822,0.9822,0.5888,0.5624,0.5425,0.5425,0.5425,0.5425,0.0,0.0,0.0,0.0,0.0,0.0,0.0,0.0,0.0,0.0,0.621,0.621,0.621,0.621,0.6152,0.602,0.5954,0.5954,0.5954,0.5749,0.0,0.0,0.0,0.0,0.0,0.0,0.0,0.0,0.5425,0.5425,0.5425,0.5425,0.0,0.5901,0.5901,0.0,0.6437,0.6437,0.6573,0.681,0.7265,0.7495,0.7611,0.7692,0.7366,0.6824,0.0,0.0,0.0,0.0,0.0,0.0,0.0,0.0,0.0,0.0,0.0,0.0,0.47,0.5068,0.5358,0.0,0.0,0.0,0.0,0.0,0.0,0.0,0.0,0.0,0.0,0.0,0.0,0.0,0.0,0.0,0.0,0.8263,0.8484,0.8699,0.9147,0.9485,0.9596,0.9596,0.9596,0.9596,0.9596,0.9596,0.9596,0.9596,0.9756,1.0069,1.0069,1.0119,1.0186,1.0186,1.0065,0.9822,0.9822,0.9822,0.9822,0.9822,0.9822,0.9822,0.9822,0.9822,0.9822,0.9822,0.9822,0.9822,0.5888,0.5624,0.5425,0.5425,0.0,0.0,0.0,0.0,0.0,0.0,0.0,0.0,0.0,0.0,0.0,0.0,0.0,0.0,0.0,0.0,0.6045,0.5896,0.5822,0.5756,0.5756,0.5557,0.0,0.0,0.0,0.0,0.0,0.0,0.0,0.0,0.5425,0.5425,0.5425,0.5425,0.5664,0.6139,0.6057,0.0,0.6817,0.6817,0.6905,0.7095,0.7543,0.7896,0.8113,0.7889,0.7658,0.0,0.0,0.6213,0.5969,0.0,0.5438,0.5369,0.0,0.0,0.0,0.508,0.0,0.0,0.0,0.521,0.5576,0.5576,0.5822,0.0,0.0,0.0,0.0,0.0,0.0,0.0,0.0,0.0,0.0,0.0,0.0,0.0,0.0,0.8996,0.9147,0.9368,0.9596,0.9816,0.9816,0.9816,0.9816,0.9816,0.9816,0.9816,0.9816,0.9816,0.998,1.0301,1.0301,1.0355,1.0543,1.0543,1.0429,1.0308,1.0065,1.0065,1.0065,0.9822,0.9822,0.9822,0.9822,0.9822,0.9822,0.9822,0.9822,0.9822,0.5822,0.5624,0.5425,0.5425,0.0,0.0,0.0,0.0,0.0,0.5616,0.5806,0.0,0.0,0.0,0.0,0.0,0.0,0.0,0.0,0.0,0.0,0.5996,0.573,0.5642,0.5726,0.5487,0.5425,0.0,0.0,0.0,0.0,0.0,0.0,0.0,0.0,0.5446,0.5413,0.5562,0.0,0.6295,0.0,0.6532,0.6966,0.6966,0.7109,0.7373,0.7855,0.8208,0.8384,0.8024,0.7841,0.7638,0.6885,0.6586,0.0,0.0,0.0,0.0,0.0,0.0,0.0,0.0,0.0,0.5312,0.0,0.0,0.0,0.5795,0.0,0.0,0.0,0.0,0.0,0.0,0.0,0.0,0.0,0.0,0.0,0.0,0.0,0.0,0.0,0.963,0.9783,0.9783,0.9892,1.0,1.0,1.0093,1.0147,1.0147,1.0147,1.0147,1.0036,1.0067,1.0235,1.0416,1.0562,1.062,1.0906,1.0906,1.0906,1.0785,1.055,1.0429,1.0422,1.0065,0.9943,0.9943,0.9822,0.9822,0.9822,0.9822,0.9822,0.9822,0.5617,0.5491,0.5425,0.5425,0.0,0.0,0.0,0.0,0.5759,0.5772,0.6139,0.0,0.0,0.0,0.0,0.0,0.0,0.0,0.6641,0.0,0.0,0.0,0.5913,0.0,0.6222,0.5706,0.5425,0.0,0.0,0.0,0.0,0.0,0.0,0.0,0.5425,0.0,0.5589,0.0,0.6274,0.0,0.6865,0.7054,0.0,0.7115,0.7455,0.8018,0.8601,0.8587,0.8289,0.0,0.795,0.7584,0.0,0.6993,0.6641,0.0,0.0,0.0,0.0,0.0,0.0,0.0,0.5851,0.0,0.0,0.0,0.6008,0.5867,0.0,0.0,0.0,0.0,0.0,0.0,0.0,0.0,0.0,0.0,0.0,0.0,0.0,0.0,0.0,0.0,0.9784,0.9784,1.0194,1.0502,1.0502,1.1078,1.1354,1.1354,1.1354,1.1236,1.0907,1.1073,1.1142,1.1109,1.1269,1.1328,1.1269,1.1269,1.1027,1.0785,1.0793,1.0785,1.0785,1.0664,1.055,1.0186,0.9943,0.9822,0.9822,0.9822,0.9822,0.9822,0.5652,0.5561,0.5494,0.5494,0.5616,0.0,0.0,0.0,0.5935,0.5935,0.6179,0.0,0.0,0.0,0.0,0.0,0.0,0.7382,0.0,0.0,0.0,0.0,0.0,0.0,0.0,0.5745,0.5616,0.0,0.5535,0.0,0.0,0.0,0.0,0.0,0.5583,0.0,0.6112,0.0,0.662,0.0,0.0,0.0,0.0,0.7305,0.7651,0.8241,0.8757,0.8648,0.8309,0.0,0.8357,0.0,0.0,0.0,0.0,0.0,0.0,0.0,0.0,0.0,0.0,0.0,0.0,0.0,0.5971,0.0,0.6215,0.0,0.0,0.0,0.0,0.0,0.0,0.0,0.6936,0.0,0.0,0.0,0.0,0.0,0.0,0.0,0.0,0.0,0.0,0.0,0.0,1.0602,1.0602,1.1256,1.1564,1.1564,1.1564,1.1564,1.1345,1.1543,1.1733,1.1684,1.1762,1.1827,1.1872,1.1639,1.1526,1.1405,1.1156,1.1027,1.1027,1.0906,1.0671,1.055,1.0443,1.0193,0.9822,0.9822,0.9822,0.9822,0.5719,0.5638,0.565,0.565,0.5766,0.0,0.0,0.0,0.0,0.0,0.0,0.0,0.7258,0.7407,0.0,0.0,0.7963,0.7868,0.0,0.0,0.7082,0.0,0.0,0.0,0.0,0.0,0.58,0.0,0.0,0.0,0.0,0.0,0.0,0.0,0.0,0.6003,0.6356,0.0,0.681,0.7265,0.7387,0.7502,0.7604,0.7611,0.7889,0.833,0.8777,0.8648,0.8323,0.8642,0.854,0.0,0.8269,0.0,0.0,0.0,0.0,0.0,0.6709,0.0,0.0,0.0,0.0,0.0,0.0,0.0,0.0,0.0,0.0,0.0,0.0,0.0,0.0,0.0,0.0,0.0,0.0,0.0,0.0,0.0,0.0,0.0,0.0,0.0,0.0,0.0,0.0,0.0,1.0527,1.1499,1.1928,1.1763,1.1918,1.1919,1.1973,1.2069,1.2152,1.2232,1.219,1.2235,1.2354,1.213,1.201,1.1889,1.1639,1.1518,1.1398,1.1156,1.1035,1.0914,1.0929,1.0565,1.0065,0.9943,0.9943,0.9943,0.5786,0.5793,0.5793,0.5793,0.5922,0.6071,0.0,0.0,0.0,0.0,0.0,0.0,0.0,0.0,0.0,0.0,0.0,0.871,0.8269,0.0,0.8214,0.0,0.0,0.6878,0.0,0.0,0.0,0.0,0.0,0.0,0.0,0.0,0.0,0.0,0.0,0.5888,0.6071,0.6505,0.679,0.698,0.7421,0.7597,0.7645,0.0,0.8255,0.833,0.8777,0.0,0.0,0.8289,0.8282,0.0,0.0,0.0,0.0,0.0,0.0,0.0,0.0,0.0,0.0,0.7147,0.0,0.0,0.0,0.0,0.7194,0.0,0.0,0.0,0.0,0.0,0.0,0.0,0.0,0.0,0.0,0.0,0.0,0.0,0.0,0.0,0.0,0.0,0.0,0.0,0.0,0.0,1.0329,1.2144,1.2916,1.2173,1.2654,1.2869,1.2729,1.2606,1.2587,1.2443,1.2627,1.2715,1.2715,1.2724,1.2483,1.2234,1.2234,1.2001,1.1776,1.1776,1.1526,1.1269,1.1277,1.1035,1.0793,1.0436,1.0322,1.02,0.6105,0.6105,0.6071,0.5969,0.6078,0.62,0.0,0.6641,0.0,0.0,0.7455,0.0,0.0,0.8404,0.8615,0.0,0.0,0.8872,0.8723,0.8438,0.0,0.0,0.0,0.6919,0.0,0.0,0.0,0.0,0.0,0.0,0.0,0.0,0.0,0.0,0.0,0.6302,0.0,0.0,0.0,0.0,0.0,0.8045,0.8058,0.0,0.0,0.833,0.8777,0.8648,0.0,0.8615,0.8513,0.8323,0.8621,0.8506,0.8269,0.848,0.8055,0.0,0.0,0.0,0.7261,0.7432,0.0,0.0,0.0,0.0,0.0,0.0,0.0,0.0,0.0,0.0,0.0,0.0,0.0,0.0,0.0,0.0,0.0,0.0,0.0,0.0,0.0,0.0,0.0,0.0,0.0,0.0,0.0,1.1943,1.2655,1.2971,1.3086,1.3197,1.3416,1.3522,1.3519,1.3381,1.3351,1.3204,1.2964,1.2844,1.2595,1.2475,1.2475,1.2483,1.2363,1.2122,1.2001,1.1872,1.1647,1.1526,1.1405,1.0785,1.0679,1.0579,0.6418,0.6291,0.615,0.6132,0.6193,0.6338,0.0,0.0,0.0,0.0,0.7773,0.0,0.8628,0.0,0.8784,0.0,0.9096,0.9096,0.9096,0.8825,0.0,0.8587,0.7875,0.0,0.0,0.0,0.0,0.0,0.0,0.6112,0.0,0.0,0.0,0.0,0.0,0.6424,0.6688,0.6688,0.721,0.0,0.0,0.8492,0.0,0.0,0.8499,0.8336,0.0,0.8832,0.8635,0.8981,0.8906,0.8703,0.894,0.8818,0.8574,0.885,0.8618,0.8378,0.8785,0.8416,0.0,0.8307,0.8194,0.0,0.7974,0.0,0.0,0.0,0.0,0.0,0.0,0.0,0.0,0.0,0.0,0.0,0.0,0.9248,0.0,0.0,0.0,0.0,0.0,0.0,0.0,0.0,1.0342,0.0,0.0,0.0,1.2433,1.273,1.2863,1.3152,1.3624,1.375,1.3868,1.4192,1.4103,1.3933,1.3684,1.3324,1.3204,1.3084,1.2964,1.2844,1.2715,1.2475,1.2354,1.2363,1.2147,1.2155,1.2026,1.1269,1.0906,1.0808,0.655,0.6222,0.5957,0.6203,0.6295,0.0,0.0,0.0,0.7706,0.0,0.8621,0.9218,0.9367,0.9381,0.9381,0.9381,0.9381,0.9381,0.9381,0.9381,0.0,0.0,0.873,0.8431,0.8296,0.0,0.0,0.0,0.0,0.0,0.0,0.0,0.0,0.0,0.6338,0.0,0.6338,0.6338,0.677,0.7665,0.8689,0.8845,0.8526,0.9123,0.0,0.837,0.8954,0.9164,0.9184,0.9334,0.9265,0.9238,0.9211,0.9044,0.8904,0.9001,0.9182,0.9514,0.9507,0.9466,0.9493,0.9587,0.0,0.0,0.0,0.0,1.0036,0.0,0.0,0.0,0.0,0.0,0.0,0.0,0.0,0.0,0.0,0.0,0.0,0.0,0.0,0.0,0.0,0.0,1.0293,1.0519,1.1181,1.1295,0.0,0.0,1.2314,1.1645,1.2111,1.2769,1.3614,1.3419,1.377,1.465,1.465,1.465,1.453,1.4291,1.4052,1.3684,1.3444,1.3084,1.2724,1.2724,1.2724,1.2724,1.2768,1.2664,1.2535,1.1647,1.1148,1.0891,0.5873,0.586,0.5891,0.0,0.6434,0.6662,0.0,0.0,0.0,0.0,0.8974,0.934,0.9374,0.9381,0.9381,0.9381,0.9381,0.0,0.0,0.0,0.0,0.9327,0.8893,0.8635,0.8601,0.7929,0.0,0.7584,0.0,0.0,0.6749,0.0,0.0,0.0,0.0,0.6338,0.6338,0.6338,0.6647,0.7319,0.8038,0.8255,0.0,0.0,0.8764,0.8662,0.915,0.932,0.9327,0.9245,0.9265,0.9374,0.9334,0.932,0.9313,0.9738,0.9846,0.9817,1.0145,0.9962,0.9745,1.0018,0.9778,0.9562,0.0,0.0,0.0,0.0,0.0,0.0,0.0,0.0,0.0,0.0,0.0,0.0,0.0,0.0,0.0,1.0743,0.0,0.0,0.0,1.0368,1.0443,1.0519,1.0701,1.0964,0.0,0.0,0.0,1.2405,1.2755,1.3355,1.4339,1.4489,1.4877,1.5364,1.5364,1.5126,1.465,1.453,1.4411,1.4411,1.4291,1.4052,1.3813,1.3564,1.3324,1.3084,1.2853,1.2724,1.2586,1.2139,1.1776,1.1526,0.5996,0.5747,0.5618,0.5687,0.0,0.0,0.6653,0.7419,0.0,0.8336,0.8856,0.0,0.9334,0.9453,0.9571,0.9571,0.9571,0.0,0.9571,0.0,0.0,0.9483,0.9239,0.9069,0.9008,0.8479,0.0,0.8201,0.0,0.0,0.7115,0.0,0.0,0.0,0.0,0.6451,0.6464,0.6661,0.6939,0.7312,0.8113,0.0,0.0,0.9001,0.9198,0.9232,0.9483,0.953,0.949,0.9432,0.9571,0.9564,0.9731,0.9717,0.9821,1.0099,1.0308,1.0286,1.0539,1.0635,1.0599,1.0816,1.0819,1.0822,1.1125,1.1363,1.1592,0.0,0.0,0.0,0.0,0.0,0.0,0.0,0.0,0.0,0.0,0.0,0.0,0.0,1.1649,0.0,0.0,1.1043,1.1043,1.1043,1.1043,0.0,0.0,0.0,0.0,1.3057,1.3074,1.3601,1.4628,1.4688,1.4781,1.501,1.533,1.5243,1.4688,1.499,1.5007,1.4769,1.465,1.453,1.4411,1.4172,1.3933,1.3813,1.3453,1.3324,1.3186,1.2853,1.263,1.2285,0.6236,0.5785,0.5398,0.0,0.0,0.0,0.0,0.7057,0.0,0.8091,0.0,0.908,0.9323,0.9579,0.97,0.9822,0.0,0.9822,0.9822,0.9822,0.9768,0.9646,0.9639,0.9578,0.9442,0.9035,0.0,0.0,0.0,0.0,0.0,0.0,0.0,0.0,0.0,0.0,0.0,0.7204,0.74,0.7495,0.8547,0.8967,0.9028,0.9605,0.9822,0.9822,0.9822,0.9741,0.9533,0.9781,0.9822,0.9916,1.0032,1.0235,1.0324,1.0412,1.06,1.0825,1.0917,1.138,1.1718,1.1808,1.2134,1.2459,1.2786,1.2986,1.3188,1.3406,1.3164,0.0,0.0,0.0,0.0,0.0,0.0,0.0,0.0,0.0,0.0,0.0,0.0,0.0,0.0,0.0,1.17,1.17,1.17,0.0,0.0,0.0,0.0,1.3451,1.3361,0.0,1.4777,0.0,1.4389,1.431,1.5053,1.5297,1.5,1.55,1.5591,1.5235,1.4888,1.4769,1.4769,1.465,1.465,1.453,1.4431,1.4191,1.4081,1.3816,1.3639,1.331,0.5127,0.5129,0.5287,0.0,0.0,0.6498,0.6713,0.7762,0.8604,0.8702,0.8896,0.9067,0.9214,0.9335,0.9457,0.9822,0.9822,0.0,0.0,0.0,0.0,0.9788,0.9781,0.9774,0.9747,0.9551,0.9456,0.0,0.0,0.0,0.0,0.0,0.0,0.0,0.0,0.0,0.6736,0.7319,0.0,0.7651,0.8696,0.9117,0.9164,0.9639,0.9822,0.9822,0.9822,0.9802,0.9788,0.9815,0.9943,1.0179,1.04,1.0507,1.074,1.1071,1.1183,1.1272,1.1728,1.1921,1.2004,1.2418,1.2698,1.3013,1.3354,1.3552,1.3984,1.4537,1.3933,1.3518,1.4117,0.0,0.0,0.0,0.0,0.0,0.0,0.0,0.0,0.0,0.0,1.402,0.0,0.0,0.0,0.0,0.0,0.0,0.0,0.0,0.0,0.0,0.0,0.0,0.0,0.0,1.5202,1.491,1.5482,1.5638,1.5331,1.6079,1.6301,1.6183,1.5957,1.572,1.5364,1.5116,1.4888,1.465,1.4789,1.481,1.4801,1.5003,1.5138,1.5019,0.5144,0.0,0.0,0.0,0.0,0.0,0.0,0.7535,0.0,0.836,0.8488,0.8732,0.8854,0.9092,0.9335,0.9579,0.97,0.9822,0.9822,0.9822,0.9822,0.9822,0.9822,0.0,0.9822,0.9754,0.972,0.972,0.0,0.0,0.0,0.0,0.0,0.6926,0.0,0.7061,0.0,0.0,0.0,0.8452,0.8954,0.9293,0.9523,0.9741,0.9822,0.9822,1.0065,1.0186,1.0186,1.0186,1.0308,1.0429,1.0793,1.1035,1.1156,1.1405,1.1639,1.1856,1.2013,1.2345,1.2684,1.3057,1.3306,1.3683,1.4039,1.4292,1.4551,1.5004,1.4856,1.4849,1.5482,1.504,0.0,0.0,0.0,0.0,0.0,0.0,0.0,0.0,0.0,0.0,0.0,0.0,0.0,0.0,0.0,0.0,0.0,0.0,0.0,0.0,0.0,0.0,0.0,0.0,0.0,1.5518,1.6016,1.6186,1.5869,1.6541,1.6655,1.6537,1.6312,1.6194,1.6076,1.6078,1.5894,1.5534,1.5677,1.5675,1.5596,1.5583,1.5684,1.5694,0.5345,0.539,0.0,0.0,0.5742,0.0,0.6645,0.7085,0.7413,0.7872,0.8144,0.8407,0.8407,0.8922,0.918,0.9426,0.9671,0.9781,0.9869,0.9869,0.9856,0.9822,0.9822,0.9822,0.9822,0.9822,0.9822,0.0,0.0,0.0,0.0,0.0,0.0,0.0,0.0,0.0,0.0,0.0,0.8506,0.9164,0.9259,0.9503,0.9822,0.9822,0.9822,0.9943,1.0436,1.0558,1.055,1.0679,1.0679,1.0793,1.1156,1.1398,1.1518,1.1768,1.2001,1.2234,1.2354,1.2844,1.3444,1.3693,1.4035,1.4259,1.4855,1.5055,1.527,1.5613,1.6023,1.6292,1.6682,1.6423,0.0,0.0,0.0,0.0,0.0,0.0,0.0,0.0,0.0,0.0,0.0,0.0,0.0,0.0,0.0,1.3131,1.3515,1.3523,0.0,0.0,0.0,1.5578,1.65,0.0,1.6111,0.0,1.6655,1.6733,1.6527,1.7002,1.702,1.6773,1.6655,1.6571,1.664,1.6891,1.6873,1.6619,1.6594,1.6508,1.6377,1.6274,1.6302,1.6183,0.0,0.0,0.0,0.0,0.0,0.0,0.6546,0.6831,0.7247,0.7883,0.8094,0.816,0.8403,0.8638,0.8961,0.9589,0.9716,0.979,0.9915,1.0025,0.9964,0.9829,0.9822,0.9822,0.9822,0.9822,0.9822,0.0,0.0,0.0,0.0,0.0,0.0,0.0,0.0,0.0,0.0,0.8852,0.9076,0.9191,0.9591,0.9781,0.9822,0.9822,0.9943,1.0308,1.0679,1.08,1.0914,1.1526,1.1526,1.1277,1.1269,1.1526,1.1776,1.2122,1.2234,1.2354,1.2964,1.3324,1.3684,1.4052,1.4629,1.5084,1.544,1.5795,1.6127,1.6715,1.7098,1.7427,1.7179,1.7499,1.7948,0.0,0.0,0.0,0.0,0.0,0.0,0.0,0.0,0.0,0.0,1.7751,0.0,0.0,1.4475,1.3529,1.3853,1.4041,1.4643,1.5534,0.0,1.6344,1.7014,1.6814,0.0,1.6413,1.6855,1.7156,1.7181,1.7703,1.7855,1.7855,1.7256,1.6912,1.6891,1.7154,1.7268,1.7268,1.7449,1.7619,1.7587,1.7674,1.7573,1.7293,0.0,0.0,0.0,0.0,0.0,0.0,0.0,0.6688,0.7005,0.7718,0.788,0.8039,0.8287,0.8585,0.8869,0.9379,0.9627,0.9862,1.0188,1.0188,1.0161,1.01,1.0005,0.9958,0.9958,0.9869,0.9822,0.0,0.0,0.0,0.0,0.0,0.0,0.0,0.0,0.8635,0.8899,0.9076,0.9306,0.9571,0.9747,0.9822,0.9822,0.9815,1.0058,1.0429,1.0793,1.1156,1.1405,1.1655,1.1526,1.139,1.1752,1.1881,1.2122,1.2363,1.2595,1.2844,1.3324,1.3693,1.4172,1.4639,1.5116,1.5472,1.5839,1.6312,1.6678,1.6903,1.7406,1.7877,1.8212,1.8411,1.8459,0.0,0.0,0.0,0.0,0.0,0.0,0.0,0.0,0.0,0.0,0.0,0.0,0.0,0.0,0.0,1.488,1.5028,0.0,1.5504,0.0,1.6182,1.7299,1.7213,1.7647,1.84,1.8427,1.8372,1.8259,1.8275,1.8282,1.8208,1.797,1.7757,1.7777,1.8049,1.8007,1.7859,1.8195,1.8059,1.7851,1.7976,1.7882,1.7753,0.4671,0.0,0.4838,0.0,0.5247,0.5598,0.6319,0.6481,0.6752,0.7428,0.7562,0.7811,0.8162,0.8447,0.8851,0.9374,0.9626,0.9871,1.0344,1.0344,1.0324,1.0283,1.0175,0.0,1.0114,1.0012,0.9958,0.9958,0.991,0.0,0.0,0.0,0.0,0.0,0.8872,0.9049,0.9354,0.9395,0.9598,0.989,1.006,0.9951,0.9951,1.0067,1.0285,1.0738,1.1233,1.1566,1.1776,1.1889,1.176,1.1631,1.2113,1.2234,1.2354,1.2724,1.3084,1.3444,1.3813,1.4172,1.465,1.5116,1.5483,1.5839,1.6324,1.6667,1.702,1.7256,1.7843,1.8428,1.8881,1.907,1.9063,1.8768,0.0,0.0,0.0,0.0,0.0,0.0,1.8747,1.8474,1.6931,0.0,0.0,0.0,0.0,0.0,0.0,0.0,0.0,0.0,0.0,0.0,0.0,1.7471,1.8192,1.9525,1.9456,1.9345,1.9113,1.8855,1.8695,1.8613,1.8688,1.8716,1.8667,1.8937,1.877,1.862,1.8709,1.8559,1.8348,1.8267,1.8233,1.8233,0.5148,0.5148,0.5148,0.5148,0.5408,0.5695,0.5781,0.6054,0.6477,0.6969,0.7254,0.7749,0.8296,0.8513,0.8851,0.9655,0.9655,0.9864,1.05,1.0487,1.0426,0.0,0.0,1.0276,1.0276,1.0276,1.0276,1.0276,0.0,0.0,0.9367,0.0,0.9388,0.9802,0.9802,0.9808,0.9822,0.9971,1.0039,1.0059,1.0587,1.0517,1.0122,1.0637,1.0915,1.1147,1.1789,1.1931,1.1897,1.2122,1.2234,1.2234,1.2234,1.2475,1.2724,1.3084,1.3444,1.3813,1.4052,1.465,1.5116,1.5483,1.5839,1.6205,1.6903,1.702,1.7138,1.7855,1.8428,1.8881,1.8881,1.9345,1.9924,2.0256,0.0,0.0,0.0,0.0,0.0,0.0,2.046,2.0178,1.7365,0.0,0.0,0.0,0.0,0.0,0.0,0.0,0.0,1.6087,1.5824,0.0,1.669,1.7437,1.8178,1.8791,1.9498,1.9809,1.9822,1.9404,1.9335,1.9267,1.9534,1.9661,1.9687,1.9586,1.9571,1.9571,1.92,1.9072,1.9072,1.9072,1.8932,1.864,0.4383,0.4418,0.458,0.4841,0.5277,0.5583,0.5871,0.6144,0.6552,0.6982,0.7254,0.7646,0.8143,0.8435,0.8856,0.0,0.9661,0.9908,0.0,1.0649,1.0629,1.0582,1.048,1.0426,1.0426,1.0331,1.0283,1.0283,0.0,0.0,0.0,0.949,0.9544,0.9693,0.9998,1.0134,1.0134,1.0188,1.0335,1.0587,1.077,1.0651,1.0644,1.1285,1.1507,1.1713,1.2599,1.2682,1.2499,1.2871,1.3119,1.3367,1.3615,1.3545,1.3444,1.3813,1.4052,1.4411,1.4759,1.5116,1.5483,1.5839,1.6312,1.6785,1.6903,1.7373,1.7843,1.8544,1.8765,1.8997,1.9461,1.9809,2.027,2.05,0.0,0.0,0.0,0.0,0.0,0.0,2.0162,2.007,0.0,1.9497,0.0,0.0,0.0,0.0,0.0,0.0,0.0,0.0,1.6319,0.0,1.7039,1.7919,1.8586,1.9127,2.0274,2.0572,2.0424,2.004,1.9889,1.9931,2.0009,2.0039,1.9979,1.9941,1.9992,1.9914,1.9786,1.9786,1.9774,1.9505,1.9352,1.9212,0.3932,0.4092,0.4251,0.4519,0.5085,0.5513,0.5647,0.6183,0.6585,0.6719,0.7259,0.766,0.7794,0.8323,0.0,0.9661,0.9661,0.9927,1.0717,1.0717,1.0717,1.0717,1.0629,1.0575,1.0575,0.0,0.0,1.0446,1.0385,1.0188,0.9863,0.9863,0.9863,0.9876,1.0154,1.0283,1.0283,1.0465,1.0742,1.0877,1.1191,1.1342,1.1335,1.1985,1.2211,1.2402,1.291,1.3113,1.3044,1.3429,1.3806,1.4057,1.4442,1.4508,1.4528,1.465,1.4902,1.5135,1.5487,1.586,1.6079,1.6481,1.6924,1.7138,1.728,1.7843,1.8428,1.8881,1.8997,1.9229,1.9693,2.004,2.0385,2.0601,2.1303,2.1774,2.1888,0.0,0.0,0.0,0.0,0.0,0.0,2.0289,0.0,0.0,0.0,0.0,0.0,0.0,0.0,1.8065,1.7818,0.0,1.8054,1.8979,1.9554,1.9852,2.0888,2.1188,2.0876,2.0645,2.0561,2.0592,2.0592,2.0572,2.0488,2.0361,2.0246,2.0272,2.0157,2.0144,2.0119,1.9839,1.9736,1.9786,0.3768,0.4037,0.0,0.0,0.4842,0.0,0.5379,0.6049,0.6455,0.6585,0.7125,0.7526,0.7526,0.8189,0.8856,0.9661,0.0,0.0,0.0,1.0717,1.0717,1.0717,1.0717,1.0717,1.0717,1.0717,1.0717,1.0717,1.0575,1.0439,1.031,1.031,1.031,1.031,1.031,1.031,1.0445,1.0841,1.1027,1.1171,1.198,1.2173,1.2173,1.27,1.2996,1.3234,1.3225,1.3242,1.3465,1.3843,1.4229,1.4606,1.4856,1.5357,1.5846,1.5566,1.568,1.5929,1.6291,1.6662,1.6988,1.7369,1.7431,1.7613,1.8084,1.8596,1.8933,1.8907,1.9269,1.9502,1.9822,2.004,2.0385,2.0716,2.1303,2.1774,2.2116,0.0,0.0,0.0,0.0,0.0,0.0,2.0883,2.1645,0.0,0.0,0.0,0.0,0.0,1.9728,2.0346,2.02,1.9924,1.9646,2.0377,2.0858,2.0853,2.1496,2.1512,2.1314,2.1204,2.123,2.1109,2.1109,2.1109,2.1109,2.0729,2.0589,2.055,2.0348,2.0182,2.0118,2.0118,2.0068,2.0183,0.0,0.0,0.4308,0.4308,0.4842,0.5379,0.5379,0.6049,0.6585,0.6853,0.7254,0.766,0.7927,0.8323,0.8856,0.9661,0.9661,0.9927,1.0717,1.0717,1.0717,1.0717,1.0717,1.0717,1.0717,1.0717,1.0717,1.0717,1.0683,1.0649,1.0616,1.0616,1.0616,1.0616,1.0616,1.0747,1.1009,1.1045,1.1454,1.1987,1.2157,1.2305,1.27,1.3104,1.3341,1.3439,1.3944,1.4308,1.453,1.4919,1.5306,1.5693,1.5951,1.6337,1.6637,1.6149,1.6291,1.6673,1.692,1.7291,1.7649,1.7713,1.8069,1.8666,1.921,1.9438,1.9614,1.9628,1.9811,2.0096,2.0197,2.0385,2.073,2.1089,2.1546,2.2002,2.2116,2.1899,0.0,0.0,2.2095,2.23,2.223,2.3427,2.4295,0.0,0.0,0.0,0.0,2.3374,2.2181,2.1377,2.0868,2.07,2.0772,2.137,2.1994,2.2542,2.2118,2.1944,2.1881,2.163,2.142,2.1109,2.1109,2.1109,2.1109,2.0982,2.0982,2.0969,2.0856,2.0843,2.0829,2.0537,2.0423,2.0449,0.3497,0.3902,0.4308,0.4308,0.4842,0.5379,0.5379,0.6049,0.6585,0.6987,0.7254,0.766,0.8056,0.8456,0.8856,0.9661,0.9661,0.9927,1.0717,1.0717,1.0717,1.0717,1.0717,1.0717,1.0717,1.0717,1.0717,1.0717,1.0717,1.0717,1.0717,1.0717,1.0717,1.0982,1.0982,1.1115,1.1512,1.1644,1.1909,1.2305,1.2568,1.284,1.3104,1.3498,1.3761,1.4024,1.4408,1.48,1.5202,1.5593,1.6104,1.6494,1.6623,1.7012,1.7474,1.7334,1.7382,1.7382,1.7771,1.8022,1.8238,1.8368,1.8865,1.9389,1.9768,1.9876,1.9958,2.0027,2.024,2.0543,2.0718,2.0925,2.1277,2.1759,2.221,2.2559,2.279,2.2593,0.0,2.2659,2.3084,2.3419,2.3631,2.4861,2.5743,2.5743,0.0,0.0,2.6267,2.5388,2.4436,2.3482,2.3145,2.2922,2.2683,2.273,2.2955,2.3335,2.2842,2.2448,2.2355,2.1978,2.1614,2.1362,2.1109,2.1109,2.1109,2.1109,2.1109,2.1109,2.1109,2.1109,2.1109,2.0956,2.0829,2.0816,0.3228,0.3902,0.4308,0.4308,0.4977,0.5379,0.5513,0.6049,0.6719,0.6987,0.7388,0.7794,0.8189,0.8456,0.8989,0.9661,0.9794,1.006,1.0717,1.0717,1.0717,1.0717,1.0717,1.0717,1.0717,1.0717,1.0717,1.0717,1.0717,1.0717,1.0717,1.0717,1.0982,1.1247,1.1247,1.1512,1.1909,1.2173,1.2305,1.2437,1.3104,1.3498,1.3498,1.3884,1.4277,1.4539,1.4931,1.5332,1.5724,1.6104,1.6613,1.713,1.713,1.7518,1.8173,1.8442,1.8431,1.8302,1.8571,1.8699,1.8896,1.9299,1.9696,1.9898,2.0007,2.013,2.0347,2.0307,2.0537,2.0887,2.1194,2.1555,2.2035,2.2632,2.2734,2.3043,2.3551,0.0,2.3206,2.3464,2.3938,2.4285,2.4487,2.57,2.6504,2.6504,2.6734,2.7,0.0,2.6707,2.6261,2.5863,2.5695,2.5344,2.4822,2.4139,2.3703,2.3604,2.3355,2.2981,2.2606,2.2355,2.1978,2.1614,2.1362,2.1109,2.1109,2.1109,2.1109,2.1109,2.1109,2.1109,2.1109,2.1109,2.1109,2.1109,0.3633,0.4037,0.444,0.4708,0.5111,0.5513,0.5778,0.6447,0.6987,0.7393,0.7794,0.8189,0.8456,0.8851,0.9256,0.9661,0.9927,1.0326,1.0724,1.0717,1.0717,1.0717,1.0717,1.0717,1.0717,1.0717,1.0717,1.0717,1.0717,1.0717,1.0717,1.0982,1.1115,1.1247,1.1512,1.1909,1.2173,1.2305,1.2437,1.2824,1.3235,1.3761,1.4155,1.4557,1.481,1.4931,1.5332,1.5854,1.6374,1.6753,1.7141,1.7529,1.7776,1.8173,1.8571,1.8571,1.8944,1.9316,1.9072,1.92,1.9571,2.017,2.0384,2.0598,2.085,2.0975,2.0909,2.0655,2.1094,2.138,2.1236,2.1689,2.2289,2.2632,2.2145,2.223,2.3458,0.0,2.3706,2.4631,2.5208,2.5554,2.5669,2.6399,2.6849,2.6849,2.7097,2.7355,2.7678,2.7229,2.7016,2.721,2.6338,2.5741,2.5448,2.4747,2.4301,2.3976,2.3728,2.323,2.2606,2.2606,2.223,2.1614,2.1488,2.1362,2.1109,2.1109,2.1109,2.1109,2.1109,2.1109,2.1109,2.1109,2.1109,2.1109,0.3768,0.4171,0.4574,0.4705,0.5242,0.5781,0.6183,0.6719,0.7254,0.7794,0.7927,0.8189,0.859,0.8851,0.925,0.9661,1.006,1.0326,1.0717,1.0717,1.0717,1.0717,1.0717,1.0717,1.0717,1.0717,1.0717,1.0717,1.085,1.0982,1.0982,1.138,1.1644,1.1776,1.2041,1.2312,1.2568,1.284,1.2972,1.3227,1.3752,1.4286,1.467,1.5081,1.5332,1.5583,1.5854,1.6364,1.6882,1.7141,1.7658,1.8185,1.8302,1.8571,1.8956,1.9072,1.9328,1.9584,1.9584,1.9839,2.0221,2.0475,2.0729,2.0856,2.1109,2.1109,2.1069,2.0935,2.1395,2.1852,2.1712,2.219,2.2804,2.3155,2.3006,0.0,0.0,2.4553,2.501,2.5522,2.6185,2.6542,2.6762,2.7234,2.7605,2.7741,2.8074,2.8282,2.8446,2.811,2.7842,2.7762,2.6884,2.6161,2.5839,2.5226,2.4734,2.4363,2.3852,2.3479,2.3106,2.2731,2.2355,2.1866,2.174,2.1362,2.1109,2.1109,2.1109,2.1109,2.1109,2.1109,2.1109,2.1109,2.1109,2.1109,0.4037,0.4574,0.4977,0.5108,0.5644,0.6183,0.6585,0.6987,0.7522,0.8056,0.8189,0.8323,0.8717,0.8984,0.9389,0.9794,1.006,1.0452,1.0717,1.0717,1.0717,1.0717,1.0717,1.0717,1.0717,1.0717,1.0717,1.085,1.1115,1.1247,1.138,1.1776,1.2041,1.2312,1.2444,1.2708,1.2972,1.3227,1.349,1.363,1.4277,1.48,1.5071,1.5463,1.5844,1.6234,1.6494,1.6882,1.726,1.7658,1.8185,1.8571,1.8699,1.8956,1.9328,1.9571,1.9711,1.9839,2.0106,2.0361,2.0602,2.0729,2.0856,2.1109,2.1109,2.1109,2.1109,2.1109,2.1614,2.2104,2.2104,2.2606,2.323,2.3604,0.0,0.0,0.0,2.5246,2.5786,2.605,2.6692,2.7194,2.7401,2.7779,2.814,2.8397,2.8755,2.8975,2.8975,2.8636,2.8277,2.79,2.7056,2.6449,2.6067,2.5472,2.498,2.461,2.3976,2.3728,2.3604,2.2981,2.248,2.223,2.1866,2.1488,2.1235,2.1109,2.1109,2.1109,2.1109,2.1109,2.1109,2.1109,2.1109,2.1109,0.4705,0.5111,0.5513,0.5778,0.6183,0.6585,0.6853,0.7522,0.8056,0.8056,0.8323,0.8717,0.8984,0.9389,0.9794,1.0193,1.0459,1.0724,1.0717,1.0717,1.0717,1.0717,1.0717,1.0717,1.0717,1.0717,1.085,1.1115,1.1247,1.138,1.1784,1.2041,1.2305,1.2305,1.2972,1.3367,1.3367,1.3473,1.3735,1.4137,1.467,1.5202,1.5603,1.5844,1.6353,1.6872,1.7001,1.7389,1.8033,1.8442,1.8571,1.8699,1.8944,1.9328,1.9571,1.9571,2.0094,2.0475,2.0615,2.0615,2.0602,2.0982,2.1109,2.1109,2.1109,2.1109,2.1109,2.1109,2.1614,2.2104,2.2104,2.2606,2.3355,2.3991,0.0,0.0,2.4854,2.4854,2.4944,2.5951,2.6692,2.7073,2.7073,2.7659,2.802,2.802,2.8618,2.8975,2.8975,2.8636,2.814,2.7521,2.6935,2.6449,2.6067,2.5717,2.5226,2.461,2.4239,2.3852,2.3604,2.323,2.2856,2.248,2.223,2.1853,2.1488,2.1235,2.1109,2.1109,2.1109,2.1109,2.1109,2.1109,2.1109,2.1109,0.5111,0.5513,0.5781,0.6183,0.6585,0.6987,0.7655,0.7922,0.8189,0.8323,0.8717,0.8984,0.9117,0.9655,1.006,1.0193,1.0459,1.0717,1.0717,1.0717,1.0717,1.0717,1.0717,1.085,1.0982,1.0982,1.1247,1.1512,1.1776,1.1909,1.218,1.2444,1.2708,1.2972,1.3235,1.3498,1.3752,1.4006,1.4268,1.467,1.5062,1.5593,1.6244,1.6494,1.6882,1.74,1.7518,1.7916,1.8431,1.8571,1.8828,1.92,1.9328,1.9584,1.9966,2.0221,2.0602,2.0856,2.0856,2.0856,2.0982,2.1109,2.1109,2.1109,2.1109,2.1109,2.1109,2.1362,2.174,2.2104,2.2355,2.2731,2.323,2.3728,0.0,2.3794,2.4671,2.5238,2.5605,2.6017,2.6692,2.7194,2.7659,2.79,2.814,2.8618,2.8856,2.8975,2.8975,2.8636,2.8277,2.7762,2.7401,2.6918,2.6449,2.6083,2.5717,2.5226,2.461,2.4239,2.3852,2.3604,2.3106,2.2606,2.248,2.2104,2.1614,2.1488,2.1235,2.1109,2.1109,2.1109,2.1109,2.1109,2.1109,2.1109,0.5647,0.6049,0.6317,0.6723,0.7121,0.7522,0.8056,0.8189,0.8323,0.8717,0.8984,0.925,0.9383,0.9921,1.0193,1.0326,1.0591,1.0717,1.0717,1.0717,1.0717,1.0717,1.085,1.0982,1.1247,1.138,1.1512,1.1916,1.2173,1.2305,1.2444,1.284,1.3104,1.3367,1.363,1.3884,1.3997,1.4539,1.4931,1.5183,1.5724,1.6244,1.6753,1.7012,1.74,1.7916,1.8173,1.8431,1.8828,1.8828,1.92,1.9584,1.9711,1.9966,2.0361,2.0615,2.0856,2.1109,2.1109,2.1109,2.1109,2.1109,2.1109,2.1109,2.1109,2.1109,2.1235,2.1488,2.1853,2.223,2.248,2.2856,2.323,2.3743,2.3976,2.4239,2.4734,2.5594,2.6067,2.6067,2.6692,2.7315,2.7779,2.79,2.8259,2.8755,2.8993,2.8975,2.8975,2.8755,2.8517,2.814,2.7779,2.7401,2.6935,2.6449,2.6083,2.561,2.498,2.461,2.4239,2.3852,2.3355,2.2856,2.2731,2.2355,2.1853,2.174,2.1488,2.1249,2.1109,2.1109,2.1109,2.1109,2.1109,2.1109,0.6455,0.6719,0.7121,0.7393,0.7794,0.8056,0.8056,0.8323,0.8723,0.9117,0.9117,0.9383,1.006,1.0193,1.0326,1.0724,1.0717,1.0717,1.0717,1.0717,1.0717,1.0717,1.0982,1.1247,1.1247,1.1644,1.1916,1.2305,1.2312,1.2437,1.284,1.3235,1.3367,1.3498,1.4146,1.439,1.4241,1.5192,1.5583,1.5684,1.6644,1.7033,1.7001,1.74,1.7927,1.8571,1.8571,1.8828,1.92,1.9444,1.9571,1.9711,1.9979,2.0361,2.0602,2.0982,2.1109,2.1109,2.1109,2.1109,2.1109,2.1109,2.1109,2.1109,2.1109,2.1109,2.1235,2.1488,2.1853,2.223,2.248,2.2856,2.3355,2.3976,2.4115,2.4363,2.498,2.5717,2.6067,2.6067,2.6692,2.7194,2.7521,2.7762,2.814,2.8517,2.8874,2.8975,2.8975,2.8975,2.8874,2.8517,2.814,2.7882,2.7521,2.6935,2.6205,2.561,2.5226,2.498,2.461,2.3867,2.3604,2.3604,2.2856,2.2606,2.2606,2.1866,2.1642,2.1543,2.1249,2.1109,2.1109,2.1109,2.1109,2.1109,0.7057,0.7274,0.7631,0.7907,0.8112,0.8189,0.8456,0.8717,0.8984,0.9117,0.9522,0.9921,1.0193,1.0459,1.0585,1.0717,1.0717,1.0717,1.0717,1.0982,1.0982,1.0982,1.1115,1.138,1.1909,1.2041,1.2312,1.2708,1.2972,1.3104,1.3235,1.3621,1.3884,1.4146,1.4259,1.452,1.5192,1.5854,1.6114,1.6234,1.6753,1.7141,1.74,1.8056,1.8442,1.8571,1.8828,1.92,1.9456,1.9571,1.9966,2.0348,2.0729,2.0856,2.0982,2.1109,2.1109,2.1109,2.1109,2.1109,2.1109,2.1109,2.1109,2.1109,2.1109,2.1235,2.1614,2.1866,2.223,2.2606,2.2856,2.2981,2.3355,2.3976,2.4115,2.4363,2.498,2.5717,2.6067,2.6067,2.6692,2.7315,2.7779,2.79,2.8259,2.8874,2.8975,2.8975,2.8975,2.8975,2.8874,2.8517,2.8397,2.802,2.7521,2.6935,2.6327,2.5961,2.5594,2.5103,2.461,2.4115,2.3852,2.3604,2.3106,2.2856,2.2606,2.2383,2.202,2.1543,2.1529,2.1262,2.1109,2.1109,2.1109,2.1109,0.7697,0.7917,0.8148,0.8428,0.8507,0.8715,0.88,0.9192,0.9442,0.9528,0.9921,1.0193,1.0326,1.0585,1.0717,1.0717,1.0717,1.0717,1.085,1.1115,1.138,1.1644,1.1644,1.1776,1.2305,1.2437,1.2708,1.3104,1.3235,1.3498,1.363,1.4146,1.4408,1.467,1.4782,1.5303,1.5854,1.6374,1.6764,1.7023,1.7271,1.7658,1.7927,1.8442,1.8699,1.9072,1.92,1.9456,1.9839,1.9966,2.0348,2.0856,2.0982,2.1109,2.1109,2.1109,2.1109,2.1109,2.1109,2.1109,2.1109,2.1109,2.1109,2.1109,2.1235,2.1488,2.174,2.223,2.248,2.2731,2.2981,2.323,2.3479,2.3976,2.4239,2.4487,2.5226,2.5717,2.6189,2.6327,2.6813,2.7315,2.79,2.802,2.8259,2.8993,2.8975,2.8975,2.8975,2.8975,2.8874,2.8755,2.8517,2.8277,2.79,2.7297,2.6692,2.6327,2.5961,2.5472,2.498,2.4487,2.41,2.3728,2.3479,2.3106,2.2731,2.2634,2.2244,2.1727,2.1655,2.1402,2.1109,2.1109,2.1109,2.1109,0.8418,0.8408,0.8542,0.8965,0.9237,0.9463,0.9348,0.9733,0.9961,1.0245,1.0232,1.0358,1.0758,1.0758,1.0758,1.0758,1.0758,1.0891,1.1157,1.129,1.1688,1.2351,1.2336,1.246,1.246,1.2716,1.3104,1.3498,1.3498,1.363,1.4006,1.467,1.4931,1.4931,1.5714,1.6104,1.6353,1.6872,1.7271,1.7798,1.7916,1.8302,1.8571,1.8699,1.9072,1.9571,1.9571,1.9839,2.0234,2.0488,2.0856,2.1109,2.1109,2.1109,2.1109,2.1109,2.1109,2.1109,2.1109,2.1122,2.1149,2.1149,2.1162,2.1303,2.1502,2.1614,2.1853,2.248,2.2606,2.2731,2.3106,2.3355,2.3728,2.4115,2.4487,2.4857,2.5488,2.5961,2.6205,2.6571,2.6952,2.7315,2.79,2.802,2.8379,2.8975,2.8975,2.8975,2.8975,2.8975,2.8975,2.8975,2.8755,2.8517,2.8517,2.79,2.728,2.6692,2.6327,2.5961,2.561,2.498,2.4487,2.4115,2.3728,2.3479,2.3106,2.276,2.2452,2.2117,2.1754,2.1402,2.1109,2.1109,2.1109,2.1109,0.8652,0.8871,0.9095,0.9519,0.9573,0.9637,0.9883,1.0285,1.0416,1.0522,1.0789,1.1063,1.107,1.107,1.107,1.107,1.1337,1.1474,1.161,1.2157,1.2573,1.271,1.3116,1.3303,1.3303,1.3302,1.3498,1.3752,1.4015,1.4408,1.467,1.5202,1.5453,1.5434,1.5964,1.6483,1.6872,1.7411,1.7669,1.7916,1.8302,1.8571,1.8699,1.92,1.9456,1.9571,1.9839,2.0234,2.0475,2.0856,2.0982,2.1109,2.1109,2.1109,2.1109,2.1109,2.1109,2.1109,2.1109,2.1283,2.1456,2.1456,2.1889,2.2059,2.171,2.1992,2.2355,2.2606,2.2856,2.3106,2.3479,2.3604,2.3852,2.4363,2.4734,2.5103,2.5488,2.6083,2.6571,2.6571,2.7056,2.7539,2.802,2.8498,2.8856,2.8993,2.8975,2.8975,2.8975,2.8975,2.8975,2.8975,2.8975,2.8755,2.8517,2.8397,2.7797,2.6952,2.6692,2.6205,2.561,2.5226,2.4857,2.4487,2.3867,2.3604,2.3479,2.312,2.2827,2.2409,2.2174,2.1823,2.1402,2.1249,2.1109,2.1109,0.9302,0.9402,0.9644,1.0072,1.0155,1.0229,1.0442,1.0715,1.0968,1.0895,1.1027,1.1165,1.1165,1.1165,1.1303,1.1441,1.1572,1.1848,1.2268,1.2544,1.2956,1.3368,1.3551,1.3908,1.4305,1.4352,1.4334,1.4137,1.4408,1.48,1.5202,1.5724,1.6104,1.6343,1.6742,1.713,1.7518,1.7927,1.8185,1.8302,1.8688,1.8956,1.9072,1.9456,1.9914,2.0284,2.0426,2.0902,2.1278,2.1523,2.1523,2.1523,2.1523,2.1523,2.1523,2.1523,2.1523,2.1523,2.1523,2.1643,2.1894,2.2011,2.2394,2.2683,2.2365,2.268,2.3064,2.3319,2.3574,2.3828,2.4082,2.4336,2.473,2.5219,2.5596,2.5988,2.6487,2.6844,2.7216,2.7586,2.7833,2.8324,2.8814,2.9319,2.9562,2.9562,2.9683,2.9804,2.9804,2.9804,2.9804,2.9804,2.9683,2.9441,2.9319,2.9197,2.8742,2.8061,2.728,2.6587,2.61,2.561,2.5119,2.4857,2.4363,2.3852,2.3604,2.3384,2.3106,2.2548,2.2369,2.2034,2.1543,2.1543,2.1543,2.1484,0.9879,1.0023,1.0167,1.0455,1.075,1.1005,1.0883,1.1288,1.1382,1.126,1.124,1.124,1.124,1.1379,1.1518,1.1795,1.1934,1.2212,1.2904,1.3043,1.3319,1.4018,1.4122,1.4516,1.5192,1.5437,1.5385,1.464,1.5035,1.5439,1.5843,1.6347,1.6739,1.725,1.7521,1.7922,1.8441,1.8571,1.8829,1.8959,1.9217,1.9591,1.9848,1.9848,2.0373,2.1098,2.1098,2.1516,2.1991,2.1991,2.1991,2.1991,2.1991,2.1991,2.1991,2.1991,2.1991,2.1991,2.1991,2.2017,2.219,2.2454,2.289,2.3182,2.3182,2.3505,2.3826,2.4086,2.4476,2.4605,2.4735,2.5267,2.5782,2.628,2.6536,2.7046,2.7664,2.779,2.8043,2.8672,2.8797,2.9047,2.9689,3.0062,3.0204,3.0328,3.0556,3.068,3.0803,3.0803,3.0803,3.0803,3.0433,3.0328,3.0328,2.9937,2.965,2.9202,2.8149,2.7193,2.6692,2.61,2.561,2.5103,2.4857,2.4394,2.3818,2.3768,2.3333,2.2966,2.2827,2.2355,2.1809,2.2043,2.2126,2.212,1.0311,1.0455,1.0599,1.0894,1.09,1.1181,1.1449,1.1586,1.1579,1.1558,1.1558,1.1558,1.1558,1.1844,1.213,1.213,1.2693,1.3113,1.3255,1.3831,1.4257,1.4398,1.4806,1.5274,1.5819,1.5913,1.5924,1.5866,1.6281,1.6695,1.6964,1.6789,1.7181,1.8017,1.8562,1.9119,1.9808,1.9374,1.9627,2.017,2.017,2.0435,2.0831,2.1082,2.1371,2.1411,2.1793,2.1951,2.1991,2.1991,2.1991,2.1991,2.1991,2.1991,2.1991,2.1991,2.1991,2.1991,2.1991,2.2164,2.2499,2.2767,2.3361,2.3975,2.4232,2.4216,2.4086,2.4476,2.4605,2.4735,2.5396,2.5654,2.5911,2.6536,2.6918,2.7317,2.768,2.8169,2.8546,2.8672,2.9172,2.9689,3.008,3.0204,3.0328,3.0556,3.068,3.0803,3.1172,3.1172,3.1172,3.1172,3.0803,3.068,3.068,3.0309,2.9919,2.9599,2.9421,2.8553,2.7073,2.6692,2.6083,2.5488,2.5226,2.503,2.481,2.4314,2.4179,2.4283,2.3693,2.326,2.2734,2.2191,2.2159,2.2334,1.075,1.075,1.0894,1.1332,1.1332,1.1332,1.1619,1.1619,1.1619,1.1619,1.1619,1.1619,1.1619,1.1907,1.2338,1.276,1.3039,1.3468,1.3904,1.4332,1.4617,1.5044,1.553,1.6037,1.6308,1.6917,1.7144,1.742,1.7172,1.7037,1.7016,1.7421,1.8094,1.8921,1.9067,1.948,2.0039,2.0014,2.0135,2.0414,2.068,2.0946,2.133,2.1463,2.1687,2.1991,2.2418,2.2472,2.2472,2.2472,2.2472,2.2472,2.2472,2.2472,2.2472,2.2472,2.2472,2.2472,2.2472,2.27,2.3079,2.3486,2.3854,2.436,2.4781,2.4832,2.5026,2.5158,2.5291,2.5555,2.6215,2.6609,2.7001,2.7524,2.793,2.8303,2.8802,2.9188,2.9445,2.9829,3.0338,3.0719,3.1117,3.1135,3.1243,3.1621,3.1872,3.1979,3.2104,3.2104,3.2104,3.2104,3.1872,3.1621,3.1369,3.1243,3.088,3.0265,3.0139,2.9351,2.7937,2.7689,2.7193,2.6694,2.6194,2.5913,2.5675,2.4933,2.4615,2.4577,2.4057,2.3651,2.3238,2.2781,2.2559,2.2696]},{"header":{"parameterUnit":"m.s-1","parameterCategory":1,"la1":30.6,"la2":28.766,"lo1":-90.7593,"lo2":-88.6598,"dy":0.0162,"dx":0.0183,"nx":116,"ny":114,"refTime":"2024-02-14T06:00:00:Z","depth":0,"parameterNumber":3,"parameterNumberName":"V-component_of_WINDS"},"data":[0.0,0.0,0.0,0.0,0.0,0.0,0.0,0.0,0.0,0.0,0.0,0.0,0.0,0.0,0.0,0.0,0.0,0.0,0.0,0.0,0.0,0.0,0.0,0.0,0.0,0.0,0.0,0.0,0.0,0.0,0.0,0.0,0.0,0.0,0.0,0.0,0.0,0.0,0.0,0.0,0.0,0.0,0.0,0.0,0.0,0.0,0.0,0.0,0.0,0.0,0.0,0.0,0.0,0.0,0.0,0.0,0.0,0.0,0.0,0.0,0.0,0.0,0.0,0.0,0.0,0.0,0.0,0.0,0.0,0.0,0.0,0.0,0.0,0.0,0.0,0.0,0.0,0.0,0.0,0.0,0.0,0.0,0.0,0.0,0.0,0.0,0.0,0.0,0.0,0.0,0.0,0.0,0.0,0.0,0.0,0.0,0.0,0.0,0.0,0.0,0.0,0.0,0.0,0.0,0.0,0.0,0.0,0.0,0.0,0.0,0.0,0.0,0.0,0.0,0.0,0.0,0.0,0.0,0.0,0.0,0.0,0.0,0.0,0.0,0.0,0.0,0.0,0.0,0.0,0.0,0.0,0.0,0.0,0.0,0.0,0.0,0.0,0.0,0.0,0.0,0.0,0.0,0.0,0.0,0.0,0.0,0.0,0.0,0.0,0.0,0.0,0.0,0.0,0.0,0.0,0.0,0.0,0.0,0.0,0.0,0.0,0.0,0.0,0.0,0.0,0.0,0.0,0.0,0.0,0.0,0.0,0.0,0.0,0.0,0.0,0.0,0.0,0.0,0.0,0.0,0.0,0.0,0.0,0.0,0.0,0.0,0.0,0.0,0.0,0.0,0.0,0.0,0.0,0.0,0.0,0.0,0.0,0.0,0.0,0.0,0.0,0.0,0.0,0.0,0.0,0.0,0.0,0.0,0.0,0.0,0.0,0.0,0.0,0.0,0.0,0.0,0.0,0.0,0.0,0.0,0.0,0.0,0.0,0.0,0.0,0.0,0.0,0.0,0.0,0.0,0.0,0.0,0.0,0.0,0.0,0.0,0.0,0.0,0.0,0.0,0.0,0.0,0.0,0.0,0.0,0.0,0.0,0.0,0.0,0.0,0.0,0.0,0.0,0.0,0.0,0.0,0.0,0.0,0.0,0.0,0.0,0.0,0.0,0.0,0.0,0.0,0.0,0.0,0.0,0.0,0.0,0.0,0.0,0.0,0.0,0.0,0.0,0.0,0.0,0.0,0.0,0.0,0.0,0.0,0.0,0.0,0.0,0.0,0.0,0.0,0.0,0.0,0.0,0.0,0.0,0.0,0.0,0.0,0.0,0.0,0.0,0.0,0.0,0.0,0.0,0.0,0.0,0.0,0.0,0.0,0.0,0.0,0.0,0.0,0.0,0.0,0.0,0.0,0.0,0.0,0.0,0.0,0.0,0.0,0.0,0.0,0.0,0.0,0.0,0.0,0.0,0.0,0.0,0.0,0.0,0.0,0.0,0.0,0.0,0.0,0.0,0.0,0.0,0.0,0.0,0.0,0.0,0.0,0.0,0.0,0.0,0.0,0.0,0.0,0.0,0.0,0.0,0.0,0.0,0.0,0.0,0.0,0.0,0.0,0.0,0.0,0.0,0.0,0.0,0.0,0.0,0.0,0.0,0.0,0.0,0.0,0.0,0.0,0.0,0.0,0.0,0.0,0.0,0.0,0.0,0.0,0.0,0.0,0.0,0.0,0.0,0.0,0.0,0.0,0.0,0.0,0.0,0.0,0.0,0.0,0.0,0.0,0.0,0.0,0.0,0.0,0.0,0.0,0.0,0.0,0.0,0.0,0.0,0.0,0.0,0.0,0.0,0.0,0.0,0.0,0.0,0.0,0.0,0.0,0.0,0.0,0.0,0.0,0.0,0.0,0.0,0.0,0.0,0.0,0.0,0.0,0.0,0.0,0.0,0.0,0.0,0.0,0.0,0.0,0.0,0.0,0.0,0.0,0.0,0.0,0.0,0.0,0.0,0.0,0.0,0.0,0.0,0.0,0.0,0.0,0.0,0.0,0.0,0.0,0.0,0.0,0.0,0.0,0.0,0.0,0.0,0.0,0.0,0.0,0.0,0.0,0.0,0.0,0.0,0.0,0.0,0.0,0.0,0.0,0.0,0.0,0.0,0.0,0.0,0.0,0.0,0.0,0.0,0.0,0.0,0.0,0.0,0.0,0.0,0.0,0.0,0.0,0.0,0.0,0.0,0.0,0.0,0.0,0.0,0.0,0.0,0.0,0.0,0.0,0.0,0.0,0.0,0.0,0.0,0.0,0.0,0.0,0.0,0.0,0.0,0.0,0.0,0.0,0.0,0.0,0.0,0.0,0.0,0.0,0.0,0.0,0.0,0.0,0.0,0.0,0.0,0.0,0.0,0.0,0.0,0.0,0.0,0.0,0.0,0.0,0.0,0.0,0.0,0.0,0.0,0.0,0.0,0.0,0.0,0.0,0.0,0.0,0.0,0.0,0.0,0.0,0.0,0.0,0.0,0.0,0.0,0.0,0.0,0.0,0.0,0.0,0.0,0.0,0.0,0.0,0.0,0.0,0.0,0.0,0.0,0.0,0.0,0.0,0.0,0.0,0.0,0.0,0.0,0.0,0.0,0.0,0.0,0.0,0.0,0.0,0.0,0.0,0.0,0.0,0.0,0.0,0.0,0.0,0.0,0.0,0.0,0.0,0.0,0.0,0.0,0.0,0.0,0.0,0.0,0.0,0.0,0.0,0.0,0.0,0.0,0.0,0.0,0.0,0.0,0.0,0.0,0.0,0.0,0.0,0.0,0.0,0.0,0.0,0.0,0.0,0.0,0.0,0.0,0.0,0.0,0.0,0.0,0.0,0.0,0.0,0.0,0.0,0.0,0.0,0.0,0.0,0.0,0.0,0.0,0.0,0.0,0.0,0.0,0.0,0.0,0.0,0.0,0.0,0.0,0.0,0.0,0.0,0.0,0.0,0.0,0.0,0.0,0.0,0.0,0.0,0.0,0.0,0.0,0.0,0.0,0.0,0.0,0.0,0.0,0.0,0.0,0.0,0.0,0.0,0.0,0.0,0.0,0.0,0.0,0.0,0.0,0.0,0.0,0.0,0.0,0.0,0.0,0.0,0.0,0.0,0.0,0.0,0.0,0.0,0.0,0.0,0.0,0.0,0.0,0.0,0.0,0.0,0.0,0.0,0.0,0.0,0.0,0.0,0.0,0.0,0.0,0.0,0.0,0.0,0.0,0.0,0.0,0.0,0.0,0.0,0.0,0.0,0.0,0.0,0.0,0.0,0.0,0.0,0.0,0.0,0.0,0.0,0.0,0.0,0.0,0.0,0.0,0.0,0.0,0.0,0.0,0.0,0.0,0.0,0.0,0.0,0.0,0.0,0.0,0.0,0.0,0.0,0.0,0.0,0.0,0.0,0.0,0.0,0.0,0.0,0.0,0.0,0.0,0.0,0.0,0.0,0.0,0.0,0.0,0.0,0.0,0.0,0.0,0.0,0.0,0.0,0.0,0.0,0.0,0.0,0.0,0.0,0.0,0.0,0.0,0.0,0.0,0.0,0.0,0.0,0.0,0.0,0.0,0.0,0.0,0.0,0.0,0.0,0.0,0.0,0.0,0.0,0.0,0.0,0.0,0.0,0.0,0.0,0.0,0.0,0.0,0.0,0.0,0.0,0.0,0.0,0.0,0.0,0.0,0.0,0.0,0.0,0.0,0.0,0.0,0.0,0.0,0.0,0.0,0.0,0.0,0.0,0.0,0.0,0.0,0.0,0.0,0.0,0.0,0.0,0.0,0.0,0.0,0.0,0.0,0.0,0.0,0.0,0.0,0.0,0.0,0.0,0.0,0.0,0.0,0.0,0.0,0.0,0.0,0.0,0.0,0.0,0.0,0.0,0.0,0.0,0.0,0.0,0.0,0.0,0.0,0.0,0.0,0.0,0.0,0.0,0.0,0.0,0.0,0.0,0.0,0.0,0.0,0.0,0.0,0.0,0.0,0.0,0.0,0.0,0.0,0.0,0.0,0.0,0.0,0.0,0.0,0.0,0.0,0.0,0.0,0.0,0.0,0.0,0.0,0.0,0.0,0.0,0.0,0.0,0.0,0.0,0.0,0.0,0.0,0.0,0.0,0.0,0.0,0.0,0.0,0.0,0.0,0.0,0.0,0.0,0.0,0.0,0.0,0.0,0.0,0.0,0.0,0.0,0.0,0.0,0.0,0.0,0.0,0.0,0.0,0.0,0.0,0.0,0.0,0.0,0.0,0.0,0.0,0.0,0.0,0.0,0.0,0.0,0.0,0.0,0.0,0.0,0.0,0.0,0.0,0.0,0.0,0.0,0.0,0.0,0.0,0.0,0.0,0.0,0.0,0.0,0.0,0.0,0.0,0.0,0.0,0.0,0.0,0.0,0.0,0.0,0.0,0.0,0.0,0.0,0.0,0.0,0.0,0.0,0.0,0.0,0.0,0.0,0.0,0.0,0.0,0.0,0.0,0.0,0.0,0.0,0.0,0.0,0.0,0.0,0.0,0.0,0.0,0.0,0.0,0.0,0.0,0.0,0.0,0.0,0.0,0.0,0.0,0.0,0.0,0.0,0.0,0.0,0.0,0.0,0.0,0.0,0.0,0.0,0.0,0.0,0.0,0.0,0.0,0.0,0.0,0.0,0.0,0.0,0.0,0.0,0.0,0.0,0.0,0.0,0.0,0.0,0.0,0.0,0.0,0.0,0.0,0.0,0.0,0.0,0.0,0.0,0.0,0.0,0.0,0.0,0.0,0.0,0.0,0.0,0.0,0.0,0.0,0.0,0.0,0.0,0.0,0.0,0.0,0.0,0.0,0.0,0.0,0.0,0.0,0.0,0.0,0.0,0.0,0.0,0.0,0.0,0.0,0.0,0.0,0.0,0.0,0.0,0.0,0.0,0.0,0.0,0.0,0.0,0.0,0.0,0.0,0.0,0.0,0.0,0.0,0.0,0.0,0.0,0.0,0.0,0.0,0.0,0.0,0.0,0.0,0.0,0.0,0.0,0.0,0.0,0.0,0.0,0.0,0.0,0.0,0.0,0.0,0.0,0.0,0.0,0.0,0.0,0.0,0.0,0.0,0.0,0.0,0.0,0.0,0.0,0.0,0.0,0.0,0.0,0.0,0.0,0.0,0.0,0.0,0.0,0.0,0.0,0.0,0.0,0.0,0.0,0.0,0.0,0.0,0.0,0.0,0.0,0.0,0.0,0.0,0.0,0.0,0.0,0.0,0.0,0.0,0.0,0.0,0.0,0.0,0.0,0.0,0.0,0.0,0.0,0.0,0.0,0.0,0.0,0.0,0.0,0.0,0.0,0.0,0.0,0.0,0.0,0.0,0.0,0.0,0.0,0.0,0.0,0.0,0.0,0.0,0.0,0.0,0.0,0.0,0.0,0.0,0.0,0.0,0.0,0.0,0.0,0.0,0.0,0.0,0.0,0.0,0.0,0.0,0.0,0.0,0.0,0.0,0.0,0.0,0.0,0.0,0.0,0.0,0.0,0.0,0.0,0.0,0.0,0.0,0.0,0.0,0.0,0.0,0.0,0.0,0.0,0.0,0.0,0.0,0.0,0.0,0.0,0.0,0.0,0.0,0.0,0.0,0.0,0.0,0.0,0.0,0.0,0.0,0.0,0.0,0.0,0.0,0.0,0.0,0.0,0.0,0.0,0.0,0.0,0.0,0.0,0.0,0.0,0.0,0.0,0.0,0.0,0.0,0.0,0.0,0.0,0.0,0.0,0.0,0.0,0.0,0.0,0.0,0.0,0.0,0.0,0.0,0.0,0.0,0.0,0.0,0.0,0.0,0.0,0.0,0.0,0.0,0.0,0.0,0.0,0.0,0.0,0.0,0.0,0.0,0.0,0.0,0.0,0.0,0.0,0.0,0.0,0.0,0.0,0.0,0.0,0.0,0.0,0.0,0.0,0.0,0.0,0.0,0.0,0.0,0.0,0.0,0.0,0.0,0.0,0.0,0.0,0.0,0.0,0.0,0.0,0.0,0.0,0.0,0.0,0.0,0.0,0.0,0.0,0.0,0.0,0.0,0.0,0.0,0.0,0.0,0.0,3.5241,0.0,0.0,0.0,0.0,0.0,0.0,0.0,0.0,0.0,0.0,0.0,0.0,0.0,0.0,0.0,0.0,0.0,0.0,0.0,0.0,0.0,0.0,0.0,0.0,0.0,0.0,0.0,1.9251,1.9545,2.0025,2.0128,2.0546,2.1362,2.1541,2.2028,2.2823,2.293,2.3387,2.4116,2.5401,2.7602,3.0616,2.8582,2.6723,2.5152,0.0,0.0,0.0,0.0,0.0,0.0,0.0,0.0,0.0,0.0,0.0,0.0,0.0,0.0,0.0,0.0,0.0,0.0,0.0,0.0,0.0,0.0,0.0,0.0,0.0,0.0,0.0,0.0,0.0,0.0,0.0,0.0,0.0,0.0,0.0,0.0,0.0,0.0,0.0,0.0,0.0,0.0,0.0,0.0,0.0,0.0,0.0,0.0,0.0,0.0,0.0,0.0,0.0,0.0,0.0,0.0,0.0,0.0,0.0,0.0,0.0,0.0,0.0,0.0,0.0,0.0,0.0,0.0,0.0,0.0,0.0,3.6317,0.0,0.0,0.0,0.0,0.0,0.0,0.0,0.0,0.0,0.0,0.0,0.0,0.0,0.0,0.0,0.0,0.0,0.0,0.0,0.0,0.0,0.0,0.0,2.0254,2.0454,2.0595,2.0852,2.1334,2.2111,2.2176,2.2531,2.3342,2.3547,2.3974,2.4655,2.483,2.5431,2.6491,2.9482,3.2412,3.5324,3.5324,3.3493,3.0032,2.7695,0.0,0.0,0.0,0.0,0.0,0.0,0.0,0.0,0.0,0.0,0.0,0.0,0.0,0.0,0.0,0.0,0.0,0.0,0.0,0.0,0.0,0.0,0.0,0.0,0.0,0.0,0.0,0.0,0.0,0.0,0.0,0.0,0.0,0.0,0.0,0.0,0.0,0.0,0.0,0.0,0.0,0.0,0.0,0.0,0.0,0.0,0.0,0.0,0.0,0.0,0.0,0.0,0.0,0.0,0.0,0.0,0.0,0.0,0.0,0.0,0.0,0.0,0.0,4.1763,4.1879,4.1994,4.211,4.335,4.5189,4.1498,4.0743,4.1844,0.0,0.0,0.0,0.0,0.0,0.0,0.0,0.0,0.0,0.0,0.0,0.0,0.0,0.0,0.0,0.0,0.0,0.0,0.0,0.0,0.0,0.0,2.1888,2.2406,2.2595,2.3316,2.3842,2.4034,2.4096,2.4495,2.5304,2.5338,2.5742,2.6521,2.6554,2.7708,3.004,3.5174,3.8285,3.9451,3.9503,3.9215,3.8521,3.5513,3.4172,3.4047,0.0,0.0,0.0,0.0,0.0,0.0,0.0,0.0,0.0,0.0,0.0,0.0,0.0,0.0,0.0,0.0,0.0,0.0,0.0,0.0,0.0,0.0,0.0,0.0,0.0,0.0,0.0,0.0,0.0,0.0,0.0,0.0,0.0,0.0,0.0,0.0,0.0,0.0,0.0,0.0,0.0,3.6369,3.4694,0.0,0.0,0.0,0.0,0.0,0.0,0.0,0.0,0.0,0.0,0.0,0.0,0.0,0.0,4.6723,4.687,4.708,4.7327,4.7389,4.7476,4.7533,4.7624,4.7861,4.8238,4.7617,0.0,4.324,4.2594,0.0,0.0,0.0,0.0,0.0,0.0,0.0,0.0,0.0,0.0,0.0,0.0,0.0,0.0,0.0,0.0,0.0,0.0,0.0,0.0,0.0,2.4452,2.57,2.6422,2.8076,2.8732,2.7827,2.7787,2.7547,2.6964,2.6993,2.7163,2.7512,2.9382,3.2431,3.6755,3.9292,4.1618,4.3692,4.3734,4.3948,4.4342,4.2974,4.0186,3.64,3.5079,0.0,0.0,0.0,0.0,0.0,0.0,0.0,0.0,0.0,0.0,0.0,0.0,0.0,0.0,0.0,0.0,0.0,0.0,0.0,0.0,0.0,0.0,0.0,0.0,0.0,0.0,0.0,0.0,0.0,0.0,0.0,0.0,0.0,0.0,0.0,0.0,0.0,0.0,0.0,3.4339,3.604,3.4339,3.5498,3.5241,0.0,0.0,0.0,0.0,0.0,0.0,0.0,0.0,0.0,4.4059,4.4289,4.5834,4.8948,4.9104,4.9459,5.0014,5.0073,5.0126,5.0168,5.0186,5.0195,5.0222,5.02,4.9006,4.695,4.4986,4.2529,3.9792,0.0,0.0,0.0,0.0,0.0,3.2815,0.0,0.0,0.0,0.0,0.0,0.0,0.0,0.0,0.0,0.0,0.0,0.0,2.5171,2.7788,2.9819,3.0656,3.2559,3.2919,3.1124,3.1016,3.014,2.8237,2.8434,2.8542,2.8542,3.248,3.6979,4.205,4.2777,4.4564,4.7296,4.7296,4.7696,4.8462,4.8462,4.5269,3.9783,3.8963,3.7573,3.583,0.0,0.0,0.0,0.0,0.0,0.0,0.0,0.0,0.0,0.0,0.0,0.0,0.0,0.0,0.0,0.0,0.0,0.0,0.0,0.0,0.0,0.0,0.0,0.0,0.0,0.0,0.0,0.0,0.0,0.0,0.0,0.0,0.0,0.0,0.0,0.0,0.0,3.4925,3.6667,3.5871,3.7544,3.7701,0.0,0.0,0.0,0.0,0.0,0.0,4.2699,4.2343,4.3327,4.6018,4.6176,4.7505,5.0098,5.0221,5.0628,5.1341,5.1336,5.1359,5.1406,5.1403,5.1346,5.1302,5.131,5.0897,4.9982,4.714,4.5364,4.4145,4.1877,4.0025,3.8552,3.8501,3.7697,3.6827,0.0,0.0,0.0,0.0,0.0,0.0,0.0,0.0,0.0,0.0,0.0,2.8505,2.8542,3.2188,3.4706,3.4866,3.5652,3.5135,3.281,3.2613,3.1507,2.9044,2.9696,3.0075,3.0075,3.5616,4.0197,4.3586,4.5983,4.7978,4.9602,4.9602,5.0083,5.0822,5.0822,4.9365,4.6735,4.3743,4.2405,4.1787,3.6489,0.0,0.0,0.0,0.0,0.0,0.0,0.0,0.0,0.0,0.0,0.0,0.0,0.0,0.0,0.0,0.0,0.0,0.0,0.0,0.0,0.0,0.0,0.0,0.0,0.0,0.0,0.0,0.0,0.0,0.0,0.0,0.0,0.0,0.0,0.0,0.0,0.0,0.0,4.2112,4.2448,0.0,0.0,0.0,0.0,4.4386,4.268,4.4018,4.976,4.7918,4.7889,5.0569,5.0724,5.0928,5.1234,5.1239,5.1284,5.1396,5.1402,5.1406,5.1391,5.1382,5.1352,5.1281,5.1304,5.1201,5.0959,4.9885,4.7395,4.4273,4.3866,4.1987,3.9752,4.1579,4.1849,4.1505,0.0,0.0,0.0,0.0,0.0,0.0,0.0,0.0,2.4284,2.4856,2.7432,2.9671,3.0856,3.5138,3.8203,3.8826,4.0514,4.0525,3.8126,3.6381,3.4614,3.267,3.1358,3.262,3.6807,4.0514,4.4274,4.8087,4.9048,5.0056,5.114,5.114,5.1289,5.1551,5.1551,5.1076,5.012,4.8088,4.6029,4.3906,4.1825,3.8798,0.0,0.0,0.0,0.0,0.0,0.0,0.0,0.0,0.0,0.0,0.0,0.0,0.0,0.0,0.0,0.0,0.0,0.0,0.0,0.0,0.0,0.0,0.0,0.0,0.0,0.0,0.0,0.0,0.0,0.0,0.0,0.0,0.0,0.0,0.0,0.0,0.0,4.1665,4.3058,0.0,4.2951,4.364,4.4683,4.601,4.7511,4.9311,5.152,5.1386,5.1735,5.2775,5.2883,5.2955,5.3045,5.3025,5.3039,5.3085,5.3083,5.3068,5.3006,5.3025,5.2668,5.2056,5.2086,5.1714,5.1076,5.0685,4.9714,4.8392,4.8116,4.6991,4.5508,4.6006,4.5574,4.4736,0.0,0.0,0.0,0.0,0.0,0.0,0.0,0.0,2.5242,2.6968,2.9653,3.2295,3.466,3.8854,4.1737,4.2357,4.3862,4.336,4.0008,3.8466,3.6419,3.3639,3.328,3.6071,4.2398,4.4433,4.7156,5.071,5.1073,5.1706,5.246,5.246,5.2611,5.2912,5.2881,5.2698,5.2333,5.1335,4.9451,4.7011,4.5764,4.3004,3.9436,0.0,0.0,0.0,0.0,0.0,0.0,0.0,0.0,0.0,0.0,0.0,0.0,0.0,0.0,0.0,0.0,0.0,0.0,0.0,0.0,0.0,0.0,0.0,0.0,0.0,0.0,0.0,0.0,0.0,0.0,0.0,0.0,0.0,0.0,0.0,4.3476,4.2896,4.5003,4.6315,4.5753,4.7274,4.8488,4.8914,5.1198,5.2592,5.2685,5.3313,5.3724,5.3827,5.3897,5.3977,5.4008,5.3981,5.3984,5.3983,5.4008,5.3947,5.3883,5.3904,5.3549,5.2933,5.2933,5.258,5.1942,5.1618,5.1401,5.1159,5.0619,4.9901,4.92,4.8926,4.8265,4.7473,0.0,0.0,0.0,0.0,0.0,0.0,0.0,2.5018,2.6237,2.9715,3.3111,3.6527,3.9972,4.3273,4.5246,4.5304,4.5342,4.3216,3.8268,3.8601,3.6791,3.1819,3.5585,4.0477,4.6221,4.7137,4.8719,5.1196,5.203,5.2864,5.3661,5.3661,5.4116,5.4882,5.4829,5.4345,5.3513,5.3396,5.2686,5.1332,4.7988,4.655,4.5782,0.0,0.0,0.0,0.0,0.0,0.0,0.0,0.0,0.0,0.0,0.0,0.0,0.0,0.0,0.0,0.0,0.0,0.0,0.0,0.0,0.0,0.0,0.0,0.0,0.0,0.0,0.0,0.0,0.0,0.0,0.0,0.0,0.0,4.1491,4.3391,4.5382,4.642,4.8705,5.0593,5.165,5.1813,5.2261,5.3242,5.3459,5.3567,5.365,5.3807,5.3914,5.3978,5.4045,5.4076,5.4083,5.406,5.4061,5.4093,5.4086,5.4029,5.3988,5.3988,5.3923,5.3818,5.3818,5.3779,5.365,5.2809,5.2408,5.2244,5.0991,5.0445,5.0298,5.0087,4.9884,4.9665,0.0,0.0,0.0,0.0,0.0,0.0,0.0,2.5283,2.6728,3.0809,3.377,3.7025,4.1107,4.3979,4.5679,4.5708,4.5688,4.4268,4.0988,3.9783,3.83,3.6248,4.1318,4.5207,4.7465,4.9457,5.137,5.3198,5.3427,5.3933,5.4676,5.4676,5.4829,5.5057,5.5028,5.4876,5.4648,5.4511,5.4276,5.3767,5.134,4.8894,4.6576,0.0,0.0,0.0,0.0,0.0,0.0,0.0,0.0,0.0,0.0,0.0,0.0,0.0,0.0,0.0,0.0,0.0,0.0,0.0,0.0,0.0,0.0,0.0,0.0,0.0,0.0,0.0,0.0,0.0,0.0,0.0,4.3786,4.5656,4.4876,4.7568,4.9708,5.0115,5.1346,5.2379,5.2801,5.2915,5.3121,5.3484,5.4192,5.4608,5.4669,5.5327,5.5701,5.5783,5.5794,5.5848,5.5888,5.5898,5.5892,5.589,5.5829,5.5811,5.5801,5.5789,5.545,5.4818,5.4818,5.4441,5.3758,5.3491,5.3402,5.321,5.1415,5.0663,5.0567,5.0486,5.0298,5.0097,0.0,0.0,0.0,0.0,0.0,0.0,0.0,2.5466,2.7414,3.2749,3.4808,3.7761,4.3141,4.5036,4.5919,4.5968,4.4932,4.3346,4.1136,3.9661,3.9741,4.1745,4.5351,4.8049,4.9585,5.1689,5.3207,5.4153,5.4434,5.5021,5.5744,5.5744,5.5973,5.6289,5.5853,5.5701,5.5663,5.5151,5.4941,5.4836,5.3585,5.1625,4.9346,4.7529,4.5536,4.3588,4.218,4.1303,4.0548,3.8739,0.0,0.0,0.0,0.0,0.0,0.0,0.0,0.0,0.0,0.0,0.0,0.0,0.0,0.0,0.0,0.0,0.0,0.0,0.0,0.0,0.0,0.0,0.0,0.0,4.6839,4.8686,4.9005,5.0503,5.1706,5.2209,5.2794,5.334,5.3876,5.3984,5.4235,5.471,5.5255,5.5575,5.5647,5.6143,5.6471,5.6514,5.6546,5.6556,5.6597,5.6601,5.6597,5.6597,5.6575,5.6523,5.6514,5.6503,5.6205,0.0,5.5755,5.542,5.4918,5.4558,5.4354,0.0,0.0,0.0,0.0,0.0,5.0661,5.0529,0.0,0.0,0.0,0.0,0.0,0.0,0.0,2.5613,2.803,3.4774,3.5802,3.8493,4.5261,4.6073,4.6105,4.6123,4.3708,4.1535,3.9949,3.9413,4.154,4.6868,4.8083,4.9714,5.203,5.3605,5.4425,5.4434,5.5163,5.5921,5.6715,5.669,5.7124,5.7848,5.703,5.6622,5.6442,5.5541,5.5104,5.5,5.489,5.4182,5.2822,4.9025,4.747,4.6831,4.3839,4.2632,4.2358,4.1324,0.0,0.0,0.0,0.0,0.0,0.0,0.0,0.0,0.0,0.0,0.0,0.0,0.0,0.0,0.0,0.0,0.0,0.0,0.0,0.0,0.0,0.0,0.0,0.0,4.9954,5.2097,5.3053,5.2521,5.2372,5.3282,5.3514,5.3971,5.4885,5.504,5.5423,5.6265,5.6403,5.6485,5.6544,0.0,0.0,0.0,0.0,5.6907,5.6873,5.6797,5.6756,5.6756,5.6669,5.6579,5.6493,5.6519,5.6509,5.6491,5.6491,5.6485,5.6425,5.5691,5.5248,5.4952,5.3152,5.2421,5.2227,5.1372,5.1034,0.0,0.0,0.0,0.0,0.0,0.0,0.0,0.0,2.5699,2.7884,3.4093,3.5537,3.8344,4.454,4.5792,4.6175,4.6197,4.3797,4.1851,4.0821,4.3102,4.5304,4.7094,4.9915,5.194,5.3086,5.3995,5.4801,5.5451,5.5538,5.5992,5.6789,5.6715,5.7149,5.7966,5.7734,5.7248,5.6561,5.6328,5.575,5.5085,5.5,5.436,5.3301,5.1713,5.0642,4.9759,4.8353,4.7778,4.735,4.5152,4.3937,4.2878,4.0577,0.0,0.0,0.0,0.0,0.0,0.0,0.0,0.0,0.0,0.0,0.0,0.0,0.0,0.0,0.0,0.0,0.0,0.0,0.0,0.0,4.7646,5.0653,5.32,5.4105,5.4227,5.4241,5.4398,5.5032,5.562,5.5966,5.6032,5.6122,5.6358,5.704,5.7449,5.7541,5.8201,0.0,5.8613,5.8621,5.8626,5.8709,5.8008,5.7654,5.7654,0.0,0.0,5.6588,5.6588,5.6543,5.6493,5.6493,5.6489,5.6475,5.6324,5.5811,5.5065,5.3961,5.3098,5.2427,5.228,5.1763,5.1131,0.0,0.0,0.0,0.0,0.0,0.0,0.0,2.5697,2.7419,3.2146,3.3514,3.5859,4.0622,4.1872,4.2417,4.2405,4.196,4.1501,4.1045,4.4595,4.7427,4.907,5.1552,5.3065,5.3464,5.4593,5.5383,5.5745,5.5682,5.6291,5.7489,5.7416,5.8055,5.9216,5.8295,5.7657,5.7199,5.624,5.5576,5.5075,5.5028,5.4676,5.4103,5.3126,5.2203,5.1281,5.0322,4.9632,4.9011,4.7746,4.6941,4.628,4.4612,4.2612,4.0308,0.0,0.0,0.0,0.0,0.0,0.0,0.0,0.0,0.0,0.0,0.0,0.0,0.0,0.0,4.2936,4.4691,0.0,4.8493,5.0703,5.2619,5.4167,5.5075,5.5323,5.5393,5.5358,5.5807,5.6364,5.6835,5.6963,5.7214,5.7653,5.8082,5.8382,5.8435,5.8877,5.9095,5.9084,5.909,5.9134,5.9216,5.8789,5.8554,5.8554,5.8121,5.7651,5.7261,5.7259,5.6983,5.6554,5.6554,5.6554,5.6554,5.6554,5.628,5.5851,5.5361,5.4401,5.3241,5.3267,5.2961,5.2539,0.0,0.0,0.0,0.0,0.0,0.0,0.0,2.5665,2.6841,3.0125,3.1304,3.3188,3.6675,3.7847,3.8202,3.7889,4.014,4.1441,4.1039,4.5336,4.8876,5.102,5.2693,5.3576,5.3498,5.5055,5.5885,5.5807,5.5745,5.6489,5.7981,5.7887,5.8642,5.997,5.8551,5.781,5.7542,5.6049,5.5347,5.5075,5.5028,5.4941,5.4776,5.3792,5.2868,5.1977,5.0836,4.9952,4.9289,4.923,4.9131,4.8956,4.8181,4.6438,4.3986,4.0197,3.8971,0.0,0.0,0.0,0.0,0.0,0.0,0.0,0.0,0.0,4.2146,4.2886,4.3649,4.4995,4.7853,4.8732,5.0243,5.3744,5.4583,5.5055,5.5807,5.5995,5.6084,5.6256,5.6417,5.6809,5.7444,5.7798,5.8238,5.8966,5.917,5.9311,5.9346,5.9508,5.9602,5.9592,5.9598,5.9641,5.9684,5.953,5.9413,5.9413,5.9258,5.8828,5.8124,5.8123,5.7654,5.6835,5.6679,5.6562,5.6562,5.6561,5.6561,5.6561,5.6561,5.5702,5.4482,5.4281,5.4089,5.3937,0.0,0.0,0.0,0.0,0.0,0.0,0.0,0.0,2.6597,2.9289,3.0412,3.2267,3.575,3.6933,3.6829,3.5273,4.022,4.2733,4.1193,4.6481,5.013,5.1169,5.2745,5.3553,5.3507,5.5073,5.5905,5.5885,5.5745,5.6203,5.7126,5.699,5.7479,5.8336,5.8016,5.7466,5.674,5.6469,5.5881,5.5075,5.5028,5.4941,5.4776,5.3792,5.2899,5.1956,5.0266,4.9465,4.9289,4.923,4.9131,4.903,4.885,4.8073,4.6773,4.4098,4.2797,4.2196,4.1994,4.223,4.2726,4.3634,4.2254,4.0904,0.0,0.0,4.5559,4.5748,4.8226,5.0558,5.1061,5.2479,5.3744,5.4353,5.5209,5.5808,5.5995,5.6117,5.6466,5.7236,5.734,5.7405,5.7581,5.8384,5.8888,5.8983,5.9755,6.0243,6.0255,6.1007,6.1412,6.1424,6.1424,6.1391,6.1436,6.0655,6.0266,6.0266,5.9485,5.9055,5.8977,5.8977,5.8509,5.7728,5.6864,5.6507,5.6507,5.6501,5.6497,5.6497,5.6497,5.638,5.6113,5.5348,5.4608,5.3982,0.0,0.0,0.0,0.0,0.0,0.0,0.0,0.0,0.0,2.7045,2.7979,2.9294,3.1265,3.2703,3.3231,3.2538,3.8003,4.1384,4.112,4.6703,5.0361,5.1162,5.2304,5.3131,5.3553,5.4589,5.5403,5.5905,5.5766,5.6104,5.6928,5.6836,5.7263,5.8017,5.7404,5.6931,5.6549,5.5973,5.55,5.5037,5.4496,5.422,5.3921,5.2507,5.1699,5.1073,4.8844,4.7658,0.0,0.0,4.7037,4.7234,4.8479,4.7701,4.5992,4.4432,4.3831,4.396,4.5499,4.6307,4.6787,4.7252,4.6628,4.6036,4.6468,4.7446,4.8424,4.9022,5.0342,5.1739,5.2856,5.3728,5.4495,0.0,5.5594,5.5943,5.6029,5.6536,5.7077,5.7521,5.8441,5.9099,5.9171,5.9533,5.9958,6.0481,6.0893,6.1153,6.1164,6.1481,6.1681,6.1686,6.1694,6.1701,6.1704,6.1355,6.1162,6.1162,6.0772,6.0342,5.9874,5.9868,5.912,5.782,5.7417,5.6982,5.6514,5.6509,5.6497,5.6491,5.6491,5.6485,5.6407,5.6064,5.5759,5.543,0.0,0.0,0.0,0.0,0.0,0.0,0.0,0.0,0.0,0.0,2.6088,2.6951,2.8082,2.953,3.0569,3.0856,3.5546,3.9129,4.0656,4.5663,4.9255,5.0782,5.1863,5.2654,5.3233,5.3911,5.467,5.5557,5.542,5.5758,5.6537,5.6467,5.674,5.7264,5.6575,5.6282,5.6205,5.5248,5.4825,5.4694,5.3784,5.3328,5.2983,5.1458,5.0455,4.9499,4.7417,4.6223,0.0,0.0,4.449,4.4759,4.6392,4.5727,4.4315,4.4352,4.4966,4.5842,4.7086,4.8384,4.939,4.9521,4.9582,4.9634,4.9721,4.9807,5.0117,5.1125,5.1573,5.226,5.3861,5.4441,5.4879,5.5609,5.5845,5.5961,5.6117,5.6862,5.7557,5.7896,5.9293,6.03,6.0614,6.0651,6.0917,6.1588,6.1687,6.1705,6.172,6.172,6.172,6.172,6.169,6.1694,6.1694,6.1701,6.1704,6.1704,6.1704,6.1388,6.076,6.0518,5.9719,5.8487,5.8233,5.7751,5.7166,5.6925,5.6792,5.6775,5.6541,5.6416,5.6368,5.6425,5.6478,5.6457,0.0,0.0,0.0,0.0,0.0,0.0,0.0,0.0,0.0,0.0,0.0,0.0,0.0,2.9016,2.9893,3.0732,3.3281,3.628,3.9614,4.3095,4.6559,4.9887,5.1552,5.2382,5.2341,5.3,5.3783,5.4631,5.4572,5.4912,5.5654,5.5547,5.5514,5.5503,5.5467,5.5441,5.5365,5.4394,5.3933,5.3857,5.2855,5.2399,5.2227,5.1269,4.9361,4.709,4.6102,0.0,4.5322,4.2847,4.1968,4.1885,4.1911,4.1845,4.2284,4.4668,4.718,4.8652,4.6293,4.7552,4.9521,4.9574,4.9634,4.9721,4.9778,4.9917,5.0278,5.1192,5.2082,5.2984,5.4081,5.491,5.5554,5.5865,5.5905,5.5961,5.6149,5.6877,5.7751,5.8748,5.9655,6.0544,0.0,6.1541,6.1602,6.1687,6.171,6.172,6.172,6.172,6.172,6.172,6.172,6.172,6.172,6.1681,6.1681,6.1681,6.1681,6.1676,6.1621,6.0783,6.0386,6.0269,5.9365,5.8957,5.8831,5.7925,5.7553,5.7476,5.6697,5.6375,5.6314,5.6314,5.6347,5.6388,0.0,0.0,0.0,0.0,0.0,0.0,0.0,0.0,0.0,0.0,0.0,0.0,0.0,0.0,0.0,0.0,3.289,3.5425,3.7159,4.1544,4.5092,4.7319,4.9504,5.1192,5.2264,5.2404,5.2895,5.3744,5.3686,5.3738,5.3859,5.3836,5.379,5.367,5.3645,5.3658,5.3569,5.3225,5.2992,5.29,5.1954,5.1528,5.1168,4.8617,4.7099,4.5735,0.0,0.0,4.064,3.9738,3.9451,3.9661,4.1288,4.0626,3.9832,4.2352,4.4878,4.7042,4.7927,4.8821,4.9521,4.9574,4.9634,4.9721,4.9778,5.0334,5.1114,5.203,5.1586,5.1367,5.2372,5.2839,5.3119,5.3321,5.4786,5.5961,5.6149,5.7381,5.8411,5.8865,6.0161,0.0,0.0,0.0,0.0,6.1687,6.171,6.172,6.172,6.172,6.172,6.172,6.172,6.172,6.172,6.172,6.172,6.172,6.171,6.1693,6.1619,6.1331,6.0885,6.0312,5.9932,5.9482,5.8898,5.8604,5.8465,5.8377,5.8117,5.7612,5.7053,5.7053,5.6717,5.6278,0.0,0.0,0.0,0.0,0.0,0.0,0.0,0.0,0.0,0.0,0.0,0.0,0.0,0.0,0.0,0.0,0.0,3.363,3.5408,3.8939,4.1824,4.3747,4.5911,4.7594,4.8619,4.881,4.9307,5.0117,5.0933,5.1449,5.165,5.2571,5.2924,5.2805,5.2805,5.278,5.2705,5.2322,5.1623,5.0631,4.9754,4.8613,4.7235,4.5066,4.3467,0.0,0.0,0.0,3.6085,3.6016,3.6592,3.7654,3.9511,4.0408,4.0772,4.0664,4.3624,4.7177,4.795,4.8844,4.9551,4.9604,4.9692,4.975,4.9835,5.0388,5.1216,5.2372,5.1116,5.0206,5.1453,5.1765,5.1851,5.2067,5.4246,5.5961,5.6149,5.7653,5.876,5.8865,6.0433,6.1528,0.0,0.0,0.0,6.1699,6.171,6.172,6.172,6.172,6.172,6.172,6.172,6.172,6.172,6.172,6.1715,6.171,6.1699,6.1634,6.1603,6.1568,6.1276,6.075,6.0667,6.0293,5.9787,5.9451,5.9296,5.9216,5.8891,5.8381,5.7815,5.7815,5.7505,5.6963,0.0,0.0,0.0,0.0,0.0,0.0,0.0,0.0,0.0,0.0,0.0,0.0,0.0,0.0,0.0,0.0,0.0,0.0,3.4242,3.5392,3.6996,3.9402,4.1129,4.2043,4.2028,4.2717,4.3443,4.4199,4.6583,4.8145,4.889,5.1344,5.2388,5.227,5.227,5.2245,5.2094,5.1243,4.9417,4.7048,4.619,4.3918,4.1009,4.0896,0.0,0.0,0.0,3.4099,3.2029,3.2105,3.3752,3.5956,3.6916,4.1001,4.4552,4.0027,4.3745,4.8814,4.6523,4.7738,4.9604,4.9692,4.975,4.9835,4.9879,5.0024,5.0621,5.222,5.0607,4.9488,0.0,0.0,5.1467,5.1681,5.3975,5.5768,5.5955,5.7575,5.876,0.0,0.0,0.0,0.0,0.0,0.0,6.1676,0.0,6.172,6.172,6.172,6.172,6.172,6.172,6.172,6.172,6.172,6.171,6.1699,6.1641,6.158,6.1595,6.151,6.1489,6.1489,6.1421,6.1396,6.1344,6.0498,6.0142,6.0065,5.9165,5.8745,5.8673,5.8673,5.8639,5.8372,0.0,0.0,0.0,0.0,0.0,0.0,0.0,0.0,0.0,0.0,0.0,0.0,0.0,0.0,0.0,0.0,0.0,0.0,3.0849,3.3487,3.5563,3.6833,3.9085,4.0587,4.1136,4.1274,4.1401,4.1552,4.2803,4.3492,4.3636,4.4902,4.5418,4.5354,4.5354,4.493,4.4255,4.4021,4.3178,4.1873,0.0,4.0988,3.9981,0.0,0.0,0.0,0.0,3.1808,3.1337,3.1899,3.3794,3.6325,3.8989,4.0828,4.2318,4.36,4.5331,4.709,4.8352,4.9173,4.9692,4.975,4.9778,4.9835,4.9879,5.0506,5.1192,5.1611,4.9272,4.7324,4.7851,0.0,0.0,4.6397,5.0156,0.0,5.3257,5.6412,0.0,5.8865,0.0,6.1528,6.1588,6.1602,0.0,0.0,6.172,6.172,6.172,6.172,6.172,6.172,6.172,6.172,6.172,6.171,6.166,6.1641,6.1619,6.1603,6.1616,6.1518,6.1495,6.1495,6.1421,6.1381,6.1313,6.1089,6.0965,6.0915,6.0666,6.0166,5.955,5.955,5.9127,5.8471,0.0,0.0,0.0,0.0,0.0,0.0,0.0,0.0,0.0,0.0,0.0,0.0,0.0,0.0,0.0,0.0,0.0,0.0,0.0,3.1385,3.2803,3.3618,3.5366,3.6518,3.6881,3.7196,3.732,3.727,3.8849,3.9546,3.9512,4.1067,4.176,4.1705,4.1686,4.138,4.0862,4.088,0.0,0.0,0.0,0.0,0.0,0.0,0.0,0.0,3.122,3.0505,3.0846,3.3521,3.5571,3.7642,4.0954,4.2987,4.438,4.5601,4.6694,4.7862,4.9315,4.9721,4.975,4.9778,4.9835,4.9559,4.8541,4.8758,4.8947,4.8248,4.5786,4.4037,4.4863,4.425,4.417,0.0,0.0,0.0,5.3839,5.6373,5.8333,0.0,6.0083,0.0,6.1541,6.1602,6.1621,0.0,6.172,6.172,6.172,6.172,6.172,6.172,6.172,6.172,6.172,6.171,6.166,6.1595,6.1588,6.1603,6.1607,6.1507,6.1484,6.1523,0.0,6.1352,6.1322,6.1306,6.1259,6.1191,6.1155,6.0866,6.0422,6.0422,6.0075,5.9611,0.0,0.0,0.0,0.0,0.0,0.0,0.0,0.0,0.0,0.0,0.0,0.0,0.0,0.0,0.0,0.0,0.0,0.0,0.0,0.0,0.0,3.0607,3.1298,3.1676,3.1748,3.2416,3.2743,3.269,3.5007,3.6059,0.0,0.0,0.0,0.0,0.0,0.0,0.0,0.0,0.0,0.0,0.0,0.0,0.0,0.0,0.0,0.0,2.991,2.9876,3.0598,3.5622,3.7791,3.8977,4.2674,4.5844,4.7994,4.6701,4.7947,4.9721,4.9721,4.9778,4.9835,4.9835,4.989,4.9288,4.6771,4.6273,4.5826,4.4102,4.1914,4.0768,4.2315,4.2754,4.3841,4.6684,0.0,5.2425,5.4846,5.618,5.7402,5.8748,5.9655,6.0555,6.1495,6.1595,6.1621,6.1676,6.172,6.172,6.172,6.172,6.172,6.172,6.172,6.172,6.172,6.1715,6.1666,6.1595,6.1595,6.1612,6.1607,6.1507,6.1484,6.1523,0.0,0.0,6.1322,6.1314,6.1264,6.1173,6.1137,6.1118,6.1118,6.1118,6.1041,6.1002,0.0,0.0,0.0,0.0,0.0,0.0,0.0,0.0,0.0,0.0,2.5468,2.5515,0.0,0.0,0.0,0.0,0.0,0.0,0.0,0.0,0.0,0.0,2.9874,3.0224,3.0884,3.0986,3.1012,3.1014,3.2072,3.2555,0.0,0.0,0.0,0.0,0.0,0.0,0.0,0.0,0.0,0.0,0.0,0.0,0.0,0.0,0.0,0.0,3.0091,3.0038,3.0836,3.5837,3.754,3.8448,4.3844,4.641,4.7531,4.8002,4.8909,4.9807,4.9824,4.9906,4.9997,4.9997,5.005,4.9391,4.6844,4.6344,4.5703,4.3399,4.1533,4.0422,4.0781,4.2023,4.253,4.1152,4.5465,4.9142,4.9744,5.2394,5.5397,0.0,5.9655,6.0565,6.151,6.1595,0.0,0.0,0.0,6.172,6.172,6.172,6.172,6.172,6.172,6.172,6.172,6.171,6.1654,6.1595,6.1619,6.1595,6.1607,6.1507,6.1484,6.1523,0.0,0.0,6.1322,6.1314,6.1264,6.1173,6.1137,6.1118,6.1118,6.1118,6.1041,6.1002,0.0,0.0,0.0,0.0,0.0,0.0,0.0,0.0,2.5234,2.5378,2.5421,2.5461,2.5493,2.5551,0.0,0.0,0.0,0.0,0.0,0.0,0.0,0.0,0.0,0.0,0.0,2.9977,3.0164,3.0598,0.0,3.1107,3.1053,3.1429,3.1584,0.0,0.0,0.0,0.0,0.0,0.0,0.0,0.0,0.0,0.0,0.0,0.0,0.0,0.0,3.0142,3.07,3.4437,3.5625,3.6558,4.2375,4.5672,4.7327,4.691,4.8301,4.9933,5.0024,5.0012,5.0038,5.0038,5.0101,4.9099,4.5278,4.4446,4.3399,3.9642,3.8244,3.7874,3.8361,4.0581,4.2107,4.1461,4.5256,4.8794,5.0273,5.189,5.4233,5.7815,5.8993,5.9921,6.0871,6.1361,0.0,0.0,0.0,6.172,6.172,6.172,6.1681,6.169,6.1681,6.172,6.172,6.171,6.1666,6.1648,6.1627,6.1612,6.1586,6.1539,6.1495,6.1523,6.1434,0.0,6.1322,6.1306,6.1259,6.1191,6.1155,6.1137,6.1118,6.1118,6.1041,6.1002,0.0,0.0,0.0,0.0,0.0,0.0,0.0,2.522,2.5234,2.5378,2.5404,2.5414,2.5486,2.5579,2.5615,0.0,0.0,0.0,0.0,0.0,0.0,0.0,0.0,0.0,0.0,0.0,0.0,3.0044,3.0074,0.0,0.0,0.0,0.0,0.0,0.0,0.0,0.0,0.0,0.0,0.0,0.0,0.0,0.0,0.0,0.0,0.0,0.0,3.0073,3.0609,3.3119,3.3961,3.4732,3.9319,4.3052,4.562,4.5049,4.6815,4.9175,4.9923,5.0114,5.0114,5.0114,5.0114,4.8843,4.3857,4.2733,4.1303,3.6348,3.5308,3.5569,3.6281,3.9192,4.1623,0.0,4.5001,4.823,5.1087,5.1488,5.3029,5.7114,5.8359,0.0,6.0286,6.1134,0.0,0.0,0.0,0.0,6.1686,6.1686,6.169,6.1701,6.169,6.1686,6.1686,6.1681,6.171,6.1699,6.1648,6.1627,6.1603,6.1559,6.1528,6.1495,6.1408,0.0,0.0,6.1322,6.1275,6.1208,6.1191,6.1155,6.1137,6.1118,6.106,6.1022,0.0,0.0,0.0,0.0,0.0,0.0,0.0,2.5192,2.5234,2.5378,2.5404,2.5445,2.5473,2.5556,2.5595,0.0,0.0,0.0,0.0,0.0,0.0,0.0,0.0,0.0,0.0,0.0,0.0,2.8346,2.8349,0.0,0.0,0.0,0.0,0.0,0.0,0.0,0.0,0.0,0.0,0.0,0.0,0.0,0.0,0.0,0.0,0.0,0.0,2.9713,3.079,3.3313,3.4131,3.4194,3.4717,3.7097,4.0272,4.3229,4.481,4.6252,4.9325,5.0188,5.0188,5.0188,5.0236,4.8961,4.394,4.2775,4.136,3.6364,3.5354,3.5436,3.5475,3.8354,4.0222,0.0,0.0,4.4882,4.8348,4.8865,5.1023,5.6881,0.0,0.0,6.0301,6.114,0.0,0.0,0.0,0.0,6.1697,6.1704,6.1707,6.1707,6.1701,6.1697,6.1697,6.1686,6.171,6.1699,6.1699,6.168,6.1603,6.1578,6.1549,6.1489,6.1421,0.0,0.0,6.1313,6.1322,6.1268,6.1225,6.1191,6.1173,6.1137,6.1118,6.106,0.0,0.0,0.0,0.0,0.0,0.0,2.5182,2.5241,2.5293,2.5378,2.5395,2.5437,2.5505,2.5499,2.5579,0.0,0.0,0.0,0.0,0.0,0.0,0.0,0.0,0.0,0.0,0.0,0.0,2.8145,2.8126,0.0,0.0,0.0,0.0,0.0,0.0,0.0,0.0,0.0,0.0,0.0,0.0,0.0,0.0,0.0,0.0,0.0,0.0,0.0,2.9908,3.1438,3.1965,3.1927,3.1927,3.2801,3.4769,3.9635,4.3044,4.5893,4.8821,4.9969,5.039,5.039,5.0412,4.9094,4.4001,4.2871,4.1433,3.6389,3.5383,3.5412,3.5441,3.8291,4.0044,0.0,0.0,0.0,4.7999,4.8528,5.0647,5.622,5.807,0.0,0.0,0.0,0.0,0.0,0.0,0.0,6.1704,6.1707,6.1711,6.1713,6.1709,6.1704,6.1697,6.1694,6.1686,6.171,6.1705,6.1693,6.168,6.1603,6.1578,6.1549,6.1479,0.0,0.0,6.1369,6.1327,6.1322,6.1275,6.1259,6.1264,6.1208,6.1191,6.1155,0.0,0.0,0.0,0.0,0.0,2.5214,2.5182,2.5252,2.5303,2.5378,2.5387,2.5421,2.5498,2.5486,2.5517,2.5605,0.0,0.0,0.0,0.0,0.0,0.0,0.0,0.0,0.0,0.0,0.0,2.7449,2.7395,2.7373,0.0,0.0,2.7348,2.728,0.0,0.0,0.0,0.0,0.0,0.0,0.0,0.0,0.0,0.0,0.0,0.0,0.0,0.0,0.0,0.0,0.0,3.052,3.052,3.051,3.1637,3.7493,4.1272,4.4364,4.7952,4.9506,5.0138,5.0138,4.9754,4.8238,4.3866,4.235,4.0586,3.6281,3.5427,3.5455,3.5482,3.7486,3.8838,0.0,0.0,4.3905,4.6615,4.7932,4.9959,5.368,0.0,5.7537,0.0,0.0,0.0,0.0,0.0,0.0,0.0,6.1713,6.1715,6.1717,6.1715,6.1709,6.1707,6.1701,6.1694,6.1686,6.171,6.1705,6.1699,6.1634,6.1603,6.1616,0.0,0.0,0.0,6.1421,6.1383,6.1366,6.1352,6.1322,6.133,6.1314,6.1281,6.1247,0.0,0.0,0.0,0.0,0.0,0.0,0.0,2.5252,2.5303,2.5378,2.5387,2.5412,2.5468,2.5518,2.5544,2.5601,0.0,0.0,0.0,0.0,0.0,0.0,0.0,0.0,0.0,0.0,0.0,2.5749,2.5736,2.5679,2.5649,2.5649,2.5629,2.564,0.0,0.0,0.0,0.0,0.0,0.0,0.0,0.0,0.0,0.0,0.0,0.0,0.0,0.0,0.0,0.0,0.0,0.0,0.0,3.0539,3.1661,3.7668,3.9389,4.0669,4.66,4.874,4.9296,4.9296,4.8009,4.609,4.3483,4.1008,3.8508,3.5936,3.543,3.5483,3.5483,3.5584,3.5929,3.6779,3.9828,0.0,4.3319,4.643,4.8649,0.0,0.0,5.4207,0.0,0.0,0.0,0.0,0.0,0.0,0.0,6.1718,6.1719,6.1719,6.1718,6.1716,6.1716,6.1707,6.1697,6.1697,6.1686,6.171,6.1699,6.1699,6.168,0.0,0.0,0.0,0.0,6.1495,6.1484,6.1472,6.1408,6.1419,6.1405,6.133,6.1297,6.1297,0.0,0.0,0.0,0.0,0.0,0.0,0.0,2.5283,2.5322,2.5387,2.5387,2.5412,2.5468,2.5505,2.5531,2.5595,0.0,0.0,0.0,0.0,0.0,0.0,0.0,0.0,0.0,0.0,2.5693,2.5687,2.5681,2.5671,2.5655,2.5655,2.5644,2.5619,2.5619,0.0,0.0,0.0,0.0,0.0,0.0,0.0,0.0,0.0,0.0,0.0,0.0,0.0,0.0,0.0,0.0,0.0,0.0,0.0,0.0,3.4982,3.6377,3.7565,4.1138,4.2726,4.3349,4.3349,4.3387,4.2755,4.0192,3.9475,3.859,3.6061,3.5547,3.556,3.556,3.5596,3.6482,3.9146,4.0974,0.0,0.0,0.0,0.0,4.8701,5.2286,5.5801,0.0,0.0,0.0,0.0,0.0,0.0,0.0,6.1718,6.1719,6.1719,6.1718,6.1718,6.1716,6.1715,6.1709,6.1697,6.1694,6.1686,6.171,6.1705,0.0,0.0,0.0,0.0,0.0,6.1588,6.1557,6.1523,6.1499,6.1447,6.1486,6.1421,6.1433,6.1376,0.0,0.0,0.0,0.0,0.0,0.0,0.0,2.5293,2.5322,2.5387,2.5387,2.5412,2.5499,2.549,2.5511,2.5544,0.0,0.0,0.0,0.0,0.0,0.0,0.0,0.0,0.0,2.5703,2.5703,2.5701,2.5698,2.5694,2.5685,2.5685,2.5679,2.5623,2.5623,0.0,0.0,0.0,0.0,0.0,0.0,0.0,2.5595,0.0,0.0,0.0,0.0,0.0,0.0,0.0,0.0,0.0,0.0,0.0,0.0,0.0,3.3382,3.4515,3.7989,3.9509,4.0139,4.0139,4.0048,3.9648,3.8375,3.7758,3.7102,3.5842,3.6356,3.6755,3.5789,3.6404,3.7483,3.8667,4.1513,4.3652,0.0,0.0,0.0,4.8725,0.0,0.0,0.0,0.0,0.0,0.0,0.0,0.0,0.0,6.1718,6.1719,6.1719,6.1719,6.1718,6.1718,6.1717,6.1715,6.1707,6.1704,6.1697,6.1686,6.172,0.0,0.0,0.0,0.0,0.0,6.1595,6.1578,6.1549,6.1528,6.1557,6.1518,6.1495,6.146,6.146,0.0,0.0,0.0,0.0,0.0,0.0,0.0,0.0,2.5322,2.5378,2.5387,2.5404,2.5484,2.5507,2.549,2.5511,0.0,0.0,0.0,0.0,0.0,0.0,0.0,0.0,0.0,2.5697,2.57,2.5702,2.5703,2.5703,2.5701,2.5701,2.5698,2.5689,2.5689,2.5689,0.0,0.0,0.0,0.0,2.5712,2.5662,0.0,0.0,0.0,0.0,0.0,0.0,0.0,0.0,0.0,0.0,0.0,0.0,0.0,0.0,0.0,0.0,0.0,3.8252,3.8786,3.8786,3.7578,3.6691,3.754,3.5958,0.0,3.543,3.7617,3.8646,3.6095,3.7727,3.8728,3.6376,4.1623,4.4305,0.0,4.4307,0.0,0.0,5.0606,0.0,0.0,0.0,0.0,0.0,0.0,0.0,0.0,6.1719,6.1719,6.1719,6.1719,6.1719,6.1719,6.1718,6.1716,6.1716,6.1711,6.1707,6.1697,6.1697,0.0,0.0,0.0,0.0,0.0,6.1602,6.1595,6.1595,6.1595,6.1616,6.1607,6.1518,6.1495,6.1495,0.0,0.0,0.0,0.0,0.0,0.0,0.0,0.0,0.0,0.0,2.5416,2.5404,2.5421,2.5461,2.5522,0.0,0.0,0.0,0.0,0.0,0.0,0.0,0.0,0.0,0.0,2.5685,2.5687,2.5693,2.5696,2.5699,2.5702,2.5703,2.5703,2.5702,2.5702,2.5702,2.5702,0.0,0.0,0.0,2.5696,2.5691,0.0,0.0,0.0,0.0,2.5679,2.6225,0.0,0.0,0.0,0.0,0.0,0.0,0.0,0.0,3.0798,3.102,3.2156,0.0,3.2657,3.2657,3.2842,3.3268,0.0,3.4381,3.47,3.5514,3.7732,3.875,3.6144,3.7831,3.9392,3.8792,4.283,4.4958,4.1751,0.0,0.0,5.1297,0.0,0.0,0.0,0.0,0.0,0.0,0.0,0.0,0.0,6.1719,6.1719,6.1719,6.1719,6.1719,6.1719,6.1718,6.1718,6.1716,6.1716,6.1713,6.1707,6.1707,0.0,0.0,0.0,0.0,6.1671,6.1699,6.1648,6.1595,6.1588,6.158,6.158,6.1573,6.1595,6.1578,0.0,0.0,0.0,0.0,0.0,0.0,0.0,0.0,0.0,0.0,0.0,0.0,0.0,0.0,0.0,0.0,0.0,0.0,0.0,0.0,0.0,0.0,0.0,0.0,2.5658,2.5658,2.5665,2.5712,2.5718,2.5685,2.5693,2.5694,2.5697,2.57,2.57,2.57,2.57,2.5701,2.5703,2.5703,2.5703,0.0,0.0,0.0,0.0,0.0,2.5697,2.6008,0.0,2.7409,2.8264,2.9081,0.0,0.0,0.0,0.0,3.0793,3.0779,3.0764,3.0717,3.0661,3.0661,3.0995,3.1637,3.2917,3.3576,3.4265,3.5437,3.7763,3.881,3.6174,3.7851,3.9228,3.8044,4.149,0.0,0.0,0.0,4.6398,5.0438,0.0,0.0,0.0,0.0,0.0,0.0,0.0,0.0,0.0,6.1719,6.1719,6.1719,6.1719,6.1719,6.1719,6.1719,6.1718,6.1718,6.1718,6.1717,6.1713,6.1713,6.1711,0.0,0.0,0.0,6.1694,6.169,6.1686,6.1637,6.1632,6.1666,6.1654,6.1609,6.1595,6.1619,0.0,0.0,0.0,0.0,0.0,0.0,0.0,0.0,0.0,0.0,0.0,0.0,0.0,0.0,0.0,0.0,0.0,0.0,0.0,0.0,0.0,0.0,0.0,2.5605,2.5619,2.558,2.5632,2.5687,2.5687,2.5697,2.5673,2.5673,2.5679,2.5683,2.5683,2.5683,2.5683,2.5689,2.5694,2.5698,2.57,0.0,0.0,0.0,0.0,0.0,0.0,0.0,0.0,2.6716,2.7573,2.8468,2.9322,0.0,0.0,0.0,0.0,0.0,3.0793,3.0753,3.0711,3.0704,3.0676,3.1072,3.2818,3.3206,3.371,3.5378,3.7812,3.882,3.6193,3.7832,3.8947,3.6914,0.0,0.0,4.9244,4.7689,4.7067,0.0,0.0,0.0,0.0,0.0,0.0,0.0,0.0,0.0,0.0,6.1719,6.1719,6.1719,6.1719,6.1718,6.1718,6.1719,6.1719,6.1719,6.1719,6.1718,6.1717,6.1717,6.1715,0.0,0.0,0.0,6.1709,6.1709,6.1709,6.1709,6.1704,6.1694,6.1686,6.1637,6.1621,6.1615,0.0,0.0,0.0,0.0,0.0,0.0,0.0,0.0,0.0,0.0,0.0,0.0,0.0,0.0,0.0,0.0,0.0,0.0,0.0,0.0,0.0,0.0,2.5556,2.5613,2.559,2.5605,2.5615,2.5615,2.5624,2.5632,2.5636,2.5605,2.5609,2.5609,2.5655,2.5697,2.5701,2.571,2.5718,2.5683,2.5685,0.0,0.0,0.0,0.0,0.0,0.0,0.0,0.0,2.6718,2.7578,2.8437,2.9333,0.0,0.0,0.0,0.0,0.0,3.0817,3.0802,3.0779,3.0703,3.0691,3.1151,3.2908,3.3283,3.3774,3.5446,3.7847,3.8896,3.6262,3.7911,3.9793,0.0,0.0,4.8655,0.0,0.0,0.0,0.0,0.0,0.0,0.0,0.0,0.0,0.0,0.0,0.0,0.0,6.1719,6.1719,6.1719,6.1718,6.1717,6.1717,6.1718,6.1719,6.1719,6.1719,6.1719,6.1718,6.1718,6.1718,0.0,0.0,6.1716,6.1715,6.1711,6.1709,6.1709,6.1707,6.1707,6.1707,6.1704,6.1665,6.1662,0.0,0.0,0.0,0.0,0.0,0.0,0.0,0.0,0.0,0.0,0.0,0.0,0.0,0.0,0.0,0.0,0.0,0.0,0.0,0.0,0.0,2.5483,2.5543,2.5564,2.5544,2.5556,2.5568,2.5535,2.554,2.5551,2.5605,2.5619,2.5585,2.5585,2.5628,2.5632,2.5632,2.5644,2.5652,2.5655,0.0,0.0,0.0,0.0,0.0,0.0,0.0,0.0,0.0,0.0,2.7185,2.8358,2.8789,0.0,0.0,0.0,0.0,0.0,3.0796,3.0788,3.0781,3.0754,3.073,3.1182,3.2921,3.3304,3.3803,3.5514,3.6798,3.7265,3.6098,0.0,4.0595,4.3381,0.0,4.9081,0.0,0.0,0.0,0.0,0.0,0.0,0.0,0.0,0.0,0.0,0.0,0.0,0.0,0.0,6.0351,6.0351,6.0309,6.0307,6.0307,6.0309,6.0779,6.1716,6.1716,6.1716,6.1716,6.1716,6.1716,6.1716,0.0,6.1717,6.1717,6.1718,6.1718,6.1718,6.1718,6.1719,6.1718,6.1717,6.1716,6.1716,0.0,0.0,0.0,0.0,0.0,0.0,0.0,0.0,0.0,0.0,0.0,0.0,0.0,0.0,0.0,0.0,0.0,0.0,0.0,0.0,2.5476,2.5476,2.5492,2.5476,2.5505,2.5511,2.5479,2.5493,2.5493,2.5544,2.5568,2.5585,2.559,2.559,2.5595,2.5595,2.5595,2.5571,2.5615,2.5615,0.0,0.0,0.0,0.0,0.0,0.0,0.0,0.0,0.0,0.0,0.0,0.0,0.0,0.0,0.0,3.0897,3.0896,3.0895,3.0847,3.0804,3.0801,3.0788,3.0802,3.1247,3.2945,3.3329,3.379,3.5541,3.5892,3.5892,3.5892,3.8825,0.0,4.567,4.8113,0.0,0.0,0.0,0.0,0.0,0.0,0.0,0.0,0.0,0.0,0.0,0.0,0.0,0.0,0.0,5.9177,5.9176,5.9134,5.909,5.909,5.909,5.9754,6.1084,6.1319,6.1397,6.1397,6.1592,6.1709,6.1709,6.1709,6.1709,6.1709,6.1709,6.1709,6.1709,6.1709,6.1711,6.1715,6.1717,6.1718,6.1718,0.0,0.0,0.0,0.0,0.0,0.0,0.0,0.0,0.0,0.0,0.0,0.0,0.0,0.0,0.0,0.0,0.0,0.0,0.0,0.0,2.5395,2.5395,2.5412,2.5445,2.5522,2.5505,2.5518,2.5518,2.5518,2.5518,2.5518,2.5525,2.5525,2.5525,2.5499,2.5505,2.5505,2.5574,2.5585,2.5585,2.5605,0.0,0.0,0.0,0.0,0.0,0.0,0.0,0.0,0.0,0.0,0.0,0.0,0.0,3.0896,3.0898,3.0898,3.0898,3.0895,3.0891,3.0886,3.0801,3.0788,3.1242,3.2998,3.3332,3.3779,3.5533,3.5917,3.5911,3.5883,4.129,4.583,4.6137,5.1615,0.0,0.0,0.0,0.0,0.0,0.0,0.0,0.0,0.0,0.0,0.0,0.0,0.0,0.0,0.0,0.0,5.9095,5.9087,5.9084,5.9084,5.9113,5.9156,5.9288,6.0108,6.0498,6.0538,6.1319,6.1709,6.1709,6.1709,6.1709,6.1709,6.1709,6.1709,6.1709,6.1709,6.1709,6.1709,6.1709,6.1709,6.1709,0.0,0.0,0.0,0.0,0.0,0.0,0.0,0.0,0.0,0.0,0.0,0.0,0.0,0.0,0.0,0.0,0.0,0.0,0.0,0.0,2.5387,2.5387,2.5395,2.5412,2.5421,2.5499,2.5515,2.5515,2.549,2.549,2.549,2.5511,2.5518,2.5518,2.5479,2.5486,2.5486,2.5538,2.5544,2.5544,2.555,2.5562,0.0,0.0,0.0,0.0,0.0,0.0,0.0,0.0,2.6874,2.8293,2.8303,2.9478,3.0849,3.0896,3.0897,3.0898,3.0898,3.0897,3.0894,3.0852,3.1239,3.2326,3.5116,3.6157,3.7323,4.017,3.9463,3.8327,3.8327,0.0,4.6727,4.8371,5.3064,0.0,0.0,0.0,0.0,0.0,0.0,0.0,0.0,0.0,0.0,0.0,0.0,0.0,0.0,0.0,0.0,5.7564,5.7555,5.7551,5.7551,5.7499,5.7495,5.7508,5.8918,5.9581,5.9616,5.9929,6.008,6.011,6.0656,6.089,6.0929,6.1437,6.1632,6.1632,6.1632,6.1632,6.1632,6.1632,6.1632,6.1632,0.0,0.0,0.0,0.0,0.0,0.0,0.0,0.0,0.0,0.0,0.0,0.0,0.0,0.0,0.0,0.0,0.0,0.0,0.0,2.5369,2.5369,2.5369,2.5378,2.5416,2.5416,2.5451,2.5468,2.5468,2.5484,2.5453,2.5453,2.5468,2.5483,2.549,2.549,2.549,2.5498,2.5505,2.5505,2.5505,2.5511,2.5531,0.0,0.0,0.0,0.0,0.0,0.0,0.0,0.0,2.6817,2.8278,2.8254,2.943,3.0801,3.0849,3.0892,3.0896,3.0898,3.0898,3.0898,3.0897,3.1716,3.3547,3.7513,3.8482,3.949,4.2997,4.2295,4.0773,3.995,0.0,0.0,0.0,0.0,0.0,0.0,0.0,0.0,0.0,0.0,0.0,0.0,0.0,0.0,0.0,0.0,0.0,0.0,0.0,0.0,0.0,5.6567,5.6563,5.6563,5.6509,5.6497,5.6497,5.7718,5.8421,5.8688,5.8961,5.9111,5.9137,5.9723,5.9996,6.0035,6.0893,6.1361,6.1595,6.1595,6.1595,6.1595,6.1595,6.1595,6.1595,0.0,0.0,0.0,0.0,0.0,0.0,0.0,0.0,0.0,0.0,0.0,0.0,0.0,0.0,0.0,0.0,0.0,0.0,2.5303,2.5303,2.5303,2.5303,2.538,2.5398,2.5398,2.5416,2.5387,2.5387,2.5387,2.5387,2.5387,2.5387,2.5404,2.5382,2.5382,2.5429,2.5492,2.5507,2.5515,2.5515,2.5505,2.5511,2.5511,0.0,0.0,0.0,0.0,0.0,0.0,0.0,2.6762,2.8217,2.8189,2.9413,3.0794,3.0799,3.0845,3.0889,3.0894,3.0936,3.0937,3.0937,3.2186,3.4799,3.9955,3.983,3.9624,4.3014,4.3751,4.2932,4.0317,4.2701,0.0,0.0,0.0,0.0,0.0,0.0,0.0,0.0,0.0,0.0,0.0,0.0,0.0,0.0,0.0,0.0,0.0,0.0,0.0,0.0,5.6514,5.6509,5.6509,5.6491,5.6485,5.6485,5.6485,5.6953,5.7811,5.8669,5.9059,5.9059,5.9098,5.9098,5.9137,6.0035,6.0854,6.1595,6.1595,6.1595,6.1595,6.1595,6.1595,6.1595,0.0,0.0,0.0,0.0,0.0,0.0,0.0,0.0,0.0,0.0,0.0,0.0,0.0,0.0,0.0,0.0,0.0,0.0,2.5303,2.5303,2.5303,2.5303,2.5313,2.5322,2.5322,2.5332,2.5351,2.5387,2.5387,2.5387,2.5387,2.5387,2.5395,2.5395,2.5395,2.5404,2.5451,2.5429,2.5437,2.5437,2.5461,2.5515,2.549,0.0,0.0,0.0,0.0,0.0,0.0,0.0,0.0,0.0,2.8212,2.9394,3.0802,3.0781,3.0796,3.0843,3.0845,3.218,3.3551,3.3551,3.4881,3.75,4.2656,4.2965,4.2997,4.5846,4.6432,4.5651,4.3034,4.5375,0.0,0.0,0.0,0.0,0.0,0.0,0.0,0.0,0.0,0.0,0.0,0.0,0.0,0.0,0.0,0.0,0.0,0.0,0.0,0.0,5.6497,5.6491,5.6491,5.651,5.6496,5.6449,5.6433,5.6597,5.6893,5.7112,5.7221,5.7243,5.7809,5.8033,5.8111,5.9007,5.9864,6.0604,6.0604,6.0993,6.1539,6.1539,6.1539,6.1539,0.0,0.0,0.0,0.0,0.0,0.0,0.0,0.0,0.0,0.0,2.5303,2.5303,0.0,0.0,0.0,0.0,0.0,0.0,0.0,0.0,2.5303,2.5303,2.5303,2.5303,2.5303,2.5303,2.5322,2.536,2.536,2.536,2.536,2.536,2.5369,2.5416,2.5416,2.5387,2.5387,2.5404,2.5412,2.5412,2.5421,2.5476,2.5453,0.0,0.0,0.0,0.0,0.0,0.0,0.0,0.0,0.0,2.8194,2.9411,3.0784,3.0802,3.0817,3.0794,3.0796,3.2717,3.4715,3.4716,3.601,3.8551,4.3397,4.5663,4.6907,4.7493,4.8391,4.8313,4.5735,4.6985,0.0,0.0,0.0,0.0,0.0,0.0,0.0,0.0,0.0,0.0,0.0,0.0,0.0,0.0,0.0,0.0,0.0,0.0,0.0,0.0,5.6478,5.651,5.6464,5.6441,5.6425,5.6398,5.6378,5.6427,5.6455,5.6407,5.6388,5.6417,5.6903,5.7281,5.7631,5.8176,5.8877,5.9694,5.9694,6.02,6.0978,6.0978,6.1211,6.1484,0.0,0.0,2.5303,2.5303,0.0,0.0,0.0,0.0,0.0,0.0,2.5303,2.5303,0.0,0.0,0.0,0.0,0.0,0.0,0.0,0.0,2.5303,2.5303,2.5303,2.5303,2.5303,2.5303,2.5303,2.5303,2.5303,2.5303,2.5303,2.5303,2.5322,2.5389,2.5389,2.5407,2.5387,2.5387,2.5387,2.5387,2.5387,2.5404,2.5421,2.5382,0.0,0.0,0.0,0.0,0.0,0.0,0.0,0.0,2.8273,2.943,3.0774,3.0818,3.0798,3.0817,3.0788,3.2865,3.5057,3.5064,3.6708,3.9328,4.3078,4.7812,5.0736,4.8432,0.0,5.0697,4.8354,4.7965,0.0,0.0,0.0,0.0,0.0,0.0,0.0,0.0,0.0,0.0,0.0,0.0,0.0,0.0,0.0,0.0,0.0,0.0,0.0,0.0,5.6496,5.6441,5.6386,5.6398,5.6417,0.0,5.6386,5.6375,5.6375,5.6386,5.6386,5.6375,5.6375,5.6803,5.7465,5.7465,5.797,5.8748,5.8748,5.9293,6.0071,6.0071,6.0616,6.1355,0.0,0.0,2.5303,2.5303,0.0,0.0,0.0,0.0,0.0,0.0,0.0,0.0,0.0,0.0,0.0,0.0,0.0,0.0,0.0,0.0,2.5303,2.5303,2.5303,2.5303,2.5303,2.5303,2.5303,2.5303,2.5303,2.5303,2.5303,2.5303,2.5313,2.5322,2.5322,2.5322,2.5322,2.5389,2.5407,2.5407,2.5387,2.5395,2.5395,2.5412,2.5429,0.0,0.0,0.0,0.0,0.0,0.0,0.0,2.891,2.9862,3.0736,3.0764,3.0818,3.0793,3.0806,3.4172,3.7695,3.7666,4.2051,4.6237,4.5811,4.8668,5.1248,5.0703,5.1016,5.121,5.0663,0.0,0.0,0.0,0.0,0.0,0.0,0.0,0.0,0.0,0.0,0.0,0.0,0.0,0.0,0.0,0.0,0.0,0.0,0.0,0.0,5.6402,5.6416,5.6398,5.6407,5.6397,5.6386,0.0,5.6329,5.6304,5.6239,5.629,5.629,5.6239,5.6239,5.6329,5.6509,5.6509,5.6975,5.7712,5.7712,5.8256,5.9032,5.9032,5.9459,6.0119,0.0,0.0,0.0,0.0,0.0,0.0,0.0,0.0,0.0,0.0,0.0,0.0,0.0,2.6159,0.0,0.0,2.5534,2.5303,2.5303,2.5303,2.5303,2.5303,2.5303,2.5303,2.5303,2.5303,2.5303,2.5303,2.5303,2.5303,2.5303,2.5303,2.5303,2.5303,2.5303,2.5303,2.5303,2.5322,2.5332,2.5332,2.5351,2.536,2.5416,2.5387,2.5404,2.5459,2.5909,0.0,0.0,0.0,0.0,0.0,0.0,0.0,3.0711,3.0736,3.0759,3.1091,3.227,3.548,3.8887,4.0578,4.4926,4.8369,4.6697,4.8967,5.1396,5.14,5.1403,5.1404,5.1404,0.0,0.0,0.0,0.0,0.0,0.0,0.0,0.0,0.0,0.0,0.0,0.0,0.0,0.0,0.0,0.0,0.0,0.0,5.5233,5.5208,5.5151,5.5561,5.5774,5.5742,5.6158,5.6329,5.6253,5.6265,5.6223,5.6209,5.6251,5.6251,5.6209,5.6209,5.6194,5.6218,5.6218,5.6451,5.6839,5.6839,5.7343,5.8079,5.8079,5.87,5.9646,0.0,0.0,0.0,0.0,0.0,0.0,0.0,0.0,0.0,0.0,0.0,0.0,0.0,2.7274,2.6813,0.0,0.0,0.0,2.5523,2.537,2.5293,2.5293,2.5293,2.5293,2.5293,2.5293,2.5303,2.5303,2.5303,2.5303,2.5303,2.5303,2.5303,2.5303,2.5303,2.5303,2.5303,2.5303,2.5303,2.5303,2.5457,2.5553,2.562,2.5774,2.5841,2.5953,2.6648,2.6936,2.7069,2.7945,0.0,0.0,0.0,0.0,3.069,3.0704,3.0736,3.1343,3.3891,3.683,3.9964,4.3295,4.6392,4.8235,4.7021,4.9029,5.1229,5.1385,5.1391,5.1398,0.0,0.0,0.0,0.0,0.0,0.0,0.0,0.0,0.0,0.0,0.0,0.0,0.0,0.0,0.0,0.0,0.0,0.0,5.3892,5.3827,5.3799,5.3807,5.4508,5.4836,5.4774,5.5631,5.6032,5.5991,5.6117,5.6164,5.6164,5.6164,5.6164,5.6164,5.6164,5.6164,5.6164,5.6164,5.6164,5.6164,5.6164,5.6591,5.7172,5.7172,5.7947,5.8916,0.0,0.0,0.0,0.0,0.0,0.0,0.0,0.0,0.0,0.0,2.789,2.789,2.789,2.7813,2.7687,2.7654,2.6886,2.6387,2.6343,0.0,0.0,2.5203,2.5203,2.5203,2.5203,2.5262,2.5311,2.5311,2.5293,2.5303,2.5303,2.5303,2.5303,2.5303,2.5303,2.5303,2.5303,2.5303,2.5303,2.538,2.612,2.6428,2.6515,2.7267,2.7585,2.7595,0.0,2.7816,2.798,2.8818,2.9193,0.0,0.0,0.0,3.0707,3.069,3.0711,3.1268,3.3894,3.8131,4.2442,4.5189,4.6766,4.7825,4.8332,4.9396,5.0499,0.0,5.1414,0.0,0.0,0.0,0.0,0.0,0.0,0.0,0.0,0.0,0.0,0.0,0.0,0.0,0.0,0.0,0.0,0.0,0.0,0.0,5.3788,5.3799,5.3807,5.3813,5.3868,5.3883,5.3883,5.4671,5.507,5.507,5.58,5.6062,5.6029,5.6029,5.6046,5.6117,5.6117,5.6062,5.6029,5.6029,5.6029,5.6029,5.6029,5.6106,5.6184,5.6184,5.63,5.6455,0.0,0.0,0.0,0.0,0.0,0.0,0.0,0.0,0.0,0.0,0.0,2.9313,2.9313,2.8879,2.8549,2.8537,2.7758,2.7044,2.6523,2.614,2.5729,2.5231,2.5192,2.5192,2.5192,2.5241,2.5252,2.5311,2.5283,2.5293,2.5303,2.5303,2.5303,2.5303,2.5303,2.5303,2.5341,2.5813,2.6043,2.612,2.6967,2.7313,2.7351,2.7747,0.0,0.0,0.0,0.0,0.0,2.968,3.0017,3.0113,3.0479,0.0,0.0,0.0,3.069,3.1566,3.5631,4.0478,4.4705,4.5896,4.6852,4.7606,4.7963,4.9112,5.021,5.0589,5.1074,0.0,0.0,0.0,0.0,0.0,0.0,0.0,0.0,0.0,0.0,0.0,0.0,0.0,0.0,0.0,0.0,0.0,0.0,5.1969,5.2339,5.2308,5.2275,5.229,5.268,5.2925,5.2912,5.3761,5.439,5.4839,5.5681,5.6033,5.5998,5.598,5.5977,5.6046,5.6046,5.6012,5.6016,5.6016,5.5998,5.5923,5.5923,5.5923,5.5923,5.5923,5.5961,5.6,0.0,0.0,0.0,0.0,0.0,0.0,0.0,0.0,0.0,0.0,0.0,3.0379,3.0379,0.0,0.0,0.0,2.8605,2.775,2.6845,2.6807,2.6424,2.5554,2.5516,2.5401,2.5209,2.522,2.5231,2.5262,2.5301,2.5283,2.5303,2.5303,2.5418,2.561,2.561,2.561,2.5687,2.6544,2.6928,2.7005,2.7852,2.8198,2.8236,2.8467,0.0,0.0,0.0,0.0,0.0,0.0,0.0,0.0,0.0,3.0586,0.0,0.0,0.0,3.2516,3.6363,4.0696,4.4167,4.4191,4.4713,4.5429,4.6307,0.0,4.8776,0.0,0.0,0.0,0.0,0.0,0.0,0.0,0.0,0.0,0.0,0.0,0.0,0.0,0.0,0.0,0.0,0.0,0.0,0.0,0.0,5.118,5.1159,5.1125,5.1088,5.1102,5.1657,5.1978,5.1978,5.2787,5.3746,5.474,5.5362,5.5768,5.5961,5.5924,5.5943,5.5977,5.5977,5.5959,5.5961,5.5961,5.5943,5.5905,5.5905,5.5905,5.5905,5.5905,5.5943,5.5982,0.0,0.0,0.0,0.0,0.0,0.0,0.0,0.0,0.0,0.0,0.0,3.0379,3.0316,3.0266,3.0203,3.0163,2.9398,2.8581,2.7701,2.7625,2.7243,2.6376,2.6338,0.0,2.5229,2.5187,2.5209,2.5192,2.5262,2.5283,2.5303,2.5303,2.5726,2.6544,2.6544,2.6544,2.6582,2.7467,2.7813,2.789,2.8698,2.9044,2.9121,0.0,0.0,0.0,0.0,0.0,0.0,0.0,0.0,0.0,0.0,0.0,3.0595,0.0,0.0,0.0,3.4622,3.6705,3.8782,3.8804,3.885,3.9753,4.3038,0.0,4.5071,0.0,0.0,0.0,0.0,0.0,0.0,0.0,0.0,0.0,0.0,0.0,0.0,0.0,0.0,0.0,0.0,0.0,0.0,0.0,0.0,5.1125,5.1125,5.1102,5.1101,5.1101,5.1073,5.1083,5.1083,5.1818,5.2988,5.4612,5.465,5.5094,5.5905,5.5905,5.5905,5.5905,5.5905,5.5905,5.5905,5.5905,5.5905,5.5905,5.5905,5.5905,5.5905,5.5905,5.5943,5.5982,0.0,0.0,0.0,0.0,0.0,0.0,0.0,0.0,0.0,0.0,0.0,0.0,0.0,3.0292,3.0292,3.0202,2.9945,2.9396,2.8529,2.8452,2.8122,2.7281,2.7243,2.709,2.6823,2.6262,2.5991,2.6025,2.551,2.5542,2.612,2.612,2.6621,2.739,2.6851,2.6928,2.7505,2.8313,2.8659,2.8736,2.9583,2.9929,0.0,0.0,0.0,0.0,0.0,0.0,0.0,0.0,0.0,0.0,0.0,0.0,0.0,3.0586,3.2443,3.4486,3.4495,3.6384,3.8352,3.8377,3.8385,3.8743,3.9979,4.0704,4.1552,4.3086,0.0,0.0,0.0,0.0,0.0,0.0,0.0,0.0,0.0,0.0,0.0,0.0,0.0,0.0,0.0,0.0,0.0,0.0,0.0,0.0,5.1102,5.1048,5.102,5.102,5.096,5.0913,5.0858,5.1713,5.2643,5.3783,5.4304,5.4979,5.5807,5.5787,5.5766,5.5766,5.5766,5.5787,5.5845,5.5845,5.5787,5.5766,5.5766,5.5766,5.5766,5.5766,5.5805,5.5805,0.0,0.0,0.0,0.0,0.0,3.0379,0.0,0.0,0.0,0.0,0.0,0.0,0.0,0.0,3.0253,3.0213,3.0199,2.9956,2.9383,2.9344,2.8962,2.816,2.8122,2.7969,2.7701,2.7141,2.6871,2.6956,2.6354,2.6387,2.7044,2.7044,2.7505,2.8275,2.7698,2.7775,2.8352,2.9198,2.9544,2.9583,0.0,0.0,3.0571,0.0,0.0,0.0,0.0,0.0,0.0,0.0,0.0,0.0,0.0,0.0,0.0,0.0,0.0,3.3179,3.3179,3.4438,3.5745,3.5771,3.5779,3.6021,3.6907,3.7553,3.8274,3.9427,0.0,0.0,0.0,0.0,0.0,0.0,0.0,0.0,0.0,0.0,0.0,0.0,0.0,0.0,0.0,0.0,0.0,0.0,0.0,0.0,5.102,5.099,5.096,5.0945,5.0897,5.0846,5.0756,5.1334,5.2164,5.3263,5.3822,5.4649,5.5766,5.5724,5.5703,5.5703,5.5703,5.5724,5.5766,5.5766,5.5745,5.5703,5.5703,5.5703,5.5703,5.5703,5.5703,5.5703,0.0,3.0367,3.0379,3.0379,3.0379,3.0379,3.0379,0.0,0.0,0.0,0.0,0.0,0.0,0.0,0.0,3.0185,3.0185,3.0185,3.0185,3.0185,2.9803,2.8987,2.8949,2.8567,2.7778,2.7739,2.7776,2.7838,2.7796,2.7868,2.7928,2.7928,2.8352,2.9121,2.9121,2.9121,2.9198,3.0044,3.0379,3.0379,0.0,3.0379,3.0417,0.0,0.0,0.0,3.8046,3.8046,0.0,3.8084,0.0,0.0,0.0,0.0,0.0,0.0,0.0,0.0,0.0,0.0,0.0,3.0607,3.0599,3.1258,3.3813,3.4456,3.5446,0.0,0.0,0.0,0.0,0.0,0.0,0.0,0.0,0.0,0.0,0.0,0.0,0.0,0.0,0.0,0.0,0.0,0.0,0.0,0.0,5.099,5.0906,5.0897,5.0863,5.0812,5.0812,5.0756,5.0701,5.0701,5.1549,5.3203,5.3203,5.4087,5.5703,5.5703,5.5703,5.5703,5.5703,5.5703,5.5703,5.5703,5.5703,5.5703,5.5703,5.5703,5.5703,5.5703,5.5703,5.5703,3.0305,3.0343,3.0379,3.0379,3.0379,3.0379,3.0379,0.0,0.0,0.0,0.0,0.0,0.0,0.0,3.0199,3.0185,3.0185,3.0185,3.0185,3.0185,3.007,2.9841,2.9841,2.9726,2.9497,0.0,0.0,0.0,0.0,0.0,0.0,0.0,0.0,3.0044,3.0044,3.0044,3.0044,3.0314,3.0379,3.0379,3.0379,3.0379,0.0,0.0,0.0,0.0,0.0,3.9546,3.8277,0.0,3.7353,3.2839,0.0,0.0,0.0,0.0,0.0,0.0,3.0607,0.0,0.0,0.0,0.0,0.0,3.1529,3.3131,3.4788,0.0,0.0,0.0,0.0,0.0,0.0,0.0,0.0,0.0,0.0,0.0,0.0,0.0,0.0,0.0,0.0,0.0,0.0,0.0,5.0874,5.0863,5.0808,5.0846,5.0812,5.072,5.072,5.074,5.0683,5.0683,5.153,5.3203,5.3203,5.4087,5.5703,5.5703,5.5703,5.5703,5.5703,5.5703,5.5703,5.5703,5.5703,5.5703,5.5703,5.5703,5.5703,5.5703,5.5703,5.5703,3.0292,3.0343,3.0379,3.0379,3.0379,3.0379,3.0379,0.0,0.0,0.0,0.0,0.0,0.0,0.0,0.0,3.0185,3.0185,3.0185,3.0185,3.0185,3.0185,3.0185,3.0199,3.0199,3.0199,0.0,0.0,0.0,0.0,0.0,0.0,0.0,0.0,0.0,3.0379,3.0379,3.0379,3.0379,0.0,0.0,3.0379,0.0,0.0,3.2045,3.3276,0.0,0.0,0.0,3.8392,4.0931,3.8392,0.0,0.0,0.0,0.0,0.0,0.0,0.0,0.0,0.0,0.0,0.0,0.0,0.0,3.0595,3.258,3.4427,0.0,0.0,0.0,0.0,0.0,0.0,0.0,0.0,0.0,0.0,0.0,0.0,0.0,0.0,0.0,0.0,0.0,0.0,5.0858,5.0808,5.0773,5.0756,5.0776,5.074,5.0702,5.0702,5.0702,5.0702,5.0702,5.1548,5.3203,5.3203,5.4087,5.5703,5.5703,5.5703,5.5703,5.5703,5.5703,5.5703,5.5703,5.5703,5.5703,5.5703,5.5703,5.5703,5.5703,5.5703,5.5703,0.0,3.0343,3.0379,3.0379,3.0379,3.0379,0.0,0.0,0.0,0.0,0.0,0.0,0.0,0.0,0.0,0.0,3.0199,3.0199,3.0199,3.0199,0.0,3.0199,3.0226,3.0202,3.0202,0.0,0.0,0.0,0.0,0.0,0.0,0.0,0.0,0.0,3.0379,3.0379,3.0379,3.0379,0.0,3.0814,3.0814,3.1006,0.0,0.0,3.2699,3.5084,3.7661,3.8623,3.9046,4.1316,3.8892,0.0,0.0,0.0,0.0,0.0,3.0479,0.0,0.0,0.0,0.0,0.0,0.0,0.0,3.0588,3.2501,3.4295,3.4295,0.0,0.0,0.0,0.0,0.0,0.0,0.0,0.0,0.0,0.0,0.0,0.0,0.0,0.0,0.0,5.0773,5.0812,5.0773,5.0756,5.072,5.0682,5.0683,5.0682,5.0682,5.0682,5.0682,5.0682,5.0682,5.1528,5.3182,5.3182,5.4066,5.5703,5.5703,5.5703,5.5703,5.5703,5.5703,5.5703,5.5703,5.5703,5.5703,5.5703,5.5703,5.5703,5.5703,5.5703,5.5703,3.0292,3.0343,3.0379,3.0379,3.0379,3.0379,0.0,0.0,0.0,0.0,0.0,0.0,0.0,0.0,0.0,0.0,3.0188,3.0188,3.0188,3.0188,3.024,3.0266,3.0279,3.0279,3.0279,3.0279,0.0,0.0,0.0,0.0,0.0,0.0,0.0,0.0,3.0379,3.0379,3.0379,3.0379,0.0,3.3468,3.3468,0.0,3.6507,3.6507,3.7276,3.8623,4.12,4.2508,4.3162,4.3624,4.1777,3.87,0.0,0.0,0.0,0.0,0.0,0.0,0.0,0.0,0.0,0.0,0.0,0.0,3.0539,3.2458,3.4311,0.0,0.0,0.0,0.0,0.0,0.0,0.0,0.0,0.0,0.0,0.0,0.0,0.0,0.0,0.0,0.0,5.0738,5.0701,5.0625,5.0586,5.0563,5.0542,5.0542,5.0542,5.0542,5.0542,5.0542,5.0542,5.0542,5.1387,5.3037,5.3037,5.3942,5.5638,5.5638,5.566,5.5703,5.5703,5.5703,5.5703,5.5703,5.5703,5.5703,5.5703,5.5703,5.5703,5.5703,5.5703,5.5703,3.0292,3.0343,3.0379,3.0379,0.0,0.0,0.0,0.0,0.0,0.0,0.0,0.0,0.0,0.0,0.0,0.0,0.0,0.0,0.0,0.0,3.0739,3.0331,3.0305,3.0318,3.0318,3.0355,0.0,0.0,0.0,0.0,0.0,0.0,0.0,0.0,3.0379,3.0379,3.0379,3.0379,3.2122,3.4814,3.4353,0.0,3.8661,3.8661,3.9161,4.0239,4.2777,4.4778,4.6009,4.4739,4.3431,0.0,0.0,3.5238,3.3853,0.0,3.1646,3.1657,0.0,0.0,0.0,3.1191,0.0,0.0,0.0,3.2436,3.4236,3.4236,3.5265,0.0,0.0,0.0,0.0,0.0,0.0,0.0,0.0,0.0,0.0,0.0,0.0,0.0,0.0,5.0375,5.0586,5.0545,5.0542,5.05,5.05,5.05,5.05,5.05,5.05,5.05,5.05,5.05,5.1344,5.2992,5.2992,5.3897,5.5531,5.5531,5.5593,5.5615,5.566,5.566,5.566,5.5703,5.5703,5.5703,5.5703,5.5703,5.5703,5.5703,5.5703,5.5703,3.0305,3.0343,3.0379,3.0379,0.0,0.0,0.0,0.0,0.0,3.1852,3.2929,0.0,0.0,0.0,0.0,0.0,0.0,0.0,0.0,0.0,0.0,3.1584,3.0919,3.0816,3.1277,3.0725,3.0379,0.0,0.0,0.0,0.0,0.0,0.0,0.0,0.0,3.0494,3.0698,3.1148,0.0,3.5699,0.0,3.7046,3.9508,3.9508,4.0315,4.1816,4.4547,4.6547,4.7548,4.5509,4.447,4.3316,3.9046,3.7353,0.0,0.0,0.0,0.0,0.0,0.0,0.0,0.0,0.0,3.1746,0.0,0.0,0.0,3.3724,0.0,0.0,0.0,0.0,0.0,0.0,0.0,0.0,0.0,0.0,0.0,0.0,0.0,0.0,0.0,4.9541,4.975,4.975,4.9729,4.9707,4.9707,5.0167,5.0435,5.0435,5.0435,5.0435,5.0457,5.061,5.1453,5.297,5.31,5.4005,5.5461,5.5461,5.5461,5.5485,5.557,5.5593,5.5554,5.566,5.5682,5.5682,5.5703,5.5703,5.5703,5.5703,5.5703,5.5703,3.0304,3.0367,3.0379,3.0379,0.0,0.0,0.0,0.0,3.266,3.2737,3.4814,0.0,0.0,0.0,0.0,0.0,0.0,0.0,3.6272,0.0,0.0,0.0,3.3109,0.0,3.4839,3.1955,3.0379,0.0,0.0,0.0,0.0,0.0,0.0,0.0,3.0379,0.0,3.1698,0.0,3.5584,0.0,3.8931,4.0008,0.0,4.0354,4.2277,4.547,4.8779,4.8702,4.7009,0.0,4.5086,4.3008,0.0,3.9662,3.7661,0.0,0.0,0.0,0.0,0.0,0.0,0.0,3.2763,0.0,0.0,0.0,3.2814,3.2045,0.0,0.0,0.0,0.0,0.0,0.0,0.0,0.0,0.0,0.0,0.0,0.0,0.0,0.0,0.0,0.0,4.704,4.704,4.6953,4.6885,4.6885,4.8958,5.0177,5.0177,5.0177,5.0163,5.0236,5.0999,5.1863,5.2829,5.3593,5.4459,5.5389,5.5389,5.5437,5.5485,5.5523,5.5485,5.5485,5.5508,5.557,5.5638,5.5682,5.5703,5.5703,5.5703,5.5703,5.5703,3.0496,3.0751,3.116,3.116,3.1852,0.0,0.0,0.0,3.366,3.366,3.5045,0.0,0.0,0.0,0.0,0.0,0.0,4.1338,0.0,0.0,0.0,0.0,0.0,0.0,0.0,3.2583,3.1852,0.0,3.1391,0.0,0.0,0.0,0.0,0.0,3.166,0.0,3.4661,0.0,3.7546,0.0,0.0,0.0,0.0,4.1431,4.3393,4.674,4.9663,4.9048,4.7124,0.0,4.7394,0.0,0.0,0.0,0.0,0.0,0.0,0.0,0.0,0.0,0.0,0.0,0.0,0.0,3.3019,0.0,3.2735,0.0,0.0,0.0,0.0,0.0,0.0,0.0,3.263,0.0,0.0,0.0,0.0,0.0,0.0,0.0,0.0,0.0,0.0,0.0,0.0,4.6382,4.6382,4.8756,5.0089,5.0089,5.0089,5.0089,5.0139,5.1015,5.1853,5.2705,5.3608,5.4473,5.5262,5.5352,5.5415,5.544,5.5451,5.5437,5.5437,5.5461,5.5547,5.557,5.5669,5.5676,5.5703,5.5703,5.5703,5.5703,3.1239,3.1571,3.2045,3.2045,3.2699,0.0,0.0,0.0,0.0,0.0,0.0,0.0,4.1162,4.2008,0.0,0.0,4.5163,4.4624,0.0,0.0,4.0162,0.0,0.0,0.0,0.0,0.0,3.2891,0.0,0.0,0.0,0.0,0.0,0.0,0.0,0.0,3.4045,3.6045,0.0,3.8623,4.12,4.1893,4.2547,4.3124,4.3162,4.4739,4.724,4.9779,4.9048,4.7201,4.9009,4.8432,0.0,4.6894,0.0,0.0,0.0,0.0,0.0,3.757,0.0,0.0,0.0,0.0,0.0,0.0,0.0,0.0,0.0,0.0,0.0,0.0,0.0,0.0,0.0,0.0,0.0,0.0,0.0,0.0,0.0,0.0,0.0,0.0,0.0,0.0,0.0,0.0,0.0,4.4273,4.7897,4.9682,4.8998,4.9644,5.0126,5.0354,5.1254,5.2118,5.2981,5.3872,5.4623,5.5157,5.5286,5.5313,5.5339,5.5352,5.5377,5.5402,5.5451,5.5476,5.5499,5.5576,5.5646,5.566,5.5682,5.5682,5.5682,3.2814,3.2852,3.2852,3.2852,3.3583,3.443,0.0,0.0,0.0,0.0,0.0,0.0,0.0,0.0,0.0,0.0,0.0,4.9394,4.6894,0.0,4.6586,0.0,0.0,3.9008,0.0,0.0,0.0,0.0,0.0,0.0,0.0,0.0,0.0,0.0,0.0,3.3391,3.443,3.6892,3.8507,3.9585,4.2085,4.3085,4.3355,0.0,4.6817,4.724,4.9779,0.0,0.0,4.7009,4.6971,0.0,0.0,0.0,0.0,0.0,0.0,0.0,0.0,0.0,0.0,3.9039,0.0,0.0,0.0,0.0,3.4971,0.0,0.0,0.0,0.0,0.0,0.0,0.0,0.0,0.0,0.0,0.0,0.0,0.0,0.0,0.0,0.0,0.0,0.0,0.0,0.0,0.0,3.8886,4.5719,4.8626,4.6237,4.8493,5.0213,5.1054,5.2009,5.2938,5.3895,5.4694,5.5075,5.5075,5.5113,5.5168,5.5183,5.5183,5.5275,5.5403,5.5403,5.5415,5.5389,5.5427,5.5476,5.5523,5.5631,5.5692,5.5714,3.4622,3.4622,3.443,3.3853,3.4468,3.5161,0.0,3.7661,0.0,0.0,4.2277,0.0,0.0,4.7663,4.8856,0.0,0.0,5.0317,4.9471,4.7855,0.0,0.0,0.0,3.9238,0.0,0.0,0.0,0.0,0.0,0.0,0.0,0.0,0.0,0.0,0.0,3.5738,0.0,0.0,0.0,0.0,0.0,4.5624,4.5701,0.0,0.0,4.724,4.9779,4.9048,0.0,4.8856,4.8279,4.7201,4.8894,4.824,4.6894,4.6896,4.5107,0.0,0.0,0.0,3.9176,3.9144,0.0,0.0,0.0,0.0,0.0,0.0,0.0,0.0,0.0,0.0,0.0,0.0,0.0,0.0,0.0,0.0,0.0,0.0,0.0,0.0,0.0,0.0,0.0,0.0,0.0,0.0,0.0,4.4964,4.7645,4.8409,4.9268,5.0128,5.0959,5.1819,5.2748,5.3669,5.4562,5.5,5.5057,5.5085,5.5102,5.513,5.513,5.5168,5.5195,5.5248,5.5275,5.5262,5.539,5.5415,5.544,5.5485,5.5585,5.5723,3.6867,3.6136,3.5328,3.4776,3.5122,3.5493,0.0,0.0,0.0,0.0,4.4085,0.0,4.8933,0.0,4.9817,0.0,5.1587,5.1587,5.1587,5.0048,0.0,4.8702,4.4662,0.0,0.0,0.0,0.0,0.0,0.0,3.4661,0.0,0.0,0.0,0.0,0.0,3.643,3.793,3.793,4.0893,0.0,0.0,4.8163,0.0,0.0,4.8202,4.7278,0.0,5.0087,4.8971,5.0933,5.051,4.9356,5.0702,5.001,4.8625,4.8337,4.7069,4.5763,4.5726,4.3808,0.0,4.176,3.983,0.0,3.7921,0.0,0.0,0.0,0.0,0.0,0.0,0.0,0.0,0.0,0.0,0.0,0.0,3.3067,0.0,0.0,0.0,0.0,0.0,0.0,0.0,0.0,3.6979,0.0,0.0,0.0,4.4831,4.5519,4.6779,4.8239,4.9973,5.087,5.2213,5.3905,5.4534,5.486,5.4882,5.4971,5.5,5.5028,5.5057,5.5085,5.5075,5.513,5.5157,5.5195,5.5363,5.5401,5.5389,5.5389,5.5461,5.56,3.9143,3.7178,3.5599,3.5636,3.5699,0.0,0.0,0.0,4.3701,0.0,4.8894,5.2279,5.3126,5.3203,5.3203,5.3203,5.3203,5.3203,5.3203,5.3203,0.0,0.0,4.951,4.7817,4.7048,0.0,0.0,0.0,0.0,0.0,0.0,0.0,0.0,0.0,3.5493,0.0,3.5493,3.5493,3.8392,4.347,4.9279,5.0164,4.8355,5.1741,0.0,4.7471,5.0779,5.1972,5.2087,5.2933,5.3223,5.3069,5.2241,5.1953,5.1819,5.1048,5.0778,5.0717,5.0678,4.8698,4.6661,4.6602,0.0,0.0,0.0,0.0,4.2623,0.0,0.0,0.0,0.0,0.0,0.0,0.0,0.0,0.0,0.0,0.0,0.0,0.0,0.0,0.0,0.0,0.0,3.4473,3.4404,3.6571,3.6945,0.0,0.0,4.0595,3.839,4.1552,4.4899,4.8273,4.9219,5.139,5.4673,5.4673,5.4673,5.4705,5.4767,5.4829,5.4882,5.4941,5.5028,5.5113,5.5113,5.5113,5.5113,5.5303,5.5407,5.5396,5.539,5.5413,5.5384,3.6563,3.6485,3.6678,0.0,3.845,3.9283,0.0,0.0,0.0,0.0,5.0894,5.2972,5.3164,5.3203,5.3203,5.3203,5.3203,0.0,0.0,0.0,0.0,5.2895,5.0433,4.8971,4.8779,4.497,0.0,4.3008,0.0,0.0,3.8277,0.0,0.0,0.0,0.0,3.5493,3.5493,3.5493,3.77,4.1508,4.5586,4.6817,0.0,0.0,4.9702,4.9125,5.1895,5.2856,5.2895,5.3107,5.3223,5.3164,5.2933,5.2856,5.2818,5.2543,5.2483,5.2329,5.159,4.9516,4.7367,4.6631,4.4565,4.2692,0.0,0.0,0.0,0.0,0.0,0.0,0.0,0.0,0.0,0.0,0.0,0.0,0.0,0.0,0.0,3.4335,0.0,0.0,0.0,3.445,3.4427,3.4404,3.5002,3.5861,0.0,0.0,0.0,4.0894,4.238,4.4728,4.8022,4.8915,5.104,5.4476,5.4476,5.4543,5.4673,5.4705,5.4736,5.4736,5.4767,5.4829,5.489,5.4912,5.4971,5.5028,5.5123,5.5113,5.5064,5.5325,5.5403,5.5415,3.8402,3.7887,3.759,3.8054,0.0,0.0,4.1422,4.4938,0.0,4.9815,5.2223,0.0,5.4321,5.43,5.428,5.428,5.428,0.0,5.428,0.0,0.0,5.378,5.2395,5.1433,5.1087,4.8086,0.0,4.6509,0.0,0.0,4.0354,0.0,0.0,0.0,0.0,3.6584,3.6661,3.7777,3.9354,4.147,4.6009,0.0,0.0,5.1048,5.2164,5.2356,5.378,5.4049,5.3818,5.4185,5.428,5.4241,5.3815,5.3738,5.364,5.319,5.3031,5.2916,5.2388,5.1132,4.9862,4.9296,4.7815,4.6411,4.6339,4.6,4.6064,0.0,0.0,0.0,0.0,0.0,0.0,0.0,0.0,0.0,0.0,0.0,0.0,0.0,3.5069,0.0,0.0,3.424,3.424,3.424,3.424,0.0,0.0,0.0,0.0,4.0486,4.1464,4.3469,4.6749,4.7671,4.9113,5.1082,5.2169,5.2723,5.2962,5.4054,5.4576,5.4641,5.4673,5.4705,5.4736,5.4799,5.486,5.489,5.4979,5.4971,5.4924,5.5123,5.5255,5.5412,4.1724,3.9895,3.8411,0.0,0.0,0.0,0.0,4.5194,0.0,5.1082,0.0,5.4998,5.571,5.5745,5.5724,5.5703,0.0,5.5703,5.5703,5.5703,5.5395,5.4703,5.4664,5.4318,5.3549,5.1241,0.0,0.0,0.0,0.0,0.0,0.0,0.0,0.0,0.0,0.0,0.0,4.0854,4.197,4.2508,4.8471,5.0856,5.1202,5.4472,5.5703,5.5703,5.5703,5.5241,5.4762,5.5472,5.5703,5.5528,5.4792,5.4556,5.438,5.3568,5.3292,5.3207,5.3068,5.2971,5.2857,5.2717,5.2041,5.1402,5.1282,5.0667,5.009,5.0032,4.7871,0.0,0.0,0.0,0.0,0.0,0.0,0.0,0.0,0.0,0.0,0.0,0.0,0.0,0.0,0.0,3.3979,3.3979,3.3979,0.0,0.0,0.0,0.0,3.8789,3.9933,0.0,4.5143,0.0,4.6701,4.6807,4.9235,5.0426,5.0638,5.3178,5.4371,5.4472,5.4608,5.4641,5.4641,5.4673,5.4673,5.4705,5.4812,5.4874,5.4943,5.5413,5.5738,5.5978,4.03,3.963,3.9491,0.0,0.0,4.5515,4.7023,5.1172,5.4323,5.494,5.5384,5.5673,5.5807,5.5787,5.5766,5.5703,5.5703,0.0,0.0,0.0,0.0,5.5511,5.5472,5.5434,5.528,5.4164,5.3626,0.0,0.0,0.0,0.0,0.0,0.0,0.0,0.0,0.0,3.82,4.1508,0.0,4.3393,4.9317,5.1702,5.1972,5.4664,5.5703,5.5703,5.5703,5.5588,5.5511,5.5665,5.5682,5.5599,5.5439,5.5339,5.5255,5.503,5.4968,5.479,5.4015,5.3772,5.3594,5.2737,5.2389,5.2191,5.2105,5.1933,5.1737,5.1544,4.8995,4.6757,4.6539,0.0,0.0,0.0,0.0,0.0,0.0,0.0,0.0,0.0,0.0,3.8004,0.0,0.0,0.0,0.0,0.0,0.0,0.0,0.0,0.0,0.0,0.0,0.0,0.0,0.0,4.6442,4.6578,4.9101,5.0362,5.0538,5.3005,5.4163,5.4198,5.4306,5.4375,5.4476,5.4505,5.4608,5.4673,5.4716,5.4792,5.5239,5.8013,5.9067,5.9138,4.266,0.0,0.0,0.0,0.0,0.0,0.0,5.3614,0.0,5.5941,5.5961,5.5924,5.5905,5.5827,5.5787,5.5745,5.5724,5.5703,5.5703,5.5703,5.5703,5.5703,5.5703,0.0,5.5703,5.5318,5.5126,5.5126,0.0,0.0,0.0,0.0,0.0,3.9277,0.0,4.0046,0.0,0.0,0.0,4.7932,5.0779,5.2702,5.401,5.5241,5.5703,5.5703,5.566,5.5638,5.5638,5.5638,5.5615,5.5593,5.5523,5.5476,5.5451,5.544,5.5352,5.5186,5.4752,5.4558,5.44,5.387,5.3366,5.2908,5.2855,5.2422,5.2027,5.1898,5.0558,4.9337,4.9101,4.629,0.0,0.0,0.0,0.0,0.0,0.0,0.0,0.0,0.0,0.0,0.0,0.0,0.0,0.0,0.0,0.0,0.0,0.0,0.0,0.0,0.0,0.0,0.0,0.0,0.0,4.6379,4.893,5.0189,5.0331,5.2863,5.4055,5.4091,5.42,5.4235,5.4271,5.4718,5.4975,5.5078,5.4672,5.5119,5.6237,5.8669,5.9571,5.9609,4.6019,4.5541,0.0,0.0,4.7624,0.0,5.2235,5.4739,5.6311,5.6012,5.617,5.625,5.625,5.6329,5.6367,5.6326,5.6284,5.6186,5.5972,5.5972,5.5895,5.5703,5.5703,5.5703,5.5703,5.5703,5.5703,0.0,0.0,0.0,0.0,0.0,0.0,0.0,0.0,0.0,0.0,0.0,4.824,5.1972,5.251,5.3895,5.5703,5.5703,5.5703,5.5682,5.5631,5.5608,5.557,5.5585,5.5585,5.5523,5.5451,5.5402,5.5377,5.5365,5.5275,5.5183,5.5157,5.5085,5.4941,5.492,5.4269,5.3685,5.3564,5.294,5.239,5.2289,5.2001,5.1672,5.1342,4.9083,0.0,0.0,0.0,0.0,0.0,0.0,0.0,0.0,0.0,0.0,0.0,0.0,0.0,0.0,0.0,3.4207,3.498,3.5228,0.0,0.0,0.0,4.28,4.5956,0.0,4.6135,0.0,4.8716,5.0009,5.0119,5.2717,5.3982,5.4018,5.4055,5.4203,5.4427,5.5249,5.5622,5.5658,5.5135,5.5731,5.7112,5.8683,5.9284,5.9357,0.0,0.0,0.0,0.0,0.0,0.0,5.331,5.5637,5.6963,5.6089,5.6691,5.7155,5.708,5.7795,5.8221,5.8081,5.806,5.773,5.6956,5.6857,5.6511,5.5742,5.5703,5.5703,5.5703,5.5703,5.5703,0.0,0.0,0.0,0.0,0.0,0.0,0.0,0.0,0.0,0.0,5.0202,5.1471,5.2125,5.4395,5.5472,5.5703,5.5703,5.5682,5.5615,5.5585,5.5562,5.5499,5.5415,5.5415,5.5427,5.5389,5.5415,5.5403,5.5248,5.5183,5.5157,5.5057,5.4971,5.4882,5.4829,5.4597,5.4392,5.4292,5.419,5.4011,5.3832,5.3014,5.2084,5.1343,5.0822,5.0333,0.0,0.0,0.0,0.0,0.0,0.0,0.0,0.0,0.0,0.0,4.2073,0.0,0.0,3.6282,3.5016,3.5854,3.6577,3.8145,4.0732,0.0,4.314,4.581,4.5883,0.0,4.6028,4.8606,4.9824,4.9898,5.2527,5.3753,5.3753,5.3907,5.4466,5.5249,5.6108,5.6482,5.6482,5.663,5.6741,5.7078,5.8726,5.9327,5.9328,0.0,0.0,0.0,0.0,0.0,0.0,0.0,5.7582,5.8095,5.765,5.7904,5.8118,5.8044,5.8317,5.8472,5.8392,5.8312,5.8154,5.778,5.778,5.7627,5.728,5.6742,5.6472,5.6472,5.5972,5.5703,0.0,0.0,0.0,0.0,0.0,0.0,0.0,0.0,4.8971,5.0471,5.1471,5.2779,5.428,5.528,5.5703,5.5703,5.5665,5.5621,5.5593,5.5523,5.5451,5.544,5.5428,5.5415,5.5364,5.5288,5.5301,5.5248,5.5195,5.5102,5.5085,5.4971,5.492,5.4799,5.4635,5.4505,5.4405,5.434,5.42,5.4129,5.4019,5.3571,5.3045,5.2518,5.1992,5.1063,0.0,0.0,0.0,0.0,0.0,0.0,0.0,0.0,0.0,0.0,0.0,0.0,0.0,0.0,0.0,3.6371,3.6732,0.0,3.9109,0.0,4.1613,4.5661,4.5735,4.7199,5.0211,5.1323,5.1882,5.1922,5.3074,5.3857,5.4417,5.4496,5.5059,5.5955,5.6811,5.7111,5.7076,5.7707,5.8159,5.8387,5.8798,5.8949,5.8988,5.4762,0.0,5.5296,0.0,5.5769,5.6834,5.8881,5.9177,5.9265,5.942,5.9443,5.9332,5.9008,5.9166,5.9225,5.9184,5.9104,5.8984,5.8665,5.8665,5.855,5.8319,5.7703,0.0,5.7357,5.678,5.6472,5.6472,5.6203,0.0,0.0,0.0,0.0,0.0,5.0317,5.1318,5.3049,5.328,5.4434,5.6088,5.6335,5.6434,5.6434,5.6374,5.6176,5.5892,5.5834,5.5607,5.5403,5.5339,5.5326,5.5314,5.521,5.5183,5.5157,5.5113,5.5028,5.4941,5.489,5.4799,5.4673,5.4505,5.4443,5.434,5.4237,5.4092,5.3982,5.3907,5.3716,5.3518,5.3318,5.2752,5.1674,4.9866,0.0,0.0,0.0,0.0,0.0,0.0,4.3899,4.2741,3.8939,0.0,0.0,0.0,0.0,0.0,0.0,0.0,0.0,0.0,0.0,0.0,0.0,4.5219,4.7703,5.1877,5.2736,5.3151,5.3235,5.3617,5.4293,5.5229,5.5451,5.5936,5.6611,5.7427,5.7769,5.7736,5.8446,5.8862,5.9092,5.8831,5.8719,5.8719,5.8838,5.8838,5.8838,5.8838,5.8853,5.914,6.0035,6.0125,6.0356,6.1167,6.1291,6.0915,5.9976,6.0576,6.1041,6.0959,6.0959,6.0569,5.955,5.9473,5.9127,0.0,0.0,5.828,5.828,5.828,5.828,5.828,0.0,0.0,5.3126,0.0,5.3241,5.5588,5.5588,5.5626,5.5703,5.6549,5.6934,5.7049,5.7828,5.8158,5.8149,5.8097,5.7489,5.6688,5.6677,5.6129,5.5377,5.5248,5.5183,5.5183,5.5183,5.513,5.5113,5.5028,5.4941,5.489,5.4829,5.4673,5.4505,5.4443,5.434,5.4273,5.4019,5.3982,5.3944,5.3753,5.3518,5.3318,5.3318,5.3151,5.2937,5.2769,0.0,0.0,0.0,0.0,0.0,0.0,4.6776,4.532,3.8105,0.0,0.0,0.0,0.0,0.0,0.0,0.0,0.0,3.7899,3.7967,0.0,4.1833,4.4267,4.6746,4.9273,5.1804,5.298,5.3017,5.4044,5.4981,5.5955,5.6731,5.71,5.7174,5.8116,5.8492,5.8492,5.8656,5.8698,5.8698,5.8698,5.8702,5.8673,5.8978,5.9445,5.9864,5.9843,6.0316,6.076,6.0968,6.1019,6.1056,6.1283,6.1291,6.1164,6.0824,6.0982,6.108,0.0,6.0997,6.0839,0.0,6.0396,6.0281,6.0012,5.9435,5.9127,5.9127,5.8588,5.8319,5.8319,0.0,0.0,0.0,5.3818,5.4126,5.4972,5.6703,5.7473,5.7473,5.778,5.7873,5.7828,5.8112,5.8174,5.8135,5.8054,5.7851,5.757,5.7423,5.7205,5.6965,5.6882,5.6825,5.6768,5.6709,5.5882,5.4941,5.489,5.4829,5.4736,5.4603,5.4505,5.4443,5.434,5.42,5.4055,5.4019,5.3869,5.3716,5.3477,5.3359,5.3277,5.3109,5.298,5.2806,5.2717,0.0,0.0,0.0,0.0,0.0,0.0,4.5285,4.4041,0.0,4.181,0.0,0.0,0.0,0.0,0.0,0.0,0.0,0.0,3.7757,0.0,4.1649,4.4075,4.6585,4.9185,5.2134,5.3945,5.4627,5.506,5.5779,5.6676,5.6897,5.7383,5.8024,5.8326,5.8474,5.8665,5.8708,5.8708,5.8671,5.872,5.8688,5.8693,5.9988,6.0408,6.0789,6.0809,6.1195,6.1472,6.146,6.1408,6.1366,6.1352,6.133,6.1281,6.1264,6.1155,0.0,6.0997,6.0997,6.0955,6.0781,6.0781,6.0781,6.0781,6.0281,5.9973,5.9973,0.0,0.0,5.9242,5.8896,5.778,5.5934,5.5934,5.5934,5.6011,5.7588,5.8319,5.8319,5.8604,5.8673,5.8688,5.8947,5.9037,5.8999,5.891,5.8704,5.8345,5.8234,5.7949,5.7644,5.7596,5.7506,5.7446,5.739,5.6608,5.5675,5.5643,5.5616,5.5513,5.5375,5.531,5.5165,5.4761,5.4503,5.4354,5.3981,5.3716,5.3518,5.3318,5.3277,5.3193,5.3023,5.2893,5.2761,5.2635,5.2397,5.2246,5.2198,0.0,0.0,0.0,0.0,0.0,0.0,4.2776,0.0,0.0,0.0,0.0,0.0,0.0,0.0,4.0103,4.0256,0.0,4.2793,4.5539,4.7795,4.9445,5.269,5.4838,5.5834,5.5962,5.6492,5.7353,5.7353,5.7692,5.826,5.8305,5.8386,5.846,5.8541,5.8504,5.843,5.8443,5.856,5.8708,6.1603,6.1586,0.0,0.0,6.1528,0.0,6.1484,6.1421,6.1419,6.1366,6.1345,6.1297,6.1297,6.1173,6.108,6.0997,0.0,0.0,0.0,6.0781,6.0781,6.0781,6.0781,6.0781,6.0781,6.0781,6.0781,6.0781,5.9973,5.9204,5.8473,5.8473,5.8473,5.8473,5.8473,5.8473,5.8489,5.9211,5.9494,5.9547,6.0226,6.0506,6.0506,6.0398,5.9855,5.9083,5.9045,5.852,5.7748,5.7658,5.7604,5.751,5.7446,5.7314,5.714,5.7096,5.7024,5.6955,5.6812,5.6704,5.6444,5.551,5.5286,5.5023,5.4047,5.3625,5.3465,5.3392,5.3304,5.3219,5.3017,5.2893,5.2761,5.259,5.2397,5.2246,5.2102,0.0,0.0,0.0,0.0,0.0,0.0,4.3054,4.4378,0.0,0.0,0.0,0.0,0.0,4.2306,4.4387,4.4582,4.4749,4.4915,4.8299,5.0046,5.0344,5.3541,5.5676,5.6629,5.6712,5.7161,5.7997,5.7997,5.7997,5.7997,5.8133,5.8142,5.8031,5.8268,5.8201,5.8017,5.8017,5.8282,5.8615,0.0,0.0,6.1607,6.1607,6.1528,6.1484,6.1484,6.1421,6.1366,6.1337,6.1291,6.1281,6.1247,6.1155,6.108,6.0997,6.0997,6.0955,6.0781,6.0781,6.0781,6.0781,6.0781,6.0781,6.0781,6.0781,6.0781,6.0781,6.0589,6.0396,6.0204,6.0204,6.0204,6.0204,6.0204,6.0181,6.0133,6.0325,6.0328,6.0265,6.043,6.048,6.0398,6.0352,6.0179,5.9998,5.9802,5.9596,5.9381,5.9284,5.9185,5.9084,5.9015,5.8909,5.8501,5.7258,5.6812,5.6742,5.6668,5.6556,5.6405,5.618,5.6025,5.5788,5.5397,5.5275,5.5006,5.4295,5.4063,5.3749,5.2959,5.2761,5.2627,5.2526,5.234,5.215,5.2102,4.977,0.0,0.0,4.6848,4.6491,4.5831,4.7768,4.8995,0.0,0.0,0.0,0.0,4.7924,4.6244,4.507,4.5265,4.5685,4.6381,4.9149,5.1814,5.4422,5.5438,5.643,5.7375,5.747,5.7674,5.7997,5.7997,5.7997,5.7997,5.8042,5.8042,5.8006,5.8088,5.8051,5.8015,5.7994,5.8076,5.815,6.158,6.1595,6.1607,6.1607,6.1528,6.1484,6.1484,6.1421,6.1366,6.1322,6.1291,6.1281,6.1191,6.1137,6.108,6.0997,6.0997,6.0955,6.0781,6.0781,6.0781,6.0781,6.0781,6.0781,6.0781,6.0781,6.0781,6.0781,6.0781,6.0781,6.0781,6.0781,6.0781,6.0734,6.0734,6.071,6.0635,6.061,6.0559,6.048,6.0425,6.0408,6.0352,6.0264,6.0205,6.0144,6.0013,5.9918,5.9857,5.9757,5.9581,5.9474,5.9438,5.9328,5.899,5.8053,5.7753,5.7753,5.7676,5.7598,5.7407,5.6955,5.6381,5.5913,5.5822,5.5742,5.5588,5.5023,5.4862,5.4582,5.3972,5.3809,5.3671,5.3519,5.3291,5.3145,5.3046,5.0744,0.0,4.887,4.867,4.8553,4.8451,5.0414,5.1633,5.1633,0.0,0.0,5.2114,5.1199,5.0101,4.8956,4.9074,4.9437,5.0062,5.1965,5.408,5.6335,5.6536,5.6988,5.7486,5.7631,5.781,5.7904,5.7997,5.7997,5.7997,5.7997,5.7997,5.7997,5.7997,5.7997,5.7997,5.7969,5.8015,5.7978,6.1595,6.1595,6.1607,6.1607,6.1518,6.1484,6.1472,6.1421,6.1352,6.1322,6.1275,6.1264,6.1173,6.1137,6.106,6.0997,6.0976,6.0933,6.0781,6.0781,6.0781,6.0781,6.0781,6.0781,6.0781,6.0781,6.0781,6.0781,6.0781,6.0781,6.0781,6.0781,6.0734,6.0685,6.0685,6.0635,6.0559,6.0506,6.048,6.0453,6.0352,6.0264,6.0264,6.0137,6.0045,5.9982,5.9885,5.9824,5.9723,5.9581,5.94,5.9253,5.9253,5.914,5.8982,5.894,5.8902,5.8942,5.8899,5.8859,5.8591,5.7677,5.6799,5.619,5.611,5.6066,5.5904,5.5794,5.5668,5.5496,5.5212,5.5073,5.4882,5.4639,5.4215,5.3957,5.4164,0.0,5.0338,5.0606,5.047,5.0348,5.0206,5.1829,5.2869,5.2869,5.2753,5.2705,0.0,5.2986,5.3252,5.362,5.357,5.3737,5.4153,5.5186,5.6181,5.6984,5.7087,5.7239,5.7388,5.7486,5.7631,5.781,5.7904,5.7997,5.7997,5.7997,5.7997,5.7997,5.7997,5.7997,5.7997,5.7997,5.7997,5.7997,6.1612,6.1586,6.1559,6.1539,6.1507,6.1472,6.1408,6.1342,6.1322,6.1314,6.1264,6.1173,6.1137,6.1041,6.1021,6.0997,6.0955,6.0888,6.0819,6.0781,6.0781,6.0781,6.0781,6.0781,6.0781,6.0781,6.0781,6.0781,6.0781,6.0781,6.0781,6.0734,6.071,6.0685,6.0635,6.0559,6.0506,6.048,6.0453,6.0332,6.0323,6.0205,6.0114,6.0058,5.9956,5.9885,5.9824,5.9688,5.9547,5.9401,5.929,5.9177,5.9063,5.8982,5.8899,5.8899,5.8739,5.8577,5.8698,5.8656,5.8492,5.8164,5.7965,5.7765,5.7675,5.7629,5.7446,5.6748,5.642,5.6061,5.5322,5.5062,5.4822,5.4639,5.281,5.2054,5.3949,0.0,5.0838,5.2821,5.285,5.2684,5.2628,5.266,5.2695,5.2695,5.2612,5.283,5.3454,5.3729,5.4185,5.4874,5.4605,5.4889,5.5842,5.6241,5.6563,5.6829,5.6933,5.7138,5.7388,5.7388,5.7534,5.781,5.7857,5.7904,5.7997,5.7997,5.7997,5.7997,5.7997,5.7997,5.7997,5.7997,5.7997,5.7997,6.1603,6.1578,6.1549,6.15,6.1456,6.1447,6.1408,6.1352,6.1291,6.1264,6.1247,6.1173,6.1118,6.1041,6.0982,6.0997,6.0933,6.0888,6.0781,6.0781,6.0781,6.0781,6.0781,6.0781,6.0781,6.0781,6.0781,6.0781,6.0757,6.0734,6.0734,6.066,6.061,6.0585,6.0533,6.0518,6.0425,6.0408,6.038,6.0285,6.0167,6.0083,5.995,5.9928,5.9824,5.9719,5.9688,5.951,5.9365,5.929,5.9139,5.902,5.8942,5.8899,5.8777,5.8698,5.8614,5.8529,5.8529,5.8443,5.8312,5.8223,5.8133,5.8088,5.7997,5.7997,5.7886,5.7519,5.7225,5.6926,5.6562,5.6334,5.6088,5.5902,5.4864,0.0,0.0,5.4189,5.3635,5.4732,5.4592,5.4419,5.4268,5.4032,5.3887,5.3862,5.3644,5.3756,5.4067,5.4287,5.4644,5.5079,5.5121,5.5468,5.6049,5.6328,5.6546,5.6707,5.6881,5.7036,5.7188,5.7338,5.7486,5.7715,5.7763,5.7904,5.7997,5.7997,5.7997,5.7997,5.7997,5.7997,5.7997,5.7997,5.7997,5.7997,6.1586,6.1549,6.1518,6.1468,6.1421,6.1408,6.1366,6.1322,6.1259,6.1191,6.1173,6.1155,6.106,6.1022,6.1,6.0976,6.0933,6.0827,6.0781,6.0781,6.0781,6.0781,6.0781,6.0781,6.0781,6.0781,6.0781,6.0757,6.071,6.0685,6.066,6.0585,6.0533,6.0518,6.0491,6.0436,6.038,6.0285,6.0226,6.0235,6.0045,5.9918,5.989,5.9791,5.965,5.9545,5.9474,5.9365,5.9215,5.9139,5.902,5.8899,5.8859,5.8777,5.8614,5.8492,5.8486,5.8443,5.8393,5.8305,5.8179,5.8133,5.8088,5.7997,5.7997,5.7997,5.7997,5.7997,5.781,5.7583,5.7583,5.7388,5.7138,5.6984,0.0,0.0,0.0,5.5719,5.5299,5.5865,5.5648,5.5448,5.5259,5.5113,5.493,5.4842,5.4655,5.4494,5.4494,5.4717,5.4904,5.5053,5.5472,5.5764,5.5901,5.6217,5.6437,5.66,5.6829,5.6933,5.6984,5.7239,5.7437,5.7534,5.7715,5.7857,5.795,5.7997,5.7997,5.7997,5.7997,5.7997,5.7997,5.7997,5.7997,5.7997,6.15,6.1507,6.1472,6.1408,6.1408,6.1366,6.1337,6.1259,6.1191,6.1191,6.1155,6.106,6.1022,6.1,6.0976,6.0911,6.0866,6.0819,6.0781,6.0781,6.0781,6.0781,6.0781,6.0781,6.0781,6.0781,6.0757,6.071,6.0685,6.066,6.0623,6.0533,6.048,6.048,6.038,6.0294,6.0294,6.015,6.0091,6.0038,5.995,5.9857,5.9794,5.965,5.9472,5.9327,5.929,5.9178,5.8984,5.894,5.8899,5.8859,5.8739,5.8614,5.8492,5.8492,5.8356,5.8223,5.8215,5.8215,5.8179,5.8042,5.7997,5.7997,5.7997,5.7997,5.7997,5.7997,5.781,5.7583,5.7583,5.7388,5.7087,5.6865,0.0,0.0,5.6152,5.4224,5.3493,5.5653,5.5648,5.5507,5.5507,5.5174,5.4992,5.4992,5.4683,5.4494,5.4494,5.4717,5.493,5.5199,5.5531,5.5764,5.5901,5.6106,5.6328,5.66,5.676,5.6881,5.6984,5.7138,5.7289,5.7437,5.7534,5.7679,5.7857,5.795,5.7997,5.7997,5.7997,5.7997,5.7997,5.7997,5.7997,5.7997,6.1507,6.1472,6.1447,6.1408,6.1366,6.1322,6.1242,6.1208,6.1173,6.1155,6.106,6.1022,6.1002,6.0959,6.0933,6.0911,6.0866,6.0781,6.0781,6.0781,6.0781,6.0781,6.0781,6.0757,6.0734,6.0734,6.0685,6.0635,6.0585,6.0559,6.0545,6.0491,6.0436,6.038,6.0323,6.0264,6.0167,6.0068,6.0007,5.995,5.9853,5.9757,5.9583,5.9474,5.9365,5.9215,5.914,5.9061,5.8902,5.8899,5.8818,5.8656,5.8614,5.8529,5.84,5.8312,5.8179,5.8088,5.8088,5.8088,5.8042,5.7997,5.7997,5.7997,5.7997,5.7997,5.7997,5.7904,5.7763,5.7583,5.7486,5.7338,5.7138,5.6933,0.0,5.5718,5.6403,5.538,5.4909,5.5794,5.5648,5.5448,5.5174,5.5053,5.493,5.4683,5.4557,5.4494,5.4494,5.4717,5.4904,5.5079,5.5259,5.5496,5.5764,5.5936,5.6106,5.6328,5.66,5.676,5.6881,5.6984,5.7188,5.7388,5.7437,5.7583,5.781,5.7857,5.795,5.7997,5.7997,5.7997,5.7997,5.7997,5.7997,5.7997,6.146,6.1421,6.1394,6.1391,6.1306,6.1259,6.1191,6.1173,6.1155,6.106,6.1022,6.0982,6.0962,6.0916,6.0911,6.0888,6.0843,6.0781,6.0781,6.0781,6.0781,6.0781,6.0757,6.0734,6.0685,6.066,6.0635,6.0597,6.0506,6.048,6.0491,6.0408,6.0352,6.0294,6.0235,6.0137,6.003,5.9982,5.9885,5.9782,5.9723,5.9583,5.9401,5.9328,5.9215,5.9061,5.8982,5.8902,5.8818,5.8818,5.8656,5.8529,5.8486,5.84,5.8305,5.8215,5.8088,5.7997,5.7997,5.7997,5.7997,5.7997,5.7997,5.7997,5.7997,5.7997,5.795,5.7857,5.7679,5.7534,5.7437,5.7289,5.7138,5.6969,5.6829,5.676,5.6546,5.6162,5.5901,5.5901,5.5648,5.5389,5.5113,5.5053,5.4869,5.4655,5.4529,5.4494,5.4494,5.4655,5.478,5.493,5.5113,5.5259,5.5531,5.5764,5.5936,5.6197,5.6437,5.66,5.676,5.6881,5.7087,5.7289,5.7338,5.7486,5.7679,5.7763,5.7857,5.7987,5.7997,5.7997,5.7997,5.7997,5.7997,5.7997,6.1419,6.1352,6.1306,6.1314,6.1264,6.1191,6.1191,6.1155,6.1099,6.1002,6.1002,6.0962,6.0933,6.0911,6.0888,6.0819,6.0781,6.0781,6.0781,6.0781,6.0781,6.0781,6.0734,6.0685,6.0685,6.061,6.0597,6.048,6.0518,6.0453,6.0408,6.0323,6.0294,6.0264,6.0076,5.9937,5.9893,5.982,5.9719,5.9571,5.9513,5.9403,5.929,5.9215,5.9098,5.8899,5.8899,5.8818,5.8656,5.8535,5.8492,5.8486,5.8437,5.8305,5.8179,5.8042,5.7997,5.7997,5.7997,5.7997,5.7997,5.7997,5.7997,5.7997,5.7997,5.7997,5.795,5.7857,5.7679,5.7534,5.7437,5.7289,5.7087,5.6829,5.6812,5.6707,5.6437,5.6106,5.5901,5.5901,5.5648,5.5448,5.5199,5.5079,5.493,5.478,5.4592,5.4494,5.4494,5.4494,5.4592,5.478,5.493,5.5018,5.5199,5.5531,5.5879,5.6197,5.6328,5.6437,5.66,5.6917,5.6984,5.6984,5.7289,5.7388,5.7388,5.7715,5.7883,5.8004,5.7987,5.7997,5.7997,5.7997,5.7997,5.7997,6.3162,6.2626,6.215,6.2155,6.1617,6.1173,6.1137,6.106,6.1022,6.1002,6.098,6.0916,6.0911,6.0866,6.0804,6.0781,6.0781,6.0781,6.0781,6.0734,6.0734,6.0734,6.071,6.066,6.0559,6.0533,6.0518,6.0436,6.038,6.0352,6.0323,6.0197,6.0137,6.0076,5.9969,5.9906,5.982,5.9688,5.9618,5.9545,5.9401,5.929,5.9215,5.9059,5.894,5.8899,5.8818,5.8656,5.8572,5.8492,5.84,5.8268,5.8133,5.8088,5.8042,5.7997,5.7997,5.7997,5.7997,5.7997,5.7997,5.7997,5.7997,5.7997,5.7997,5.795,5.781,5.7715,5.7534,5.7388,5.7289,5.7239,5.7087,5.6829,5.6812,5.6707,5.6437,5.6106,5.5901,5.5901,5.5648,5.5389,5.5113,5.5053,5.4869,5.4592,5.4494,5.4494,5.4494,5.4494,5.4592,5.478,5.4842,5.4992,5.5199,5.5531,5.5822,5.5993,5.6162,5.6383,5.66,5.6812,5.6881,5.6984,5.7188,5.7289,5.7388,5.7559,5.774,5.8004,5.7967,5.8024,5.7997,5.7997,5.7997,5.7997,6.3834,6.3335,6.2951,6.2954,6.251,6.2008,6.164,6.1504,6.1348,6.1018,6.0916,6.0911,6.0888,6.0804,6.0781,6.0781,6.0781,6.0781,6.0757,6.071,6.066,6.061,6.061,6.0585,6.048,6.0453,6.0436,6.0352,6.0323,6.0264,6.0235,6.0076,6.0013,5.995,5.9842,5.9711,5.9688,5.9547,5.9439,5.9365,5.9253,5.9139,5.9098,5.894,5.8859,5.8698,5.8656,5.8572,5.8443,5.84,5.8268,5.8088,5.8042,5.7997,5.7997,5.7997,5.7997,5.7997,5.7997,5.7997,5.7997,5.7997,5.7997,5.7997,5.795,5.7857,5.7763,5.7534,5.7437,5.7338,5.7239,5.7138,5.7036,5.6829,5.676,5.6653,5.6328,5.6106,5.5844,5.5822,5.559,5.5389,5.5053,5.4992,5.4869,5.4529,5.4494,5.4494,5.4494,5.4494,5.4592,5.4655,5.478,5.4904,5.5053,5.5354,5.5648,5.5822,5.5993,5.6217,5.6437,5.6653,5.6776,5.6933,5.7036,5.7188,5.7338,5.746,5.7571,5.7726,5.792,5.8014,5.7997,5.7997,5.7997,5.7997,6.394,6.3863,6.3806,6.3787,6.3709,6.332,6.2547,6.233,6.2017,6.1219,6.1142,6.1081,6.1012,6.1012,6.1012,6.1012,6.1012,6.0988,6.094,6.0916,6.084,6.0709,6.0633,6.0567,6.0567,6.0474,6.0352,6.0264,6.0264,6.0235,6.0068,5.995,5.9885,5.9885,5.9685,5.9581,5.9472,5.9327,5.9253,5.9137,5.9061,5.8942,5.8899,5.8859,5.8698,5.8492,5.8492,5.8443,5.8349,5.826,5.8088,5.7997,5.7997,5.7997,5.7997,5.7997,5.7997,5.7997,5.7997,5.8033,5.8107,5.8107,5.8143,5.8134,5.7894,5.781,5.7679,5.7437,5.7388,5.7338,5.7188,5.7087,5.6933,5.6812,5.6653,5.6492,5.6253,5.5993,5.5879,5.5706,5.5566,5.5389,5.5053,5.4992,5.4807,5.4494,5.4494,5.4494,5.4494,5.4494,5.4494,5.4494,5.4655,5.478,5.478,5.5053,5.5319,5.5648,5.5822,5.5993,5.6197,5.6437,5.6653,5.6812,5.6933,5.7036,5.7188,5.7411,5.7364,5.7243,5.7799,5.8014,5.7997,5.7997,5.7997,5.7997,6.5722,6.518,6.4715,6.4655,6.4054,6.3531,6.3295,6.3152,6.3091,6.2876,6.2791,6.2743,6.2781,6.2781,6.2781,6.2781,6.2694,6.2669,6.2644,6.254,6.2498,6.247,6.1707,6.1268,6.1268,6.0628,6.0264,6.0167,6.0106,6.0013,5.995,5.9857,5.9753,5.9677,5.9578,5.9436,5.9327,5.9253,5.9176,5.9061,5.8942,5.8899,5.8859,5.8656,5.8572,5.8492,5.8443,5.8349,5.8223,5.8088,5.8042,5.7997,5.7997,5.7997,5.7997,5.7997,5.7997,5.7997,5.7997,5.8474,5.8951,5.8951,5.9333,5.9395,5.8066,5.7667,5.7486,5.7388,5.7289,5.7188,5.7036,5.6984,5.6881,5.6707,5.6546,5.6383,5.6253,5.5936,5.5706,5.5706,5.5472,5.5234,5.4992,5.4745,5.4557,5.4529,5.4494,5.4494,5.4494,5.4494,5.4494,5.4494,5.4494,5.4655,5.478,5.4842,5.5148,5.5566,5.5648,5.5879,5.6197,5.6328,5.6492,5.6653,5.6917,5.6984,5.7036,5.7224,5.7216,5.7255,5.7765,5.7982,5.8014,5.7987,5.7997,5.7997,6.6185,6.5856,6.5505,6.544,6.5032,6.4585,6.4116,6.4031,6.383,6.3407,6.3344,6.332,6.332,6.332,6.3295,6.3271,6.3207,6.3156,6.3115,6.3061,6.2978,6.2892,6.2413,6.2094,6.1964,6.1552,6.0874,6.0038,6.0013,5.9918,5.9857,5.9723,5.9581,5.9434,5.9364,5.9253,5.914,5.9098,5.902,5.8942,5.8821,5.8777,5.8698,5.8572,5.8665,5.891,5.8903,5.9025,5.9265,5.9134,5.9134,5.9134,5.9134,5.9134,5.9134,5.9134,5.9134,5.9134,5.9134,5.9465,5.9748,5.9663,5.9896,5.987,5.903,5.87,5.8551,5.845,5.8347,5.8244,5.8139,5.8034,5.7909,5.7655,5.7489,5.7356,5.7127,5.6917,5.674,5.6561,5.644,5.6195,5.5945,5.5726,5.5598,5.5598,5.5533,5.5468,5.5468,5.5468,5.5468,5.5468,5.5533,5.5662,5.5726,5.579,5.5807,5.5672,5.5624,5.5742,5.5971,5.6197,5.6418,5.6492,5.6707,5.6881,5.6984,5.7159,5.7188,5.7242,5.7522,5.7777,5.8004,5.8004,5.8004,5.8234,6.6102,6.608,6.6058,6.6013,6.6005,6.5765,6.5033,6.4845,6.4551,6.3858,6.3743,6.3743,6.3743,6.3718,6.3693,6.3643,6.3617,6.3564,6.3427,6.3399,6.3341,6.323,6.3047,6.2877,6.2677,6.2496,6.1705,6.0399,6.0302,6.024,6.0176,5.996,5.9852,5.9666,5.9627,5.9549,5.939,5.935,5.9268,5.9227,5.9144,5.898,5.8894,5.8894,5.9169,5.9578,5.9578,5.9926,6.0419,6.0419,6.0419,6.0419,6.0419,6.0419,6.0419,6.0419,6.0419,6.0419,6.0419,6.0493,6.0554,6.0457,6.0418,6.0391,6.0391,6.0056,5.9719,5.9615,5.9456,5.9402,5.9349,5.9166,5.8944,5.8681,5.8566,5.8332,5.7998,5.7938,5.7816,5.7506,5.7444,5.7318,5.7032,5.6836,5.6805,5.6739,5.6572,5.6505,5.6438,5.6438,5.6438,5.6438,5.6638,5.6739,5.6739,5.6902,5.6656,5.6096,5.5846,5.5753,5.5648,5.5971,5.6197,5.6383,5.6492,5.6778,5.7149,5.7381,5.7391,5.7202,5.7216,5.7486,5.7946,5.8567,5.8786,5.9164,6.6036,6.6013,6.599,6.5982,6.602,6.5933,6.5769,6.5705,6.5667,6.5551,6.5551,6.5551,6.5551,6.55,6.5448,6.5448,6.5301,6.5178,6.515,6.507,6.4978,6.4946,6.4133,6.3622,6.3448,6.2659,6.2132,6.1905,6.1838,6.1768,6.1694,6.158,6.1432,6.1314,6.1192,6.1102,6.0964,6.0981,6.0858,6.0722,6.0722,6.0633,6.0498,6.037,6.0351,6.0461,6.0283,6.0309,6.0419,6.0419,6.0419,6.0419,6.0419,6.0419,6.0419,6.0419,6.0419,6.0419,6.0419,6.0896,6.1398,6.1299,6.166,6.2053,6.1911,6.0699,5.9615,5.9456,5.9402,5.9349,5.9111,5.9,5.8887,5.8566,5.8391,5.8249,5.8033,5.7754,5.7569,5.7506,5.7254,5.7032,5.6871,5.6805,5.6739,5.6572,5.6505,5.6438,5.6235,5.6235,5.6235,5.6235,5.6438,5.6505,5.6505,5.6705,5.6867,5.6859,5.6819,5.6342,5.5507,5.5648,5.5936,5.6253,5.6328,5.6885,5.7747,5.8339,5.8015,5.7208,5.7201,5.721,5.7715,6.097,6.2144,6.2206,6.6005,6.6005,6.5982,6.5947,6.5947,6.5947,6.5897,6.5897,6.5897,6.5897,6.5897,6.5897,6.5897,6.5846,6.5767,6.5646,6.5552,6.5465,6.5413,6.5321,6.5258,6.5161,6.4685,6.432,6.4211,6.369,6.3427,6.3352,6.2448,6.1958,6.1883,6.177,6.1576,6.1409,6.1405,6.1316,6.1218,6.1143,6.1063,6.1011,6.0921,6.0831,6.0655,6.0609,6.0819,6.125,6.1594,6.1741,6.1741,6.1741,6.1741,6.1741,6.1741,6.1741,6.1741,6.1741,6.1741,6.1741,6.1741,6.1948,6.2141,6.1989,6.2141,6.2238,6.2114,6.1462,6.0792,6.0738,6.0683,6.0572,6.0289,6.0117,5.9941,5.9703,5.9557,5.9338,5.9053,5.8864,5.8736,5.8542,5.8279,5.8079,5.7912,5.7946,5.7844,5.7638,5.7499,5.7395,5.7326,5.7326,5.7326,5.7326,5.7499,5.7638,5.7775,5.7844,5.7773,5.7524,5.759,5.7295,5.665,5.6771,5.7011,5.7246,5.7477,5.7861,5.8351,5.9096,5.906,5.861,5.9542,6.0041,6.0537,6.2168,6.2831,6.2781]}]]